<?xml version="1.0" encoding="UTF-8" standalone="no" ?>
<gpx xmlns="http://www.topografix.com/GPX/1/1" xmlns:xsi="http://www.w3.org/2001/XMLSchema-instance" xsi:schemaLocation="http://www.topografix.com/GPX/1/1 http://www.topografix.com/GPX/1/1/gpx.xsd" version="1.1" creator="VisuGPX - https://www.visugpx.com">
  <metadata>
    <name>Longue distance Longchaumois</name>
    <desc><![CDATA[Course d\'orientation Nationale Nord est 2014]]></desc>
  </metadata>
  <trk>
    <name><![CDATA[Longcaumois longue distance]]></name>
    <trkseg>
      <trkpt lat="46.44657" lon="5.9386">
        <ele>971.20001220703</ele>
        <time>2014-06-01T08:10:52.000Z</time>
      </trkpt>
      <trkpt lat="46.44656" lon="5.93861">
        <ele>971.40002441406</ele>
        <time>2014-06-01T08:11:01.000Z</time>
      </trkpt>
      <trkpt lat="46.44641" lon="5.93858">
        <ele>973</ele>
        <time>2014-06-01T08:11:08.000Z</time>
      </trkpt>
      <trkpt lat="46.44627" lon="5.93857">
        <ele>974.59997558594</ele>
        <time>2014-06-01T08:11:15.000Z</time>
      </trkpt>
      <trkpt lat="46.44623" lon="5.93859">
        <ele>975.40002441406</ele>
        <time>2014-06-01T08:11:19.000Z</time>
      </trkpt>
      <trkpt lat="46.44623" lon="5.9386">
        <ele>975.59997558594</ele>
        <time>2014-06-01T08:11:20.000Z</time>
      </trkpt>
      <trkpt lat="46.44622" lon="5.93862">
        <ele>976</ele>
        <time>2014-06-01T08:11:23.000Z</time>
      </trkpt>
      <trkpt lat="46.44622" lon="5.9387">
        <ele>977.79998779297</ele>
        <time>2014-06-01T08:11:29.000Z</time>
      </trkpt>
      <trkpt lat="46.4462" lon="5.93871">
        <ele>978.40002441406</ele>
        <time>2014-06-01T08:11:31.000Z</time>
      </trkpt>
      <trkpt lat="46.4461" lon="5.93872">
        <ele>980.59997558594</ele>
        <time>2014-06-01T08:11:37.000Z</time>
      </trkpt>
      <trkpt lat="46.44603" lon="5.93873">
        <ele>982</ele>
        <time>2014-06-01T08:11:41.000Z</time>
      </trkpt>
      <trkpt lat="46.44592" lon="5.93874">
        <ele>984.40002441406</ele>
        <time>2014-06-01T08:11:47.000Z</time>
      </trkpt>
      <trkpt lat="46.44588" lon="5.93873">
        <ele>985</ele>
        <time>2014-06-01T08:11:49.000Z</time>
      </trkpt>
      <trkpt lat="46.44586" lon="5.93874">
        <ele>985.59997558594</ele>
        <time>2014-06-01T08:11:51.000Z</time>
      </trkpt>
      <trkpt lat="46.4458" lon="5.9388">
        <ele>988</ele>
        <time>2014-06-01T08:11:58.000Z</time>
      </trkpt>
      <trkpt lat="46.44578" lon="5.93881">
        <ele>988.59997558594</ele>
        <time>2014-06-01T08:11:59.000Z</time>
      </trkpt>
      <trkpt lat="46.44573" lon="5.93886">
        <ele>990.79998779297</ele>
        <time>2014-06-01T08:12:04.000Z</time>
      </trkpt>
      <trkpt lat="46.44562" lon="5.93892">
        <ele>993.40002441406</ele>
        <time>2014-06-01T08:12:10.000Z</time>
      </trkpt>
      <trkpt lat="46.44555" lon="5.93889">
        <ele>993.79998779297</ele>
        <time>2014-06-01T08:12:14.000Z</time>
      </trkpt>
      <trkpt lat="46.44548" lon="5.93896">
        <ele>995</ele>
        <time>2014-06-01T08:12:18.000Z</time>
      </trkpt>
      <trkpt lat="46.44542" lon="5.93909">
        <ele>997</ele>
        <time>2014-06-01T08:12:23.000Z</time>
      </trkpt>
      <trkpt lat="46.44531" lon="5.93923">
        <ele>999.40002441406</ele>
        <time>2014-06-01T08:12:30.000Z</time>
      </trkpt>
      <trkpt lat="46.44529" lon="5.93926">
        <ele>999.79998779297</ele>
        <time>2014-06-01T08:12:32.000Z</time>
      </trkpt>
      <trkpt lat="46.44521" lon="5.93924">
        <ele>1000.4000244141</ele>
        <time>2014-06-01T08:12:37.000Z</time>
      </trkpt>
      <trkpt lat="46.44515" lon="5.93923">
        <ele>1000.799987793</ele>
        <time>2014-06-01T08:12:40.000Z</time>
      </trkpt>
      <trkpt lat="46.44508" lon="5.93921">
        <ele>1001</ele>
        <time>2014-06-01T08:12:43.000Z</time>
      </trkpt>
      <trkpt lat="46.44506" lon="5.93921">
        <ele>1001.200012207</ele>
        <time>2014-06-01T08:12:45.000Z</time>
      </trkpt>
      <trkpt lat="46.445" lon="5.9392">
        <ele>1001.4000244141</ele>
        <time>2014-06-01T08:12:50.000Z</time>
      </trkpt>
      <trkpt lat="46.44498" lon="5.93922">
        <ele>1001.799987793</ele>
        <time>2014-06-01T08:12:54.000Z</time>
      </trkpt>
      <trkpt lat="46.44494" lon="5.93923">
        <ele>1002</ele>
        <time>2014-06-01T08:12:58.000Z</time>
      </trkpt>
      <trkpt lat="46.44489" lon="5.93928">
        <ele>1002.799987793</ele>
        <time>2014-06-01T08:13:02.000Z</time>
      </trkpt>
      <trkpt lat="46.44488" lon="5.9393">
        <ele>1003</ele>
        <time>2014-06-01T08:13:04.000Z</time>
      </trkpt>
      <trkpt lat="46.44482" lon="5.9393">
        <ele>1003.4000244141</ele>
        <time>2014-06-01T08:13:10.000Z</time>
      </trkpt>
      <trkpt lat="46.44476" lon="5.93933">
        <ele>1004</ele>
        <time>2014-06-01T08:13:15.000Z</time>
      </trkpt>
      <trkpt lat="46.44471" lon="5.93937">
        <ele>1004.799987793</ele>
        <time>2014-06-01T08:13:20.000Z</time>
      </trkpt>
      <trkpt lat="46.44467" lon="5.9394">
        <ele>1005.200012207</ele>
        <time>2014-06-01T08:13:25.000Z</time>
      </trkpt>
      <trkpt lat="46.44473" lon="5.93954">
        <ele>1006</ele>
        <time>2014-06-01T08:13:32.000Z</time>
      </trkpt>
      <trkpt lat="46.44474" lon="5.93956">
        <ele>1006.200012207</ele>
        <time>2014-06-01T08:13:33.000Z</time>
      </trkpt>
      <trkpt lat="46.44472" lon="5.9396">
        <ele>1006.5999755859</ele>
        <time>2014-06-01T08:13:39.000Z</time>
      </trkpt>
      <trkpt lat="46.44472" lon="5.93961">
        <ele>1006.799987793</ele>
        <time>2014-06-01T08:13:40.000Z</time>
      </trkpt>
      <trkpt lat="46.44464" lon="5.93968">
        <ele>1007</ele>
        <time>2014-06-01T08:13:45.000Z</time>
      </trkpt>
      <trkpt lat="46.44459" lon="5.93971">
        <ele>1007.200012207</ele>
        <time>2014-06-01T08:13:51.000Z</time>
      </trkpt>
      <trkpt lat="46.44458" lon="5.93971">
        <ele>1007.200012207</ele>
        <time>2014-06-01T08:13:53.000Z</time>
      </trkpt>
      <trkpt lat="46.44451" lon="5.93972">
        <ele>1007.4000244141</ele>
        <time>2014-06-01T08:13:58.000Z</time>
      </trkpt>
      <trkpt lat="46.44448" lon="5.9397">
        <ele>1007.4000244141</ele>
        <time>2014-06-01T08:14:04.000Z</time>
      </trkpt>
      <trkpt lat="46.44444" lon="5.93968">
        <ele>1007.4000244141</ele>
        <time>2014-06-01T08:14:06.000Z</time>
      </trkpt>
      <trkpt lat="46.44439" lon="5.93969">
        <ele>1007.4000244141</ele>
        <time>2014-06-01T08:14:10.000Z</time>
      </trkpt>
      <trkpt lat="46.44436" lon="5.93979">
        <ele>1007.799987793</ele>
        <time>2014-06-01T08:14:15.000Z</time>
      </trkpt>
      <trkpt lat="46.44441" lon="5.93989">
        <ele>1008.4000244141</ele>
        <time>2014-06-01T08:14:19.000Z</time>
      </trkpt>
      <trkpt lat="46.44443" lon="5.93994">
        <ele>1008.5999755859</ele>
        <time>2014-06-01T08:14:23.000Z</time>
      </trkpt>
      <trkpt lat="46.44442" lon="5.93997">
        <ele>1008.799987793</ele>
        <time>2014-06-01T08:14:28.000Z</time>
      </trkpt>
      <trkpt lat="46.44441" lon="5.93997">
        <ele>1008.799987793</ele>
        <time>2014-06-01T08:14:29.000Z</time>
      </trkpt>
      <trkpt lat="46.44432" lon="5.94001">
        <ele>1009.200012207</ele>
        <time>2014-06-01T08:14:34.000Z</time>
      </trkpt>
      <trkpt lat="46.44428" lon="5.94007">
        <ele>1009.5999755859</ele>
        <time>2014-06-01T08:14:38.000Z</time>
      </trkpt>
      <trkpt lat="46.44425" lon="5.94007">
        <ele>1009.4000244141</ele>
        <time>2014-06-01T08:14:41.000Z</time>
      </trkpt>
      <trkpt lat="46.44422" lon="5.94009">
        <ele>1009.5999755859</ele>
        <time>2014-06-01T08:14:47.000Z</time>
      </trkpt>
      <trkpt lat="46.44423" lon="5.94018">
        <ele>1009.799987793</ele>
        <time>2014-06-01T08:14:52.000Z</time>
      </trkpt>
      <trkpt lat="46.44423" lon="5.94031">
        <ele>1010.4000244141</ele>
        <time>2014-06-01T08:14:56.000Z</time>
      </trkpt>
      <trkpt lat="46.44419" lon="5.94038">
        <ele>1010.5999755859</ele>
        <time>2014-06-01T08:15:00.000Z</time>
      </trkpt>
      <trkpt lat="46.4442" lon="5.94046">
        <ele>1010.799987793</ele>
        <time>2014-06-01T08:15:06.000Z</time>
      </trkpt>
      <trkpt lat="46.4442" lon="5.94051">
        <ele>1011</ele>
        <time>2014-06-01T08:15:08.000Z</time>
      </trkpt>
      <trkpt lat="46.44416" lon="5.94075">
        <ele>1012.4000244141</ele>
        <time>2014-06-01T08:15:13.000Z</time>
      </trkpt>
      <trkpt lat="46.44409" lon="5.94091">
        <ele>1013</ele>
        <time>2014-06-01T08:15:17.000Z</time>
      </trkpt>
      <trkpt lat="46.44406" lon="5.941">
        <ele>1013.200012207</ele>
        <time>2014-06-01T08:15:20.000Z</time>
      </trkpt>
      <trkpt lat="46.44402" lon="5.94111">
        <ele>1013.5999755859</ele>
        <time>2014-06-01T08:15:25.000Z</time>
      </trkpt>
      <trkpt lat="46.44392" lon="5.94123">
        <ele>1014.4000244141</ele>
        <time>2014-06-01T08:15:31.000Z</time>
      </trkpt>
      <trkpt lat="46.44388" lon="5.94136">
        <ele>1015.200012207</ele>
        <time>2014-06-01T08:15:35.000Z</time>
      </trkpt>
      <trkpt lat="46.44378" lon="5.94146">
        <ele>1016.4000244141</ele>
        <time>2014-06-01T08:15:39.000Z</time>
      </trkpt>
      <trkpt lat="46.44371" lon="5.94159">
        <ele>1017.5999755859</ele>
        <time>2014-06-01T08:15:44.000Z</time>
      </trkpt>
      <trkpt lat="46.44364" lon="5.94172">
        <ele>1019</ele>
        <time>2014-06-01T08:15:48.000Z</time>
      </trkpt>
      <trkpt lat="46.44365" lon="5.94175">
        <ele>1019</ele>
        <time>2014-06-01T08:15:49.000Z</time>
      </trkpt>
      <trkpt lat="46.44366" lon="5.94183">
        <ele>1019.5999755859</ele>
        <time>2014-06-01T08:15:52.000Z</time>
      </trkpt>
      <trkpt lat="46.44367" lon="5.94195">
        <ele>1020.4000244141</ele>
        <time>2014-06-01T08:15:56.000Z</time>
      </trkpt>
      <trkpt lat="46.44369" lon="5.94201">
        <ele>1020.5999755859</ele>
        <time>2014-06-01T08:15:58.000Z</time>
      </trkpt>
      <trkpt lat="46.44381" lon="5.94211">
        <ele>1020.799987793</ele>
        <time>2014-06-01T08:16:02.000Z</time>
      </trkpt>
      <trkpt lat="46.44388" lon="5.94232">
        <ele>1021.799987793</ele>
        <time>2014-06-01T08:16:07.000Z</time>
      </trkpt>
      <trkpt lat="46.44393" lon="5.94243">
        <ele>1022.200012207</ele>
        <time>2014-06-01T08:16:11.000Z</time>
      </trkpt>
      <trkpt lat="46.44397" lon="5.9425">
        <ele>1022.5999755859</ele>
        <time>2014-06-01T08:16:14.000Z</time>
      </trkpt>
      <trkpt lat="46.44404" lon="5.94263">
        <ele>1023.4000244141</ele>
        <time>2014-06-01T08:16:19.000Z</time>
      </trkpt>
      <trkpt lat="46.44411" lon="5.94274">
        <ele>1024.1999511719</ele>
        <time>2014-06-01T08:16:23.000Z</time>
      </trkpt>
      <trkpt lat="46.44411" lon="5.94288">
        <ele>1025.1999511719</ele>
        <time>2014-06-01T08:16:28.000Z</time>
      </trkpt>
      <trkpt lat="46.44405" lon="5.94302">
        <ele>1025.8000488281</ele>
        <time>2014-06-01T08:16:34.000Z</time>
      </trkpt>
      <trkpt lat="46.44402" lon="5.94305">
        <ele>1026</ele>
        <time>2014-06-01T08:16:36.000Z</time>
      </trkpt>
      <trkpt lat="46.44388" lon="5.94309">
        <ele>1026</ele>
        <time>2014-06-01T08:16:43.000Z</time>
      </trkpt>
      <trkpt lat="46.44382" lon="5.9431">
        <ele>1025.8000488281</ele>
        <time>2014-06-01T08:16:48.000Z</time>
      </trkpt>
      <trkpt lat="46.44381" lon="5.9431">
        <ele>1025.8000488281</ele>
        <time>2014-06-01T08:16:49.000Z</time>
      </trkpt>
      <trkpt lat="46.44372" lon="5.9432">
        <ele>1026.1999511719</ele>
        <time>2014-06-01T08:16:54.000Z</time>
      </trkpt>
      <trkpt lat="46.44359" lon="5.94325">
        <ele>1026.4000244141</ele>
        <time>2014-06-01T08:16:59.000Z</time>
      </trkpt>
      <trkpt lat="46.4435" lon="5.94336">
        <ele>1026.8000488281</ele>
        <time>2014-06-01T08:17:03.000Z</time>
      </trkpt>
      <trkpt lat="46.44339" lon="5.94357">
        <ele>1027.5999755859</ele>
        <time>2014-06-01T08:17:08.000Z</time>
      </trkpt>
      <trkpt lat="46.44329" lon="5.94372">
        <ele>1028.1999511719</ele>
        <time>2014-06-01T08:17:13.000Z</time>
      </trkpt>
      <trkpt lat="46.44324" lon="5.94377">
        <ele>1028.4000244141</ele>
        <time>2014-06-01T08:17:15.000Z</time>
      </trkpt>
      <trkpt lat="46.44315" lon="5.94385">
        <ele>1028.8000488281</ele>
        <time>2014-06-01T08:17:20.000Z</time>
      </trkpt>
      <trkpt lat="46.44309" lon="5.94393">
        <ele>1029.4000244141</ele>
        <time>2014-06-01T08:17:24.000Z</time>
      </trkpt>
      <trkpt lat="46.44306" lon="5.94397">
        <ele>1030</ele>
        <time>2014-06-01T08:17:26.000Z</time>
      </trkpt>
      <trkpt lat="46.44292" lon="5.9441">
        <ele>1031.4000244141</ele>
        <time>2014-06-01T08:17:31.000Z</time>
      </trkpt>
      <trkpt lat="46.44286" lon="5.94421">
        <ele>1032.5999755859</ele>
        <time>2014-06-01T08:17:36.000Z</time>
      </trkpt>
      <trkpt lat="46.44277" lon="5.94429">
        <ele>1033.5999755859</ele>
        <time>2014-06-01T08:17:41.000Z</time>
      </trkpt>
      <trkpt lat="46.44274" lon="5.94431">
        <ele>1033.8000488281</ele>
        <time>2014-06-01T08:17:43.000Z</time>
      </trkpt>
      <trkpt lat="46.44269" lon="5.94436">
        <ele>1035</ele>
        <time>2014-06-01T08:17:48.000Z</time>
      </trkpt>
      <trkpt lat="46.44264" lon="5.94438">
        <ele>1035.8000488281</ele>
        <time>2014-06-01T08:17:53.000Z</time>
      </trkpt>
      <trkpt lat="46.44262" lon="5.94438">
        <ele>1036</ele>
        <time>2014-06-01T08:17:56.000Z</time>
      </trkpt>
      <trkpt lat="46.44258" lon="5.94442">
        <ele>1037</ele>
        <time>2014-06-01T08:18:01.000Z</time>
      </trkpt>
      <trkpt lat="46.44254" lon="5.9445">
        <ele>1038.4000244141</ele>
        <time>2014-06-01T08:18:04.000Z</time>
      </trkpt>
      <trkpt lat="46.4425" lon="5.94458">
        <ele>1040</ele>
        <time>2014-06-01T08:18:09.000Z</time>
      </trkpt>
      <trkpt lat="46.4425" lon="5.9446">
        <ele>1040.1999511719</ele>
        <time>2014-06-01T08:18:10.000Z</time>
      </trkpt>
      <trkpt lat="46.4425" lon="5.94465">
        <ele>1041</ele>
        <time>2014-06-01T08:18:13.000Z</time>
      </trkpt>
      <trkpt lat="46.44246" lon="5.94472">
        <ele>1042.4000244141</ele>
        <time>2014-06-01T08:18:19.000Z</time>
      </trkpt>
      <trkpt lat="46.44246" lon="5.94472">
        <ele>1042.4000244141</ele>
        <time>2014-06-01T08:18:20.000Z</time>
      </trkpt>
      <trkpt lat="46.44243" lon="5.94477">
        <ele>1043.1999511719</ele>
        <time>2014-06-01T08:18:24.000Z</time>
      </trkpt>
      <trkpt lat="46.44241" lon="5.94485">
        <ele>1044.4000244141</ele>
        <time>2014-06-01T08:18:30.000Z</time>
      </trkpt>
      <trkpt lat="46.44237" lon="5.94492">
        <ele>1045.5999755859</ele>
        <time>2014-06-01T08:18:37.000Z</time>
      </trkpt>
      <trkpt lat="46.44233" lon="5.94498">
        <ele>1046.5999755859</ele>
        <time>2014-06-01T08:18:44.000Z</time>
      </trkpt>
      <trkpt lat="46.4423" lon="5.94505">
        <ele>1047.4000244141</ele>
        <time>2014-06-01T08:18:49.000Z</time>
      </trkpt>
      <trkpt lat="46.44228" lon="5.94511">
        <ele>1048.1999511719</ele>
        <time>2014-06-01T08:18:55.000Z</time>
      </trkpt>
      <trkpt lat="46.44225" lon="5.94514">
        <ele>1048.4000244141</ele>
        <time>2014-06-01T08:19:00.000Z</time>
      </trkpt>
      <trkpt lat="46.44223" lon="5.94517">
        <ele>1048.8000488281</ele>
        <time>2014-06-01T08:19:06.000Z</time>
      </trkpt>
      <trkpt lat="46.44217" lon="5.94522">
        <ele>1049.5999755859</ele>
        <time>2014-06-01T08:19:10.000Z</time>
      </trkpt>
      <trkpt lat="46.44212" lon="5.94526">
        <ele>1050.1999511719</ele>
        <time>2014-06-01T08:19:13.000Z</time>
      </trkpt>
      <trkpt lat="46.44211" lon="5.94536">
        <ele>1051.1999511719</ele>
        <time>2014-06-01T08:19:18.000Z</time>
      </trkpt>
      <trkpt lat="46.44199" lon="5.94557">
        <ele>1052.1999511719</ele>
        <time>2014-06-01T08:19:24.000Z</time>
      </trkpt>
      <trkpt lat="46.44199" lon="5.94574">
        <ele>1052.8000488281</ele>
        <time>2014-06-01T08:19:29.000Z</time>
      </trkpt>
      <trkpt lat="46.44195" lon="5.94583">
        <ele>1053</ele>
        <time>2014-06-01T08:19:32.000Z</time>
      </trkpt>
      <trkpt lat="46.44193" lon="5.9459">
        <ele>1053.1999511719</ele>
        <time>2014-06-01T08:19:34.000Z</time>
      </trkpt>
      <trkpt lat="46.44189" lon="5.94602">
        <ele>1053.5999755859</ele>
        <time>2014-06-01T08:19:40.000Z</time>
      </trkpt>
      <trkpt lat="46.44186" lon="5.94604">
        <ele>1053.5999755859</ele>
        <time>2014-06-01T08:19:42.000Z</time>
      </trkpt>
      <trkpt lat="46.44174" lon="5.9462">
        <ele>1054.4000244141</ele>
        <time>2014-06-01T08:19:47.000Z</time>
      </trkpt>
      <trkpt lat="46.44166" lon="5.9463">
        <ele>1054.8000488281</ele>
        <time>2014-06-01T08:19:50.000Z</time>
      </trkpt>
      <trkpt lat="46.44154" lon="5.94645">
        <ele>1055</ele>
        <time>2014-06-01T08:19:55.000Z</time>
      </trkpt>
      <trkpt lat="46.44151" lon="5.94652">
        <ele>1055.4000244141</ele>
        <time>2014-06-01T08:20:02.000Z</time>
      </trkpt>
      <trkpt lat="46.4415" lon="5.94653">
        <ele>1055.4000244141</ele>
        <time>2014-06-01T08:20:03.000Z</time>
      </trkpt>
      <trkpt lat="46.44139" lon="5.94663">
        <ele>1055.1999511719</ele>
        <time>2014-06-01T08:20:09.000Z</time>
      </trkpt>
      <trkpt lat="46.44133" lon="5.9467">
        <ele>1055</ele>
        <time>2014-06-01T08:20:13.000Z</time>
      </trkpt>
      <trkpt lat="46.44129" lon="5.94677">
        <ele>1055.1999511719</ele>
        <time>2014-06-01T08:20:17.000Z</time>
      </trkpt>
      <trkpt lat="46.44128" lon="5.94681">
        <ele>1055.1999511719</ele>
        <time>2014-06-01T08:20:19.000Z</time>
      </trkpt>
      <trkpt lat="46.44126" lon="5.94682">
        <ele>1055.1999511719</ele>
        <time>2014-06-01T08:20:21.000Z</time>
      </trkpt>
      <trkpt lat="46.4412" lon="5.94686">
        <ele>1055</ele>
        <time>2014-06-01T08:20:27.000Z</time>
      </trkpt>
      <trkpt lat="46.44118" lon="5.94687">
        <ele>1054.8000488281</ele>
        <time>2014-06-01T08:20:29.000Z</time>
      </trkpt>
      <trkpt lat="46.44116" lon="5.94687">
        <ele>1054.5999755859</ele>
        <time>2014-06-01T08:20:32.000Z</time>
      </trkpt>
      <trkpt lat="46.44112" lon="5.94691">
        <ele>1054.8000488281</ele>
        <time>2014-06-01T08:20:37.000Z</time>
      </trkpt>
      <trkpt lat="46.44108" lon="5.94696">
        <ele>1055.1999511719</ele>
        <time>2014-06-01T08:20:42.000Z</time>
      </trkpt>
      <trkpt lat="46.44101" lon="5.94704">
        <ele>1055.8000488281</ele>
        <time>2014-06-01T08:20:46.000Z</time>
      </trkpt>
      <trkpt lat="46.44094" lon="5.94715">
        <ele>1056.5999755859</ele>
        <time>2014-06-01T08:20:51.000Z</time>
      </trkpt>
      <trkpt lat="46.44087" lon="5.94727">
        <ele>1057.4000244141</ele>
        <time>2014-06-01T08:20:56.000Z</time>
      </trkpt>
      <trkpt lat="46.44082" lon="5.94738">
        <ele>1058</ele>
        <time>2014-06-01T08:21:01.000Z</time>
      </trkpt>
      <trkpt lat="46.4408" lon="5.9474">
        <ele>1058.1999511719</ele>
        <time>2014-06-01T08:21:02.000Z</time>
      </trkpt>
      <trkpt lat="46.44075" lon="5.94761">
        <ele>1059.5999755859</ele>
        <time>2014-06-01T08:21:08.000Z</time>
      </trkpt>
      <trkpt lat="46.44076" lon="5.94774">
        <ele>1060.5999755859</ele>
        <time>2014-06-01T08:21:13.000Z</time>
      </trkpt>
      <trkpt lat="46.44078" lon="5.94778">
        <ele>1060.8000488281</ele>
        <time>2014-06-01T08:21:16.000Z</time>
      </trkpt>
      <trkpt lat="46.44078" lon="5.9478">
        <ele>1061</ele>
        <time>2014-06-01T08:21:18.000Z</time>
      </trkpt>
      <trkpt lat="46.44082" lon="5.9479">
        <ele>1061.8000488281</ele>
        <time>2014-06-01T08:21:25.000Z</time>
      </trkpt>
      <trkpt lat="46.44088" lon="5.94795">
        <ele>1062.1999511719</ele>
        <time>2014-06-01T08:21:30.000Z</time>
      </trkpt>
      <trkpt lat="46.44089" lon="5.94801">
        <ele>1062.5999755859</ele>
        <time>2014-06-01T08:21:35.000Z</time>
      </trkpt>
      <trkpt lat="46.44089" lon="5.94806">
        <ele>1062.8000488281</ele>
        <time>2014-06-01T08:21:40.000Z</time>
      </trkpt>
      <trkpt lat="46.44087" lon="5.94808">
        <ele>1063</ele>
        <time>2014-06-01T08:21:49.000Z</time>
      </trkpt>
      <trkpt lat="46.44086" lon="5.94809">
        <ele>1063</ele>
        <time>2014-06-01T08:21:50.000Z</time>
      </trkpt>
      <trkpt lat="46.44079" lon="5.94809">
        <ele>1063</ele>
        <time>2014-06-01T08:21:55.000Z</time>
      </trkpt>
      <trkpt lat="46.44072" lon="5.94805">
        <ele>1062.8000488281</ele>
        <time>2014-06-01T08:21:59.000Z</time>
      </trkpt>
      <trkpt lat="46.44068" lon="5.94807">
        <ele>1063</ele>
        <time>2014-06-01T08:22:01.000Z</time>
      </trkpt>
      <trkpt lat="46.44064" lon="5.94814">
        <ele>1063.4000244141</ele>
        <time>2014-06-01T08:22:06.000Z</time>
      </trkpt>
      <trkpt lat="46.44057" lon="5.94823">
        <ele>1063.5999755859</ele>
        <time>2014-06-01T08:22:11.000Z</time>
      </trkpt>
      <trkpt lat="46.44052" lon="5.94831">
        <ele>1063.8000488281</ele>
        <time>2014-06-01T08:22:16.000Z</time>
      </trkpt>
      <trkpt lat="46.4405" lon="5.94838">
        <ele>1064</ele>
        <time>2014-06-01T08:22:19.000Z</time>
      </trkpt>
      <trkpt lat="46.4405" lon="5.94851">
        <ele>1064.8000488281</ele>
        <time>2014-06-01T08:22:27.000Z</time>
      </trkpt>
      <trkpt lat="46.4405" lon="5.94855">
        <ele>1065.1999511719</ele>
        <time>2014-06-01T08:22:31.000Z</time>
      </trkpt>
      <trkpt lat="46.44047" lon="5.94863">
        <ele>1065.4000244141</ele>
        <time>2014-06-01T08:22:35.000Z</time>
      </trkpt>
      <trkpt lat="46.44043" lon="5.94866">
        <ele>1065.4000244141</ele>
        <time>2014-06-01T08:22:43.000Z</time>
      </trkpt>
      <trkpt lat="46.44035" lon="5.94865">
        <ele>1065</ele>
        <time>2014-06-01T08:22:48.000Z</time>
      </trkpt>
      <trkpt lat="46.44033" lon="5.94865">
        <ele>1065</ele>
        <time>2014-06-01T08:22:53.000Z</time>
      </trkpt>
      <trkpt lat="46.44032" lon="5.94869">
        <ele>1065.4000244141</ele>
        <time>2014-06-01T08:22:58.000Z</time>
      </trkpt>
      <trkpt lat="46.44025" lon="5.94878">
        <ele>1066</ele>
        <time>2014-06-01T08:23:03.000Z</time>
      </trkpt>
      <trkpt lat="46.44013" lon="5.94884">
        <ele>1066.1999511719</ele>
        <time>2014-06-01T08:23:09.000Z</time>
      </trkpt>
      <trkpt lat="46.4401" lon="5.94885">
        <ele>1066.1999511719</ele>
        <time>2014-06-01T08:23:12.000Z</time>
      </trkpt>
      <trkpt lat="46.44001" lon="5.9488">
        <ele>1065.5999755859</ele>
        <time>2014-06-01T08:23:17.000Z</time>
      </trkpt>
      <trkpt lat="46.43995" lon="5.94892">
        <ele>1066.4000244141</ele>
        <time>2014-06-01T08:23:21.000Z</time>
      </trkpt>
      <trkpt lat="46.43991" lon="5.94906">
        <ele>1067.5999755859</ele>
        <time>2014-06-01T08:23:25.000Z</time>
      </trkpt>
      <trkpt lat="46.43987" lon="5.94913">
        <ele>1068.4000244141</ele>
        <time>2014-06-01T08:23:29.000Z</time>
      </trkpt>
      <trkpt lat="46.43985" lon="5.94922">
        <ele>1069.4000244141</ele>
        <time>2014-06-01T08:23:35.000Z</time>
      </trkpt>
      <trkpt lat="46.43988" lon="5.94923">
        <ele>1069.4000244141</ele>
        <time>2014-06-01T08:23:43.000Z</time>
      </trkpt>
      <trkpt lat="46.43988" lon="5.94918">
        <ele>1069</ele>
        <time>2014-06-01T08:23:48.000Z</time>
      </trkpt>
      <trkpt lat="46.4399" lon="5.94913">
        <ele>1068.4000244141</ele>
        <time>2014-06-01T08:23:58.000Z</time>
      </trkpt>
      <trkpt lat="46.43992" lon="5.94913">
        <ele>1068.4000244141</ele>
        <time>2014-06-01T08:24:02.000Z</time>
      </trkpt>
      <trkpt lat="46.43999" lon="5.94906">
        <ele>1067.5999755859</ele>
        <time>2014-06-01T08:24:06.000Z</time>
      </trkpt>
      <trkpt lat="46.44005" lon="5.94889">
        <ele>1066.4000244141</ele>
        <time>2014-06-01T08:24:11.000Z</time>
      </trkpt>
      <trkpt lat="46.4402" lon="5.94877">
        <ele>1065.8000488281</ele>
        <time>2014-06-01T08:24:16.000Z</time>
      </trkpt>
      <trkpt lat="46.44029" lon="5.94875">
        <ele>1065.8000488281</ele>
        <time>2014-06-01T08:24:20.000Z</time>
      </trkpt>
      <trkpt lat="46.44039" lon="5.9487">
        <ele>1065.5999755859</ele>
        <time>2014-06-01T08:24:25.000Z</time>
      </trkpt>
      <trkpt lat="46.44048" lon="5.9486">
        <ele>1065.4000244141</ele>
        <time>2014-06-01T08:24:30.000Z</time>
      </trkpt>
      <trkpt lat="46.44055" lon="5.94859">
        <ele>1065.5999755859</ele>
        <time>2014-06-01T08:24:34.000Z</time>
      </trkpt>
      <trkpt lat="46.44057" lon="5.94859">
        <ele>1065.5999755859</ele>
        <time>2014-06-01T08:24:36.000Z</time>
      </trkpt>
      <trkpt lat="46.44062" lon="5.94854">
        <ele>1065.5999755859</ele>
        <time>2014-06-01T08:24:42.000Z</time>
      </trkpt>
      <trkpt lat="46.44068" lon="5.94854">
        <ele>1065.8000488281</ele>
        <time>2014-06-01T08:24:47.000Z</time>
      </trkpt>
      <trkpt lat="46.44072" lon="5.9485">
        <ele>1065.5999755859</ele>
        <time>2014-06-01T08:24:53.000Z</time>
      </trkpt>
      <trkpt lat="46.44075" lon="5.94845">
        <ele>1065.1999511719</ele>
        <time>2014-06-01T08:24:57.000Z</time>
      </trkpt>
      <trkpt lat="46.44082" lon="5.94839">
        <ele>1064.8000488281</ele>
        <time>2014-06-01T08:25:03.000Z</time>
      </trkpt>
      <trkpt lat="46.44083" lon="5.94833">
        <ele>1064.5999755859</ele>
        <time>2014-06-01T08:25:06.000Z</time>
      </trkpt>
      <trkpt lat="46.44087" lon="5.94828">
        <ele>1064.1999511719</ele>
        <time>2014-06-01T08:25:10.000Z</time>
      </trkpt>
      <trkpt lat="46.44092" lon="5.94815">
        <ele>1063.4000244141</ele>
        <time>2014-06-01T08:25:15.000Z</time>
      </trkpt>
      <trkpt lat="46.44093" lon="5.94813">
        <ele>1063.4000244141</ele>
        <time>2014-06-01T08:25:16.000Z</time>
      </trkpt>
      <trkpt lat="46.44095" lon="5.94811">
        <ele>1063.1999511719</ele>
        <time>2014-06-01T08:25:19.000Z</time>
      </trkpt>
      <trkpt lat="46.44101" lon="5.94811">
        <ele>1063.1999511719</ele>
        <time>2014-06-01T08:25:23.000Z</time>
      </trkpt>
      <trkpt lat="46.44106" lon="5.94815">
        <ele>1063.4000244141</ele>
        <time>2014-06-01T08:25:27.000Z</time>
      </trkpt>
      <trkpt lat="46.44111" lon="5.94814">
        <ele>1063.4000244141</ele>
        <time>2014-06-01T08:25:31.000Z</time>
      </trkpt>
      <trkpt lat="46.44112" lon="5.94813">
        <ele>1063.4000244141</ele>
        <time>2014-06-01T08:25:36.000Z</time>
      </trkpt>
      <trkpt lat="46.44117" lon="5.94807">
        <ele>1063</ele>
        <time>2014-06-01T08:25:42.000Z</time>
      </trkpt>
      <trkpt lat="46.4412" lon="5.94805">
        <ele>1062.8000488281</ele>
        <time>2014-06-01T08:25:50.000Z</time>
      </trkpt>
      <trkpt lat="46.4412" lon="5.94802">
        <ele>1062.5999755859</ele>
        <time>2014-06-01T08:25:53.000Z</time>
      </trkpt>
      <trkpt lat="46.44119" lon="5.94785">
        <ele>1061.4000244141</ele>
        <time>2014-06-01T08:25:58.000Z</time>
      </trkpt>
      <trkpt lat="46.44119" lon="5.94782">
        <ele>1061.1999511719</ele>
        <time>2014-06-01T08:26:00.000Z</time>
      </trkpt>
      <trkpt lat="46.44125" lon="5.94776">
        <ele>1060.8000488281</ele>
        <time>2014-06-01T08:26:05.000Z</time>
      </trkpt>
      <trkpt lat="46.44134" lon="5.94778">
        <ele>1061</ele>
        <time>2014-06-01T08:26:09.000Z</time>
      </trkpt>
      <trkpt lat="46.44151" lon="5.94775">
        <ele>1060.8000488281</ele>
        <time>2014-06-01T08:26:15.000Z</time>
      </trkpt>
      <trkpt lat="46.44157" lon="5.94776">
        <ele>1060.5999755859</ele>
        <time>2014-06-01T08:26:19.000Z</time>
      </trkpt>
      <trkpt lat="46.44155" lon="5.94781">
        <ele>1061</ele>
        <time>2014-06-01T08:26:24.000Z</time>
      </trkpt>
      <trkpt lat="46.44154" lon="5.94789">
        <ele>1061.5999755859</ele>
        <time>2014-06-01T08:26:29.000Z</time>
      </trkpt>
      <trkpt lat="46.44153" lon="5.94791">
        <ele>1061.8000488281</ele>
        <time>2014-06-01T08:26:30.000Z</time>
      </trkpt>
      <trkpt lat="46.44152" lon="5.94798">
        <ele>1062.1999511719</ele>
        <time>2014-06-01T08:26:34.000Z</time>
      </trkpt>
      <trkpt lat="46.44153" lon="5.948">
        <ele>1062.4000244141</ele>
        <time>2014-06-01T08:26:36.000Z</time>
      </trkpt>
      <trkpt lat="46.44145" lon="5.94801">
        <ele>1062.5999755859</ele>
        <time>2014-06-01T08:26:41.000Z</time>
      </trkpt>
      <trkpt lat="46.44138" lon="5.94802">
        <ele>1062.5999755859</ele>
        <time>2014-06-01T08:26:44.000Z</time>
      </trkpt>
      <trkpt lat="46.44133" lon="5.9481">
        <ele>1063.1999511719</ele>
        <time>2014-06-01T08:26:49.000Z</time>
      </trkpt>
      <trkpt lat="46.44126" lon="5.94817">
        <ele>1063.5999755859</ele>
        <time>2014-06-01T08:26:54.000Z</time>
      </trkpt>
      <trkpt lat="46.4412" lon="5.94822">
        <ele>1063.8000488281</ele>
        <time>2014-06-01T08:26:58.000Z</time>
      </trkpt>
      <trkpt lat="46.44114" lon="5.94821">
        <ele>1063.8000488281</ele>
        <time>2014-06-01T08:27:03.000Z</time>
      </trkpt>
      <trkpt lat="46.44112" lon="5.94821">
        <ele>1063.8000488281</ele>
        <time>2014-06-01T08:27:08.000Z</time>
      </trkpt>
      <trkpt lat="46.44113" lon="5.94825">
        <ele>1064</ele>
        <time>2014-06-01T08:27:12.000Z</time>
      </trkpt>
      <trkpt lat="46.44115" lon="5.94831">
        <ele>1064.4000244141</ele>
        <time>2014-06-01T08:27:15.000Z</time>
      </trkpt>
      <trkpt lat="46.44116" lon="5.94839">
        <ele>1064.8000488281</ele>
        <time>2014-06-01T08:27:20.000Z</time>
      </trkpt>
      <trkpt lat="46.44117" lon="5.94842">
        <ele>1065</ele>
        <time>2014-06-01T08:27:22.000Z</time>
      </trkpt>
      <trkpt lat="46.44116" lon="5.94842">
        <ele>1065</ele>
        <time>2014-06-01T08:27:27.000Z</time>
      </trkpt>
      <trkpt lat="46.44116" lon="5.9484">
        <ele>1065</ele>
        <time>2014-06-01T08:27:28.000Z</time>
      </trkpt>
      <trkpt lat="46.44114" lon="5.94837">
        <ele>1064.8000488281</ele>
        <time>2014-06-01T08:27:30.000Z</time>
      </trkpt>
      <trkpt lat="46.44112" lon="5.94828">
        <ele>1064.1999511719</ele>
        <time>2014-06-01T08:27:33.000Z</time>
      </trkpt>
      <trkpt lat="46.44105" lon="5.94819">
        <ele>1063.5999755859</ele>
        <time>2014-06-01T08:27:38.000Z</time>
      </trkpt>
      <trkpt lat="46.44098" lon="5.94812">
        <ele>1063.1999511719</ele>
        <time>2014-06-01T08:27:42.000Z</time>
      </trkpt>
      <trkpt lat="46.44097" lon="5.94811">
        <ele>1063.1999511719</ele>
        <time>2014-06-01T08:27:43.000Z</time>
      </trkpt>
      <trkpt lat="46.44092" lon="5.94798">
        <ele>1062.4000244141</ele>
        <time>2014-06-01T08:27:48.000Z</time>
      </trkpt>
      <trkpt lat="46.44087" lon="5.94789">
        <ele>1061.5999755859</ele>
        <time>2014-06-01T08:27:51.000Z</time>
      </trkpt>
      <trkpt lat="46.44084" lon="5.94785">
        <ele>1061.4000244141</ele>
        <time>2014-06-01T08:27:53.000Z</time>
      </trkpt>
      <trkpt lat="46.44086" lon="5.94783">
        <ele>1061.1999511719</ele>
        <time>2014-06-01T08:27:59.000Z</time>
      </trkpt>
      <trkpt lat="46.4409" lon="5.94784">
        <ele>1061.1999511719</ele>
        <time>2014-06-01T08:28:07.000Z</time>
      </trkpt>
      <trkpt lat="46.4408" lon="5.94783">
        <ele>1061.1999511719</ele>
        <time>2014-06-01T08:28:15.000Z</time>
      </trkpt>
      <trkpt lat="46.44075" lon="5.94784">
        <ele>1061.1999511719</ele>
        <time>2014-06-01T08:28:18.000Z</time>
      </trkpt>
      <trkpt lat="46.44072" lon="5.94783">
        <ele>1061.1999511719</ele>
        <time>2014-06-01T08:28:20.000Z</time>
      </trkpt>
      <trkpt lat="46.44072" lon="5.9477">
        <ele>1060.4000244141</ele>
        <time>2014-06-01T08:28:26.000Z</time>
      </trkpt>
      <trkpt lat="46.44074" lon="5.9476">
        <ele>1059.5999755859</ele>
        <time>2014-06-01T08:28:29.000Z</time>
      </trkpt>
      <trkpt lat="46.44082" lon="5.94742">
        <ele>1058.1999511719</ele>
        <time>2014-06-01T08:28:34.000Z</time>
      </trkpt>
      <trkpt lat="46.44089" lon="5.9473">
        <ele>1057.5999755859</ele>
        <time>2014-06-01T08:28:39.000Z</time>
      </trkpt>
      <trkpt lat="46.44102" lon="5.94725">
        <ele>1057.4000244141</ele>
        <time>2014-06-01T08:28:44.000Z</time>
      </trkpt>
      <trkpt lat="46.44107" lon="5.94725">
        <ele>1057.5999755859</ele>
        <time>2014-06-01T08:28:46.000Z</time>
      </trkpt>
      <trkpt lat="46.44114" lon="5.94736">
        <ele>1058.1999511719</ele>
        <time>2014-06-01T08:28:51.000Z</time>
      </trkpt>
      <trkpt lat="46.44115" lon="5.94739">
        <ele>1058.4000244141</ele>
        <time>2014-06-01T08:28:52.000Z</time>
      </trkpt>
      <trkpt lat="46.44115" lon="5.94753">
        <ele>1059.4000244141</ele>
        <time>2014-06-01T08:28:57.000Z</time>
      </trkpt>
      <trkpt lat="46.44111" lon="5.94753">
        <ele>1059.1999511719</ele>
        <time>2014-06-01T08:29:00.000Z</time>
      </trkpt>
      <trkpt lat="46.44107" lon="5.94752">
        <ele>1059.1999511719</ele>
        <time>2014-06-01T08:29:06.000Z</time>
      </trkpt>
      <trkpt lat="46.44101" lon="5.94748">
        <ele>1058.8000488281</ele>
        <time>2014-06-01T08:29:13.000Z</time>
      </trkpt>
      <trkpt lat="46.441" lon="5.94752">
        <ele>1059</ele>
        <time>2014-06-01T08:29:17.000Z</time>
      </trkpt>
      <trkpt lat="46.44097" lon="5.94753">
        <ele>1059.1999511719</ele>
        <time>2014-06-01T08:29:19.000Z</time>
      </trkpt>
      <trkpt lat="46.44085" lon="5.94755">
        <ele>1059.1999511719</ele>
        <time>2014-06-01T08:29:24.000Z</time>
      </trkpt>
      <trkpt lat="46.44073" lon="5.94763">
        <ele>1059.8000488281</ele>
        <time>2014-06-01T08:29:28.000Z</time>
      </trkpt>
      <trkpt lat="46.44064" lon="5.94773">
        <ele>1060.4000244141</ele>
        <time>2014-06-01T08:29:32.000Z</time>
      </trkpt>
      <trkpt lat="46.44056" lon="5.94782">
        <ele>1060.5999755859</ele>
        <time>2014-06-01T08:29:37.000Z</time>
      </trkpt>
      <trkpt lat="46.44046" lon="5.94793">
        <ele>1060.8000488281</ele>
        <time>2014-06-01T08:29:41.000Z</time>
      </trkpt>
      <trkpt lat="46.44025" lon="5.94807">
        <ele>1061</ele>
        <time>2014-06-01T08:29:47.000Z</time>
      </trkpt>
      <trkpt lat="46.44019" lon="5.94808">
        <ele>1060.8000488281</ele>
        <time>2014-06-01T08:29:49.000Z</time>
      </trkpt>
      <trkpt lat="46.44009" lon="5.9481">
        <ele>1060.4000244141</ele>
        <time>2014-06-01T08:29:54.000Z</time>
      </trkpt>
      <trkpt lat="46.44002" lon="5.94813">
        <ele>1060.1999511719</ele>
        <time>2014-06-01T08:29:59.000Z</time>
      </trkpt>
      <trkpt lat="46.43994" lon="5.94816">
        <ele>1060</ele>
        <time>2014-06-01T08:30:04.000Z</time>
      </trkpt>
      <trkpt lat="46.43987" lon="5.94818">
        <ele>1060</ele>
        <time>2014-06-01T08:30:08.000Z</time>
      </trkpt>
      <trkpt lat="46.43983" lon="5.94822">
        <ele>1060.1999511719</ele>
        <time>2014-06-01T08:30:10.000Z</time>
      </trkpt>
      <trkpt lat="46.43978" lon="5.94828">
        <ele>1060.4000244141</ele>
        <time>2014-06-01T08:30:12.000Z</time>
      </trkpt>
      <trkpt lat="46.43968" lon="5.94832">
        <ele>1060.4000244141</ele>
        <time>2014-06-01T08:30:16.000Z</time>
      </trkpt>
      <trkpt lat="46.43955" lon="5.94838">
        <ele>1060.1999511719</ele>
        <time>2014-06-01T08:30:21.000Z</time>
      </trkpt>
      <trkpt lat="46.43938" lon="5.9484">
        <ele>1059.5999755859</ele>
        <time>2014-06-01T08:30:27.000Z</time>
      </trkpt>
      <trkpt lat="46.43927" lon="5.94841">
        <ele>1059.1999511719</ele>
        <time>2014-06-01T08:30:31.000Z</time>
      </trkpt>
      <trkpt lat="46.43913" lon="5.94851">
        <ele>1059.5999755859</ele>
        <time>2014-06-01T08:30:36.000Z</time>
      </trkpt>
      <trkpt lat="46.43902" lon="5.94861">
        <ele>1060.1999511719</ele>
        <time>2014-06-01T08:30:41.000Z</time>
      </trkpt>
      <trkpt lat="46.43891" lon="5.94871">
        <ele>1061.4000244141</ele>
        <time>2014-06-01T08:30:46.000Z</time>
      </trkpt>
      <trkpt lat="46.43879" lon="5.94885">
        <ele>1062.5999755859</ele>
        <time>2014-06-01T08:30:52.000Z</time>
      </trkpt>
      <trkpt lat="46.43873" lon="5.94887">
        <ele>1062.8000488281</ele>
        <time>2014-06-01T08:30:55.000Z</time>
      </trkpt>
      <trkpt lat="46.43863" lon="5.94896">
        <ele>1063.5999755859</ele>
        <time>2014-06-01T08:31:01.000Z</time>
      </trkpt>
      <trkpt lat="46.43857" lon="5.94894">
        <ele>1063.4000244141</ele>
        <time>2014-06-01T08:31:05.000Z</time>
      </trkpt>
      <trkpt lat="46.43853" lon="5.94892">
        <ele>1063.1999511719</ele>
        <time>2014-06-01T08:31:08.000Z</time>
      </trkpt>
      <trkpt lat="46.43852" lon="5.9489">
        <ele>1063</ele>
        <time>2014-06-01T08:31:10.000Z</time>
      </trkpt>
      <trkpt lat="46.43851" lon="5.94885">
        <ele>1062.5999755859</ele>
        <time>2014-06-01T08:31:13.000Z</time>
      </trkpt>
      <trkpt lat="46.43846" lon="5.94883">
        <ele>1062.5999755859</ele>
        <time>2014-06-01T08:31:18.000Z</time>
      </trkpt>
      <trkpt lat="46.43843" lon="5.94882">
        <ele>1062.4000244141</ele>
        <time>2014-06-01T08:31:21.000Z</time>
      </trkpt>
      <trkpt lat="46.43841" lon="5.94878">
        <ele>1062.1999511719</ele>
        <time>2014-06-01T08:31:24.000Z</time>
      </trkpt>
      <trkpt lat="46.43838" lon="5.94874">
        <ele>1062</ele>
        <time>2014-06-01T08:31:29.000Z</time>
      </trkpt>
      <trkpt lat="46.43833" lon="5.94868">
        <ele>1061.5999755859</ele>
        <time>2014-06-01T08:31:34.000Z</time>
      </trkpt>
      <trkpt lat="46.43832" lon="5.94867">
        <ele>1061.5999755859</ele>
        <time>2014-06-01T08:31:35.000Z</time>
      </trkpt>
      <trkpt lat="46.43828" lon="5.94863">
        <ele>1061.4000244141</ele>
        <time>2014-06-01T08:31:40.000Z</time>
      </trkpt>
      <trkpt lat="46.43824" lon="5.9486">
        <ele>1061.1999511719</ele>
        <time>2014-06-01T08:31:44.000Z</time>
      </trkpt>
      <trkpt lat="46.43818" lon="5.9486">
        <ele>1061.1999511719</ele>
        <time>2014-06-01T08:31:49.000Z</time>
      </trkpt>
      <trkpt lat="46.43818" lon="5.9486">
        <ele>1061.1999511719</ele>
        <time>2014-06-01T08:31:50.000Z</time>
      </trkpt>
      <trkpt lat="46.43808" lon="5.94858">
        <ele>1061.1999511719</ele>
        <time>2014-06-01T08:31:55.000Z</time>
      </trkpt>
      <trkpt lat="46.43795" lon="5.94852">
        <ele>1061.1999511719</ele>
        <time>2014-06-01T08:32:00.000Z</time>
      </trkpt>
      <trkpt lat="46.43793" lon="5.94851">
        <ele>1061.1999511719</ele>
        <time>2014-06-01T08:32:01.000Z</time>
      </trkpt>
      <trkpt lat="46.43787" lon="5.94848">
        <ele>1061.1999511719</ele>
        <time>2014-06-01T08:32:05.000Z</time>
      </trkpt>
      <trkpt lat="46.43782" lon="5.94849">
        <ele>1061.4000244141</ele>
        <time>2014-06-01T08:32:10.000Z</time>
      </trkpt>
      <trkpt lat="46.43775" lon="5.94862">
        <ele>1062.4000244141</ele>
        <time>2014-06-01T08:32:15.000Z</time>
      </trkpt>
      <trkpt lat="46.43773" lon="5.94865">
        <ele>1062.5999755859</ele>
        <time>2014-06-01T08:32:17.000Z</time>
      </trkpt>
      <trkpt lat="46.4377" lon="5.94869">
        <ele>1063</ele>
        <time>2014-06-01T08:32:20.000Z</time>
      </trkpt>
      <trkpt lat="46.43769" lon="5.94872">
        <ele>1063.1999511719</ele>
        <time>2014-06-01T08:32:22.000Z</time>
      </trkpt>
      <trkpt lat="46.43767" lon="5.94872">
        <ele>1063.4000244141</ele>
        <time>2014-06-01T08:32:25.000Z</time>
      </trkpt>
      <trkpt lat="46.43759" lon="5.94874">
        <ele>1063.8000488281</ele>
        <time>2014-06-01T08:32:30.000Z</time>
      </trkpt>
      <trkpt lat="46.43758" lon="5.9488">
        <ele>1064.1999511719</ele>
        <time>2014-06-01T08:32:35.000Z</time>
      </trkpt>
      <trkpt lat="46.43756" lon="5.94881">
        <ele>1064.4000244141</ele>
        <time>2014-06-01T08:32:42.000Z</time>
      </trkpt>
      <trkpt lat="46.43755" lon="5.94881">
        <ele>1064.4000244141</ele>
        <time>2014-06-01T08:32:45.000Z</time>
      </trkpt>
      <trkpt lat="46.43755" lon="5.94882">
        <ele>1064.5999755859</ele>
        <time>2014-06-01T08:32:51.000Z</time>
      </trkpt>
      <trkpt lat="46.43757" lon="5.94879">
        <ele>1064.1999511719</ele>
        <time>2014-06-01T08:32:59.000Z</time>
      </trkpt>
      <trkpt lat="46.4376" lon="5.94889">
        <ele>1064.8000488281</ele>
        <time>2014-06-01T08:33:05.000Z</time>
      </trkpt>
      <trkpt lat="46.43762" lon="5.94894">
        <ele>1065.1999511719</ele>
        <time>2014-06-01T08:33:07.000Z</time>
      </trkpt>
      <trkpt lat="46.43762" lon="5.94906">
        <ele>1066.5999755859</ele>
        <time>2014-06-01T08:33:13.000Z</time>
      </trkpt>
      <trkpt lat="46.43763" lon="5.94908">
        <ele>1066.8000488281</ele>
        <time>2014-06-01T08:33:20.000Z</time>
      </trkpt>
      <trkpt lat="46.43763" lon="5.94906">
        <ele>1066.5999755859</ele>
        <time>2014-06-01T08:33:21.000Z</time>
      </trkpt>
      <trkpt lat="46.43763" lon="5.94894">
        <ele>1065.1999511719</ele>
        <time>2014-06-01T08:33:25.000Z</time>
      </trkpt>
      <trkpt lat="46.43767" lon="5.94887">
        <ele>1064.4000244141</ele>
        <time>2014-06-01T08:33:29.000Z</time>
      </trkpt>
      <trkpt lat="46.43769" lon="5.94878">
        <ele>1063.8000488281</ele>
        <time>2014-06-01T08:33:41.000Z</time>
      </trkpt>
      <trkpt lat="46.43768" lon="5.94875">
        <ele>1063.5999755859</ele>
        <time>2014-06-01T08:33:59.000Z</time>
      </trkpt>
      <trkpt lat="46.43766" lon="5.94876">
        <ele>1063.8000488281</ele>
        <time>2014-06-01T08:34:06.000Z</time>
      </trkpt>
      <trkpt lat="46.43765" lon="5.94878">
        <ele>1063.8000488281</ele>
        <time>2014-06-01T08:34:09.000Z</time>
      </trkpt>
      <trkpt lat="46.43761" lon="5.94887">
        <ele>1064.8000488281</ele>
        <time>2014-06-01T08:34:14.000Z</time>
      </trkpt>
      <trkpt lat="46.43761" lon="5.94899">
        <ele>1065.8000488281</ele>
        <time>2014-06-01T08:34:31.000Z</time>
      </trkpt>
      <trkpt lat="46.43764" lon="5.94904">
        <ele>1066.4000244141</ele>
        <time>2014-06-01T08:34:35.000Z</time>
      </trkpt>
      <trkpt lat="46.43765" lon="5.94909">
        <ele>1066.8000488281</ele>
        <time>2014-06-01T08:34:41.000Z</time>
      </trkpt>
      <trkpt lat="46.43766" lon="5.94915">
        <ele>1067.4000244141</ele>
        <time>2014-06-01T08:34:48.000Z</time>
      </trkpt>
      <trkpt lat="46.43772" lon="5.9492">
        <ele>1067.8000488281</ele>
        <time>2014-06-01T08:34:52.000Z</time>
      </trkpt>
      <trkpt lat="46.43773" lon="5.94921">
        <ele>1067.8000488281</ele>
        <time>2014-06-01T08:34:56.000Z</time>
      </trkpt>
      <trkpt lat="46.4377" lon="5.94919">
        <ele>1067.8000488281</ele>
        <time>2014-06-01T08:35:13.000Z</time>
      </trkpt>
      <trkpt lat="46.43767" lon="5.94913">
        <ele>1067.1999511719</ele>
        <time>2014-06-01T08:35:20.000Z</time>
      </trkpt>
      <trkpt lat="46.43772" lon="5.94919">
        <ele>1067.5999755859</ele>
        <time>2014-06-01T08:35:24.000Z</time>
      </trkpt>
      <trkpt lat="46.43783" lon="5.9493">
        <ele>1068.4000244141</ele>
        <time>2014-06-01T08:35:28.000Z</time>
      </trkpt>
      <trkpt lat="46.43787" lon="5.94934">
        <ele>1068.5999755859</ele>
        <time>2014-06-01T08:35:32.000Z</time>
      </trkpt>
      <trkpt lat="46.43789" lon="5.94934">
        <ele>1068.5999755859</ele>
        <time>2014-06-01T08:35:40.000Z</time>
      </trkpt>
      <trkpt lat="46.43784" lon="5.94933">
        <ele>1068.5999755859</ele>
        <time>2014-06-01T08:35:47.000Z</time>
      </trkpt>
      <trkpt lat="46.4378" lon="5.94928">
        <ele>1068.4000244141</ele>
        <time>2014-06-01T08:35:51.000Z</time>
      </trkpt>
      <trkpt lat="46.43777" lon="5.94923">
        <ele>1067.8000488281</ele>
        <time>2014-06-01T08:35:53.000Z</time>
      </trkpt>
      <trkpt lat="46.43772" lon="5.94918">
        <ele>1067.5999755859</ele>
        <time>2014-06-01T08:35:56.000Z</time>
      </trkpt>
      <trkpt lat="46.43772" lon="5.94912">
        <ele>1066.8000488281</ele>
        <time>2014-06-01T08:35:59.000Z</time>
      </trkpt>
      <trkpt lat="46.43773" lon="5.94904">
        <ele>1066</ele>
        <time>2014-06-01T08:36:05.000Z</time>
      </trkpt>
      <trkpt lat="46.43773" lon="5.94894">
        <ele>1064.8000488281</ele>
        <time>2014-06-01T08:36:10.000Z</time>
      </trkpt>
      <trkpt lat="46.43776" lon="5.94879">
        <ele>1063.5999755859</ele>
        <time>2014-06-01T08:36:15.000Z</time>
      </trkpt>
      <trkpt lat="46.43775" lon="5.94863">
        <ele>1062.4000244141</ele>
        <time>2014-06-01T08:36:20.000Z</time>
      </trkpt>
      <trkpt lat="46.43774" lon="5.94855">
        <ele>1062</ele>
        <time>2014-06-01T08:36:23.000Z</time>
      </trkpt>
      <trkpt lat="46.43774" lon="5.94846">
        <ele>1061.4000244141</ele>
        <time>2014-06-01T08:36:29.000Z</time>
      </trkpt>
      <trkpt lat="46.43775" lon="5.94838">
        <ele>1060.8000488281</ele>
        <time>2014-06-01T08:36:34.000Z</time>
      </trkpt>
      <trkpt lat="46.43776" lon="5.94836">
        <ele>1060.5999755859</ele>
        <time>2014-06-01T08:36:36.000Z</time>
      </trkpt>
      <trkpt lat="46.43778" lon="5.94827">
        <ele>1060</ele>
        <time>2014-06-01T08:36:41.000Z</time>
      </trkpt>
      <trkpt lat="46.43776" lon="5.9482">
        <ele>1059.5999755859</ele>
        <time>2014-06-01T08:36:46.000Z</time>
      </trkpt>
      <trkpt lat="46.43774" lon="5.94816">
        <ele>1059.5999755859</ele>
        <time>2014-06-01T08:36:48.000Z</time>
      </trkpt>
      <trkpt lat="46.43773" lon="5.94807">
        <ele>1059</ele>
        <time>2014-06-01T08:36:52.000Z</time>
      </trkpt>
      <trkpt lat="46.43778" lon="5.94795">
        <ele>1058.4000244141</ele>
        <time>2014-06-01T08:36:58.000Z</time>
      </trkpt>
      <trkpt lat="46.43779" lon="5.94793">
        <ele>1058.4000244141</ele>
        <time>2014-06-01T08:36:59.000Z</time>
      </trkpt>
      <trkpt lat="46.43781" lon="5.94783">
        <ele>1058</ele>
        <time>2014-06-01T08:37:06.000Z</time>
      </trkpt>
      <trkpt lat="46.43784" lon="5.94778">
        <ele>1057.8000488281</ele>
        <time>2014-06-01T08:37:18.000Z</time>
      </trkpt>
      <trkpt lat="46.43786" lon="5.94777">
        <ele>1057.5999755859</ele>
        <time>2014-06-01T08:37:23.000Z</time>
      </trkpt>
      <trkpt lat="46.43787" lon="5.94772">
        <ele>1057.1999511719</ele>
        <time>2014-06-01T08:37:28.000Z</time>
      </trkpt>
      <trkpt lat="46.43786" lon="5.94769">
        <ele>1057.1999511719</ele>
        <time>2014-06-01T08:37:30.000Z</time>
      </trkpt>
      <trkpt lat="46.43783" lon="5.94762">
        <ele>1056.8000488281</ele>
        <time>2014-06-01T08:37:34.000Z</time>
      </trkpt>
      <trkpt lat="46.43783" lon="5.94761">
        <ele>1056.8000488281</ele>
        <time>2014-06-01T08:37:35.000Z</time>
      </trkpt>
      <trkpt lat="46.43792" lon="5.94753">
        <ele>1055.8000488281</ele>
        <time>2014-06-01T08:37:40.000Z</time>
      </trkpt>
      <trkpt lat="46.43799" lon="5.94752">
        <ele>1055.4000244141</ele>
        <time>2014-06-01T08:37:46.000Z</time>
      </trkpt>
      <trkpt lat="46.43802" lon="5.94754">
        <ele>1055.4000244141</ele>
        <time>2014-06-01T08:37:50.000Z</time>
      </trkpt>
      <trkpt lat="46.43803" lon="5.94753">
        <ele>1055.4000244141</ele>
        <time>2014-06-01T08:37:54.000Z</time>
      </trkpt>
      <trkpt lat="46.43803" lon="5.94761">
        <ele>1055.8000488281</ele>
        <time>2014-06-01T08:37:59.000Z</time>
      </trkpt>
      <trkpt lat="46.43803" lon="5.94758">
        <ele>1055.5999755859</ele>
        <time>2014-06-01T08:38:04.000Z</time>
      </trkpt>
      <trkpt lat="46.43805" lon="5.94753">
        <ele>1055.1999511719</ele>
        <time>2014-06-01T08:38:07.000Z</time>
      </trkpt>
      <trkpt lat="46.43807" lon="5.94746">
        <ele>1054.8000488281</ele>
        <time>2014-06-01T08:38:14.000Z</time>
      </trkpt>
      <trkpt lat="46.4381" lon="5.94741">
        <ele>1054.1999511719</ele>
        <time>2014-06-01T08:38:18.000Z</time>
      </trkpt>
      <trkpt lat="46.43811" lon="5.94741">
        <ele>1054.1999511719</ele>
        <time>2014-06-01T08:38:27.000Z</time>
      </trkpt>
      <trkpt lat="46.43808" lon="5.94745">
        <ele>1054.5999755859</ele>
        <time>2014-06-01T08:38:38.000Z</time>
      </trkpt>
      <trkpt lat="46.43804" lon="5.94749">
        <ele>1055</ele>
        <time>2014-06-01T08:38:43.000Z</time>
      </trkpt>
      <trkpt lat="46.43801" lon="5.94752">
        <ele>1055.4000244141</ele>
        <time>2014-06-01T08:38:47.000Z</time>
      </trkpt>
      <trkpt lat="46.43799" lon="5.94756">
        <ele>1055.5999755859</ele>
        <time>2014-06-01T08:38:49.000Z</time>
      </trkpt>
      <trkpt lat="46.43796" lon="5.94765">
        <ele>1056.4000244141</ele>
        <time>2014-06-01T08:38:54.000Z</time>
      </trkpt>
      <trkpt lat="46.43797" lon="5.94769">
        <ele>1056.5999755859</ele>
        <time>2014-06-01T08:38:58.000Z</time>
      </trkpt>
      <trkpt lat="46.43798" lon="5.94778">
        <ele>1057</ele>
        <time>2014-06-01T08:39:04.000Z</time>
      </trkpt>
      <trkpt lat="46.43798" lon="5.94779">
        <ele>1057.1999511719</ele>
        <time>2014-06-01T08:39:05.000Z</time>
      </trkpt>
      <trkpt lat="46.43797" lon="5.94783">
        <ele>1057.4000244141</ele>
        <time>2014-06-01T08:39:10.000Z</time>
      </trkpt>
      <trkpt lat="46.43798" lon="5.94786">
        <ele>1057.5999755859</ele>
        <time>2014-06-01T08:39:18.000Z</time>
      </trkpt>
      <trkpt lat="46.43788" lon="5.94785">
        <ele>1057.8000488281</ele>
        <time>2014-06-01T08:39:23.000Z</time>
      </trkpt>
      <trkpt lat="46.43778" lon="5.94786">
        <ele>1058.1999511719</ele>
        <time>2014-06-01T08:39:29.000Z</time>
      </trkpt>
      <trkpt lat="46.43771" lon="5.94789">
        <ele>1058.4000244141</ele>
        <time>2014-06-01T08:39:34.000Z</time>
      </trkpt>
      <trkpt lat="46.43763" lon="5.94797">
        <ele>1058.8000488281</ele>
        <time>2014-06-01T08:39:39.000Z</time>
      </trkpt>
      <trkpt lat="46.43756" lon="5.948">
        <ele>1059.1999511719</ele>
        <time>2014-06-01T08:39:44.000Z</time>
      </trkpt>
      <trkpt lat="46.43753" lon="5.94802">
        <ele>1059.1999511719</ele>
        <time>2014-06-01T08:39:47.000Z</time>
      </trkpt>
      <trkpt lat="46.43752" lon="5.94805">
        <ele>1059.4000244141</ele>
        <time>2014-06-01T08:39:49.000Z</time>
      </trkpt>
      <trkpt lat="46.43744" lon="5.94813">
        <ele>1060</ele>
        <time>2014-06-01T08:39:54.000Z</time>
      </trkpt>
      <trkpt lat="46.4374" lon="5.9483">
        <ele>1061.4000244141</ele>
        <time>2014-06-01T08:40:04.000Z</time>
      </trkpt>
      <trkpt lat="46.43732" lon="5.94835">
        <ele>1062</ele>
        <time>2014-06-01T08:40:11.000Z</time>
      </trkpt>
      <trkpt lat="46.43722" lon="5.94832">
        <ele>1062.4000244141</ele>
        <time>2014-06-01T08:40:17.000Z</time>
      </trkpt>
      <trkpt lat="46.43714" lon="5.94831">
        <ele>1062.8000488281</ele>
        <time>2014-06-01T08:40:21.000Z</time>
      </trkpt>
      <trkpt lat="46.43705" lon="5.94829">
        <ele>1063.1999511719</ele>
        <time>2014-06-01T08:40:26.000Z</time>
      </trkpt>
      <trkpt lat="46.43704" lon="5.94828">
        <ele>1063.1999511719</ele>
        <time>2014-06-01T08:40:28.000Z</time>
      </trkpt>
      <trkpt lat="46.43703" lon="5.94817">
        <ele>1062.4000244141</ele>
        <time>2014-06-01T08:40:33.000Z</time>
      </trkpt>
      <trkpt lat="46.43704" lon="5.94814">
        <ele>1062.1999511719</ele>
        <time>2014-06-01T08:40:35.000Z</time>
      </trkpt>
      <trkpt lat="46.43699" lon="5.94805">
        <ele>1061.8000488281</ele>
        <time>2014-06-01T08:40:40.000Z</time>
      </trkpt>
      <trkpt lat="46.43694" lon="5.94799">
        <ele>1062</ele>
        <time>2014-06-01T08:40:46.000Z</time>
      </trkpt>
      <trkpt lat="46.43694" lon="5.94798">
        <ele>1061.8000488281</ele>
        <time>2014-06-01T08:40:47.000Z</time>
      </trkpt>
      <trkpt lat="46.43696" lon="5.9479">
        <ele>1061.4000244141</ele>
        <time>2014-06-01T08:40:52.000Z</time>
      </trkpt>
      <trkpt lat="46.43699" lon="5.94786">
        <ele>1061</ele>
        <time>2014-06-01T08:40:56.000Z</time>
      </trkpt>
      <trkpt lat="46.43709" lon="5.94783">
        <ele>1060.1999511719</ele>
        <time>2014-06-01T08:41:01.000Z</time>
      </trkpt>
      <trkpt lat="46.43715" lon="5.94781">
        <ele>1059.8000488281</ele>
        <time>2014-06-01T08:41:03.000Z</time>
      </trkpt>
      <trkpt lat="46.43732" lon="5.94763">
        <ele>1058.4000244141</ele>
        <time>2014-06-01T08:41:08.000Z</time>
      </trkpt>
      <trkpt lat="46.43741" lon="5.94747">
        <ele>1057.5999755859</ele>
        <time>2014-06-01T08:41:12.000Z</time>
      </trkpt>
      <trkpt lat="46.43741" lon="5.94742">
        <ele>1057.4000244141</ele>
        <time>2014-06-01T08:41:15.000Z</time>
      </trkpt>
      <trkpt lat="46.43742" lon="5.94738">
        <ele>1057.1999511719</ele>
        <time>2014-06-01T08:41:31.000Z</time>
      </trkpt>
      <trkpt lat="46.43742" lon="5.94738">
        <ele>1057.1999511719</ele>
        <time>2014-06-01T08:41:42.000Z</time>
      </trkpt>
      <trkpt lat="46.43742" lon="5.94736">
        <ele>1057.1999511719</ele>
        <time>2014-06-01T08:41:55.000Z</time>
      </trkpt>
      <trkpt lat="46.43744" lon="5.9473">
        <ele>1056.8000488281</ele>
        <time>2014-06-01T08:41:58.000Z</time>
      </trkpt>
      <trkpt lat="46.4375" lon="5.94715">
        <ele>1055.4000244141</ele>
        <time>2014-06-01T08:42:03.000Z</time>
      </trkpt>
      <trkpt lat="46.4375" lon="5.94703">
        <ele>1054.4000244141</ele>
        <time>2014-06-01T08:42:06.000Z</time>
      </trkpt>
      <trkpt lat="46.43749" lon="5.94687">
        <ele>1053.1999511719</ele>
        <time>2014-06-01T08:42:11.000Z</time>
      </trkpt>
      <trkpt lat="46.43747" lon="5.94685">
        <ele>1053</ele>
        <time>2014-06-01T08:42:12.000Z</time>
      </trkpt>
      <trkpt lat="46.43743" lon="5.94672">
        <ele>1052.1999511719</ele>
        <time>2014-06-01T08:42:17.000Z</time>
      </trkpt>
      <trkpt lat="46.43745" lon="5.94664">
        <ele>1051.4000244141</ele>
        <time>2014-06-01T08:42:20.000Z</time>
      </trkpt>
      <trkpt lat="46.43752" lon="5.94642">
        <ele>1048.5999755859</ele>
        <time>2014-06-01T08:42:25.000Z</time>
      </trkpt>
      <trkpt lat="46.43754" lon="5.94623">
        <ele>1046.4000244141</ele>
        <time>2014-06-01T08:42:30.000Z</time>
      </trkpt>
      <trkpt lat="46.43754" lon="5.94619">
        <ele>1046</ele>
        <time>2014-06-01T08:42:31.000Z</time>
      </trkpt>
      <trkpt lat="46.4375" lon="5.94609">
        <ele>1045.5999755859</ele>
        <time>2014-06-01T08:42:35.000Z</time>
      </trkpt>
      <trkpt lat="46.43745" lon="5.94602">
        <ele>1045.1999511719</ele>
        <time>2014-06-01T08:42:40.000Z</time>
      </trkpt>
      <trkpt lat="46.4374" lon="5.94569">
        <ele>1042.4000244141</ele>
        <time>2014-06-01T08:42:47.000Z</time>
      </trkpt>
      <trkpt lat="46.43739" lon="5.94564">
        <ele>1042.1999511719</ele>
        <time>2014-06-01T08:42:48.000Z</time>
      </trkpt>
      <trkpt lat="46.43735" lon="5.94549">
        <ele>1040.5999755859</ele>
        <time>2014-06-01T08:42:52.000Z</time>
      </trkpt>
      <trkpt lat="46.43733" lon="5.94533">
        <ele>1038.5999755859</ele>
        <time>2014-06-01T08:42:56.000Z</time>
      </trkpt>
      <trkpt lat="46.43734" lon="5.94529">
        <ele>1037.8000488281</ele>
        <time>2014-06-01T08:42:59.000Z</time>
      </trkpt>
      <trkpt lat="46.43739" lon="5.94515">
        <ele>1035.4000244141</ele>
        <time>2014-06-01T08:43:03.000Z</time>
      </trkpt>
      <trkpt lat="46.43745" lon="5.94504">
        <ele>1033.4000244141</ele>
        <time>2014-06-01T08:43:07.000Z</time>
      </trkpt>
      <trkpt lat="46.43758" lon="5.94488">
        <ele>1030.5999755859</ele>
        <time>2014-06-01T08:43:13.000Z</time>
      </trkpt>
      <trkpt lat="46.43762" lon="5.94474">
        <ele>1029</ele>
        <time>2014-06-01T08:43:17.000Z</time>
      </trkpt>
      <trkpt lat="46.43755" lon="5.94455">
        <ele>1027.4000244141</ele>
        <time>2014-06-01T08:43:21.000Z</time>
      </trkpt>
      <trkpt lat="46.43755" lon="5.94436">
        <ele>1025.5999755859</ele>
        <time>2014-06-01T08:43:26.000Z</time>
      </trkpt>
      <trkpt lat="46.43753" lon="5.94426">
        <ele>1024.5999755859</ele>
        <time>2014-06-01T08:43:28.000Z</time>
      </trkpt>
      <trkpt lat="46.43746" lon="5.94389">
        <ele>1021.799987793</ele>
        <time>2014-06-01T08:43:34.000Z</time>
      </trkpt>
      <trkpt lat="46.43736" lon="5.94369">
        <ele>1020.799987793</ele>
        <time>2014-06-01T08:43:38.000Z</time>
      </trkpt>
      <trkpt lat="46.43729" lon="5.94344">
        <ele>1020</ele>
        <time>2014-06-01T08:43:43.000Z</time>
      </trkpt>
      <trkpt lat="46.4372" lon="5.94327">
        <ele>1019.799987793</ele>
        <time>2014-06-01T08:43:48.000Z</time>
      </trkpt>
      <trkpt lat="46.43705" lon="5.94322">
        <ele>1020.4000244141</ele>
        <time>2014-06-01T08:43:53.000Z</time>
      </trkpt>
      <trkpt lat="46.43694" lon="5.94327">
        <ele>1021.200012207</ele>
        <time>2014-06-01T08:43:58.000Z</time>
      </trkpt>
      <trkpt lat="46.43683" lon="5.94334">
        <ele>1022.200012207</ele>
        <time>2014-06-01T08:44:02.000Z</time>
      </trkpt>
      <trkpt lat="46.43667" lon="5.94338">
        <ele>1023.5999755859</ele>
        <time>2014-06-01T08:44:07.000Z</time>
      </trkpt>
      <trkpt lat="46.43651" lon="5.94345">
        <ele>1025.1999511719</ele>
        <time>2014-06-01T08:44:12.000Z</time>
      </trkpt>
      <trkpt lat="46.43642" lon="5.94346">
        <ele>1025.5999755859</ele>
        <time>2014-06-01T08:44:15.000Z</time>
      </trkpt>
      <trkpt lat="46.43627" lon="5.94357">
        <ele>1027</ele>
        <time>2014-06-01T08:44:20.000Z</time>
      </trkpt>
      <trkpt lat="46.43617" lon="5.94362">
        <ele>1028</ele>
        <time>2014-06-01T08:44:23.000Z</time>
      </trkpt>
      <trkpt lat="46.43599" lon="5.94359">
        <ele>1029.4000244141</ele>
        <time>2014-06-01T08:44:28.000Z</time>
      </trkpt>
      <trkpt lat="46.43582" lon="5.94353">
        <ele>1030.1999511719</ele>
        <time>2014-06-01T08:44:33.000Z</time>
      </trkpt>
      <trkpt lat="46.43575" lon="5.94349">
        <ele>1030.5999755859</ele>
        <time>2014-06-01T08:44:37.000Z</time>
      </trkpt>
      <trkpt lat="46.43561" lon="5.94355">
        <ele>1032.1999511719</ele>
        <time>2014-06-01T08:44:44.000Z</time>
      </trkpt>
      <trkpt lat="46.43545" lon="5.94359">
        <ele>1033</ele>
        <time>2014-06-01T08:44:49.000Z</time>
      </trkpt>
      <trkpt lat="46.43525" lon="5.94365">
        <ele>1034.4000244141</ele>
        <time>2014-06-01T08:44:54.000Z</time>
      </trkpt>
      <trkpt lat="46.43511" lon="5.94366">
        <ele>1035</ele>
        <time>2014-06-01T08:44:59.000Z</time>
      </trkpt>
      <trkpt lat="46.43498" lon="5.94372">
        <ele>1036.1999511719</ele>
        <time>2014-06-01T08:45:04.000Z</time>
      </trkpt>
      <trkpt lat="46.43485" lon="5.94377">
        <ele>1037.1999511719</ele>
        <time>2014-06-01T08:45:09.000Z</time>
      </trkpt>
      <trkpt lat="46.4347" lon="5.9438">
        <ele>1038.5999755859</ele>
        <time>2014-06-01T08:45:13.000Z</time>
      </trkpt>
      <trkpt lat="46.43466" lon="5.94368">
        <ele>1037.4000244141</ele>
        <time>2014-06-01T08:45:17.000Z</time>
      </trkpt>
      <trkpt lat="46.4347" lon="5.94356">
        <ele>1035.5999755859</ele>
        <time>2014-06-01T08:45:21.000Z</time>
      </trkpt>
      <trkpt lat="46.43471" lon="5.94342">
        <ele>1034</ele>
        <time>2014-06-01T08:45:26.000Z</time>
      </trkpt>
      <trkpt lat="46.43466" lon="5.94329">
        <ele>1032.8000488281</ele>
        <time>2014-06-01T08:45:30.000Z</time>
      </trkpt>
      <trkpt lat="46.43453" lon="5.94308">
        <ele>1031.1999511719</ele>
        <time>2014-06-01T08:45:35.000Z</time>
      </trkpt>
      <trkpt lat="46.43439" lon="5.9431">
        <ele>1032.4000244141</ele>
        <time>2014-06-01T08:45:39.000Z</time>
      </trkpt>
      <trkpt lat="46.43424" lon="5.94307">
        <ele>1033.1999511719</ele>
        <time>2014-06-01T08:45:45.000Z</time>
      </trkpt>
      <trkpt lat="46.43417" lon="5.94298">
        <ele>1033.4000244141</ele>
        <time>2014-06-01T08:45:49.000Z</time>
      </trkpt>
      <trkpt lat="46.43407" lon="5.94288">
        <ele>1033.5999755859</ele>
        <time>2014-06-01T08:45:53.000Z</time>
      </trkpt>
      <trkpt lat="46.43392" lon="5.94273">
        <ele>1034.1999511719</ele>
        <time>2014-06-01T08:45:58.000Z</time>
      </trkpt>
      <trkpt lat="46.43381" lon="5.9426">
        <ele>1034.4000244141</ele>
        <time>2014-06-01T08:46:02.000Z</time>
      </trkpt>
      <trkpt lat="46.43378" lon="5.94257">
        <ele>1034.4000244141</ele>
        <time>2014-06-01T08:46:03.000Z</time>
      </trkpt>
      <trkpt lat="46.43363" lon="5.9425">
        <ele>1035</ele>
        <time>2014-06-01T08:46:08.000Z</time>
      </trkpt>
      <trkpt lat="46.43351" lon="5.94244">
        <ele>1035.5999755859</ele>
        <time>2014-06-01T08:46:12.000Z</time>
      </trkpt>
      <trkpt lat="46.43343" lon="5.94233">
        <ele>1035.5999755859</ele>
        <time>2014-06-01T08:46:18.000Z</time>
      </trkpt>
      <trkpt lat="46.43335" lon="5.94223">
        <ele>1035.8000488281</ele>
        <time>2014-06-01T08:46:23.000Z</time>
      </trkpt>
      <trkpt lat="46.43323" lon="5.9421">
        <ele>1036</ele>
        <time>2014-06-01T08:46:28.000Z</time>
      </trkpt>
      <trkpt lat="46.43315" lon="5.942">
        <ele>1036.1999511719</ele>
        <time>2014-06-01T08:46:32.000Z</time>
      </trkpt>
      <trkpt lat="46.43314" lon="5.94198">
        <ele>1036.1999511719</ele>
        <time>2014-06-01T08:46:33.000Z</time>
      </trkpt>
      <trkpt lat="46.43311" lon="5.94181">
        <ele>1035.8000488281</ele>
        <time>2014-06-01T08:46:39.000Z</time>
      </trkpt>
      <trkpt lat="46.43306" lon="5.94169">
        <ele>1035.8000488281</ele>
        <time>2014-06-01T08:46:44.000Z</time>
      </trkpt>
      <trkpt lat="46.43304" lon="5.94162">
        <ele>1035.8000488281</ele>
        <time>2014-06-01T08:46:47.000Z</time>
      </trkpt>
      <trkpt lat="46.43303" lon="5.94152">
        <ele>1035.4000244141</ele>
        <time>2014-06-01T08:46:50.000Z</time>
      </trkpt>
      <trkpt lat="46.43301" lon="5.94137">
        <ele>1035</ele>
        <time>2014-06-01T08:46:56.000Z</time>
      </trkpt>
      <trkpt lat="46.43301" lon="5.94134">
        <ele>1034.8000488281</ele>
        <time>2014-06-01T08:46:57.000Z</time>
      </trkpt>
      <trkpt lat="46.43289" lon="5.94121">
        <ele>1035</ele>
        <time>2014-06-01T08:47:02.000Z</time>
      </trkpt>
      <trkpt lat="46.43283" lon="5.94112">
        <ele>1035</ele>
        <time>2014-06-01T08:47:05.000Z</time>
      </trkpt>
      <trkpt lat="46.43273" lon="5.94096">
        <ele>1035</ele>
        <time>2014-06-01T08:47:10.000Z</time>
      </trkpt>
      <trkpt lat="46.43268" lon="5.94091">
        <ele>1035</ele>
        <time>2014-06-01T08:47:12.000Z</time>
      </trkpt>
      <trkpt lat="46.43257" lon="5.94071">
        <ele>1035.1999511719</ele>
        <time>2014-06-01T08:47:17.000Z</time>
      </trkpt>
      <trkpt lat="46.43249" lon="5.94037">
        <ele>1034.1999511719</ele>
        <time>2014-06-01T08:47:24.000Z</time>
      </trkpt>
      <trkpt lat="46.43238" lon="5.94016">
        <ele>1033.8000488281</ele>
        <time>2014-06-01T08:47:28.000Z</time>
      </trkpt>
      <trkpt lat="46.43227" lon="5.94001">
        <ele>1033.5999755859</ele>
        <time>2014-06-01T08:47:32.000Z</time>
      </trkpt>
      <trkpt lat="46.43225" lon="5.93998">
        <ele>1033.5999755859</ele>
        <time>2014-06-01T08:47:33.000Z</time>
      </trkpt>
      <trkpt lat="46.43206" lon="5.93994">
        <ele>1034.1999511719</ele>
        <time>2014-06-01T08:47:40.000Z</time>
      </trkpt>
      <trkpt lat="46.43205" lon="5.93994">
        <ele>1034.4000244141</ele>
        <time>2014-06-01T08:47:41.000Z</time>
      </trkpt>
      <trkpt lat="46.43196" lon="5.93995">
        <ele>1034.8000488281</ele>
        <time>2014-06-01T08:47:45.000Z</time>
      </trkpt>
      <trkpt lat="46.43183" lon="5.93998">
        <ele>1035.4000244141</ele>
        <time>2014-06-01T08:47:49.000Z</time>
      </trkpt>
      <trkpt lat="46.43169" lon="5.93993">
        <ele>1036</ele>
        <time>2014-06-01T08:47:53.000Z</time>
      </trkpt>
      <trkpt lat="46.4315" lon="5.93997">
        <ele>1037.4000244141</ele>
        <time>2014-06-01T08:47:59.000Z</time>
      </trkpt>
      <trkpt lat="46.43138" lon="5.93999">
        <ele>1038.1999511719</ele>
        <time>2014-06-01T08:48:04.000Z</time>
      </trkpt>
      <trkpt lat="46.43126" lon="5.94001">
        <ele>1039</ele>
        <time>2014-06-01T08:48:08.000Z</time>
      </trkpt>
      <trkpt lat="46.43115" lon="5.93997">
        <ele>1039.4000244141</ele>
        <time>2014-06-01T08:48:12.000Z</time>
      </trkpt>
      <trkpt lat="46.43106" lon="5.93989">
        <ele>1039.4000244141</ele>
        <time>2014-06-01T08:48:16.000Z</time>
      </trkpt>
      <trkpt lat="46.43103" lon="5.93974">
        <ele>1038.8000488281</ele>
        <time>2014-06-01T08:48:20.000Z</time>
      </trkpt>
      <trkpt lat="46.43096" lon="5.93957">
        <ele>1038.5999755859</ele>
        <time>2014-06-01T08:48:24.000Z</time>
      </trkpt>
      <trkpt lat="46.43091" lon="5.93934">
        <ele>1038</ele>
        <time>2014-06-01T08:48:29.000Z</time>
      </trkpt>
      <trkpt lat="46.43089" lon="5.93932">
        <ele>1038</ele>
        <time>2014-06-01T08:48:30.000Z</time>
      </trkpt>
      <trkpt lat="46.43086" lon="5.93934">
        <ele>1038.4000244141</ele>
        <time>2014-06-01T08:48:35.000Z</time>
      </trkpt>
      <trkpt lat="46.43086" lon="5.93937">
        <ele>1038.4000244141</ele>
        <time>2014-06-01T08:48:39.000Z</time>
      </trkpt>
      <trkpt lat="46.4308" lon="5.93941">
        <ele>1039</ele>
        <time>2014-06-01T08:48:44.000Z</time>
      </trkpt>
      <trkpt lat="46.4307" lon="5.93949">
        <ele>1039.8000488281</ele>
        <time>2014-06-01T08:48:48.000Z</time>
      </trkpt>
      <trkpt lat="46.43057" lon="5.93959">
        <ele>1041.5999755859</ele>
        <time>2014-06-01T08:48:53.000Z</time>
      </trkpt>
      <trkpt lat="46.43052" lon="5.93964">
        <ele>1042.4000244141</ele>
        <time>2014-06-01T08:48:56.000Z</time>
      </trkpt>
      <trkpt lat="46.4305" lon="5.93973">
        <ele>1043.1999511719</ele>
        <time>2014-06-01T08:49:01.000Z</time>
      </trkpt>
      <trkpt lat="46.43044" lon="5.9398">
        <ele>1044.4000244141</ele>
        <time>2014-06-01T08:49:06.000Z</time>
      </trkpt>
      <trkpt lat="46.43041" lon="5.93983">
        <ele>1045</ele>
        <time>2014-06-01T08:49:08.000Z</time>
      </trkpt>
      <trkpt lat="46.43035" lon="5.93987">
        <ele>1046</ele>
        <time>2014-06-01T08:49:13.000Z</time>
      </trkpt>
      <trkpt lat="46.43024" lon="5.93984">
        <ele>1047.5999755859</ele>
        <time>2014-06-01T08:49:18.000Z</time>
      </trkpt>
      <trkpt lat="46.43013" lon="5.93978">
        <ele>1048.8000488281</ele>
        <time>2014-06-01T08:49:23.000Z</time>
      </trkpt>
      <trkpt lat="46.4301" lon="5.93975">
        <ele>1049</ele>
        <time>2014-06-01T08:49:25.000Z</time>
      </trkpt>
      <trkpt lat="46.43002" lon="5.93969">
        <ele>1050</ele>
        <time>2014-06-01T08:49:30.000Z</time>
      </trkpt>
      <trkpt lat="46.42998" lon="5.93962">
        <ele>1050.1999511719</ele>
        <time>2014-06-01T08:49:33.000Z</time>
      </trkpt>
      <trkpt lat="46.42985" lon="5.93953">
        <ele>1051.5999755859</ele>
        <time>2014-06-01T08:49:38.000Z</time>
      </trkpt>
      <trkpt lat="46.42982" lon="5.93951">
        <ele>1052</ele>
        <time>2014-06-01T08:49:40.000Z</time>
      </trkpt>
      <trkpt lat="46.42967" lon="5.93951">
        <ele>1054.5999755859</ele>
        <time>2014-06-01T08:49:48.000Z</time>
      </trkpt>
      <trkpt lat="46.42961" lon="5.93952">
        <ele>1055.8000488281</ele>
        <time>2014-06-01T08:49:52.000Z</time>
      </trkpt>
      <trkpt lat="46.42951" lon="5.93954">
        <ele>1058</ele>
        <time>2014-06-01T08:49:58.000Z</time>
      </trkpt>
      <trkpt lat="46.4294" lon="5.93948">
        <ele>1059.8000488281</ele>
        <time>2014-06-01T08:50:03.000Z</time>
      </trkpt>
      <trkpt lat="46.42929" lon="5.93941">
        <ele>1061.5999755859</ele>
        <time>2014-06-01T08:50:09.000Z</time>
      </trkpt>
      <trkpt lat="46.42927" lon="5.93939">
        <ele>1062</ele>
        <time>2014-06-01T08:50:10.000Z</time>
      </trkpt>
      <trkpt lat="46.42919" lon="5.93929">
        <ele>1062.8000488281</ele>
        <time>2014-06-01T08:50:15.000Z</time>
      </trkpt>
      <trkpt lat="46.4291" lon="5.93922">
        <ele>1064.1999511719</ele>
        <time>2014-06-01T08:50:21.000Z</time>
      </trkpt>
      <trkpt lat="46.42906" lon="5.93921">
        <ele>1065</ele>
        <time>2014-06-01T08:50:26.000Z</time>
      </trkpt>
      <trkpt lat="46.42904" lon="5.93921">
        <ele>1065.4000244141</ele>
        <time>2014-06-01T08:50:27.000Z</time>
      </trkpt>
      <trkpt lat="46.42894" lon="5.93918">
        <ele>1067</ele>
        <time>2014-06-01T08:50:35.000Z</time>
      </trkpt>
      <trkpt lat="46.42889" lon="5.93916">
        <ele>1067.5999755859</ele>
        <time>2014-06-01T08:50:41.000Z</time>
      </trkpt>
      <trkpt lat="46.42885" lon="5.93916">
        <ele>1068.1999511719</ele>
        <time>2014-06-01T08:50:48.000Z</time>
      </trkpt>
      <trkpt lat="46.42886" lon="5.93923">
        <ele>1068.5999755859</ele>
        <time>2014-06-01T08:50:54.000Z</time>
      </trkpt>
      <trkpt lat="46.42886" lon="5.93924">
        <ele>1068.5999755859</ele>
        <time>2014-06-01T08:50:55.000Z</time>
      </trkpt>
      <trkpt lat="46.42883" lon="5.93932">
        <ele>1069.8000488281</ele>
        <time>2014-06-01T08:51:00.000Z</time>
      </trkpt>
      <trkpt lat="46.42878" lon="5.93939">
        <ele>1071.1999511719</ele>
        <time>2014-06-01T08:51:06.000Z</time>
      </trkpt>
      <trkpt lat="46.42871" lon="5.93944">
        <ele>1072.4000244141</ele>
        <time>2014-06-01T08:51:11.000Z</time>
      </trkpt>
      <trkpt lat="46.42863" lon="5.93943">
        <ele>1073.5999755859</ele>
        <time>2014-06-01T08:51:16.000Z</time>
      </trkpt>
      <trkpt lat="46.42857" lon="5.93942">
        <ele>1074.4000244141</ele>
        <time>2014-06-01T08:51:20.000Z</time>
      </trkpt>
      <trkpt lat="46.42851" lon="5.93935">
        <ele>1074.8000488281</ele>
        <time>2014-06-01T08:51:26.000Z</time>
      </trkpt>
      <trkpt lat="46.42842" lon="5.93931">
        <ele>1075.8000488281</ele>
        <time>2014-06-01T08:51:31.000Z</time>
      </trkpt>
      <trkpt lat="46.42838" lon="5.9393">
        <ele>1076.4000244141</ele>
        <time>2014-06-01T08:51:33.000Z</time>
      </trkpt>
      <trkpt lat="46.42838" lon="5.93929">
        <ele>1076.4000244141</ele>
        <time>2014-06-01T08:51:35.000Z</time>
      </trkpt>
      <trkpt lat="46.42839" lon="5.93925">
        <ele>1075.8000488281</ele>
        <time>2014-06-01T08:51:38.000Z</time>
      </trkpt>
      <trkpt lat="46.42835" lon="5.93914">
        <ele>1075.1999511719</ele>
        <time>2014-06-01T08:51:43.000Z</time>
      </trkpt>
      <trkpt lat="46.42829" lon="5.9391">
        <ele>1076</ele>
        <time>2014-06-01T08:51:48.000Z</time>
      </trkpt>
      <trkpt lat="46.42823" lon="5.93909">
        <ele>1076.8000488281</ele>
        <time>2014-06-01T08:51:53.000Z</time>
      </trkpt>
      <trkpt lat="46.42822" lon="5.93909">
        <ele>1077</ele>
        <time>2014-06-01T08:51:54.000Z</time>
      </trkpt>
      <trkpt lat="46.42817" lon="5.93905">
        <ele>1077.4000244141</ele>
        <time>2014-06-01T08:51:59.000Z</time>
      </trkpt>
      <trkpt lat="46.42811" lon="5.93905">
        <ele>1078.1999511719</ele>
        <time>2014-06-01T08:52:03.000Z</time>
      </trkpt>
      <trkpt lat="46.42804" lon="5.93907">
        <ele>1079.4000244141</ele>
        <time>2014-06-01T08:52:07.000Z</time>
      </trkpt>
      <trkpt lat="46.42802" lon="5.93905">
        <ele>1079.1999511719</ele>
        <time>2014-06-01T08:52:09.000Z</time>
      </trkpt>
      <trkpt lat="46.42799" lon="5.9391">
        <ele>1080.1999511719</ele>
        <time>2014-06-01T08:52:15.000Z</time>
      </trkpt>
      <trkpt lat="46.42799" lon="5.93918">
        <ele>1081.1999511719</ele>
        <time>2014-06-01T08:52:19.000Z</time>
      </trkpt>
      <trkpt lat="46.42797" lon="5.93926">
        <ele>1082.1999511719</ele>
        <time>2014-06-01T08:52:22.000Z</time>
      </trkpt>
      <trkpt lat="46.42797" lon="5.9394">
        <ele>1083.8000488281</ele>
        <time>2014-06-01T08:52:27.000Z</time>
      </trkpt>
      <trkpt lat="46.42795" lon="5.93951">
        <ele>1085.1999511719</ele>
        <time>2014-06-01T08:52:33.000Z</time>
      </trkpt>
      <trkpt lat="46.42795" lon="5.93953">
        <ele>1085.4000244141</ele>
        <time>2014-06-01T08:52:34.000Z</time>
      </trkpt>
      <trkpt lat="46.42797" lon="5.93966">
        <ele>1087</ele>
        <time>2014-06-01T08:52:40.000Z</time>
      </trkpt>
      <trkpt lat="46.428" lon="5.93981">
        <ele>1088.4000244141</ele>
        <time>2014-06-01T08:52:48.000Z</time>
      </trkpt>
      <trkpt lat="46.42798" lon="5.93983">
        <ele>1089.1999511719</ele>
        <time>2014-06-01T08:52:50.000Z</time>
      </trkpt>
      <trkpt lat="46.4279" lon="5.93993">
        <ele>1091.5999755859</ele>
        <time>2014-06-01T08:52:55.000Z</time>
      </trkpt>
      <trkpt lat="46.42781" lon="5.94003">
        <ele>1094.4000244141</ele>
        <time>2014-06-01T08:53:01.000Z</time>
      </trkpt>
      <trkpt lat="46.42779" lon="5.94006">
        <ele>1094.8000488281</ele>
        <time>2014-06-01T08:53:03.000Z</time>
      </trkpt>
      <trkpt lat="46.42772" lon="5.94012">
        <ele>1096.8000488281</ele>
        <time>2014-06-01T08:53:08.000Z</time>
      </trkpt>
      <trkpt lat="46.42765" lon="5.94019">
        <ele>1099.1999511719</ele>
        <time>2014-06-01T08:53:13.000Z</time>
      </trkpt>
      <trkpt lat="46.42754" lon="5.94023">
        <ele>1101.4000244141</ele>
        <time>2014-06-01T08:53:18.000Z</time>
      </trkpt>
      <trkpt lat="46.42747" lon="5.94025">
        <ele>1103</ele>
        <time>2014-06-01T08:53:22.000Z</time>
      </trkpt>
      <trkpt lat="46.42736" lon="5.9402">
        <ele>1104.4000244141</ele>
        <time>2014-06-01T08:53:29.000Z</time>
      </trkpt>
      <trkpt lat="46.42734" lon="5.9402">
        <ele>1104.8000488281</ele>
        <time>2014-06-01T08:53:30.000Z</time>
      </trkpt>
      <trkpt lat="46.42725" lon="5.94014">
        <ele>1105.8000488281</ele>
        <time>2014-06-01T08:53:36.000Z</time>
      </trkpt>
      <trkpt lat="46.42718" lon="5.94013">
        <ele>1107.1999511719</ele>
        <time>2014-06-01T08:53:40.000Z</time>
      </trkpt>
      <trkpt lat="46.42712" lon="5.94013">
        <ele>1108.4000244141</ele>
        <time>2014-06-01T08:53:46.000Z</time>
      </trkpt>
      <trkpt lat="46.42711" lon="5.94015">
        <ele>1109</ele>
        <time>2014-06-01T08:53:50.000Z</time>
      </trkpt>
      <trkpt lat="46.42709" lon="5.94018">
        <ele>1109.8000488281</ele>
        <time>2014-06-01T08:53:55.000Z</time>
      </trkpt>
      <trkpt lat="46.42706" lon="5.94022">
        <ele>1111</ele>
        <time>2014-06-01T08:53:59.000Z</time>
      </trkpt>
      <trkpt lat="46.42704" lon="5.94019">
        <ele>1111</ele>
        <time>2014-06-01T08:54:04.000Z</time>
      </trkpt>
      <trkpt lat="46.42704" lon="5.94006">
        <ele>1109.4000244141</ele>
        <time>2014-06-01T08:54:09.000Z</time>
      </trkpt>
      <trkpt lat="46.427" lon="5.94004">
        <ele>1110</ele>
        <time>2014-06-01T08:54:14.000Z</time>
      </trkpt>
      <trkpt lat="46.42698" lon="5.94004">
        <ele>1110.4000244141</ele>
        <time>2014-06-01T08:54:17.000Z</time>
      </trkpt>
      <trkpt lat="46.42685" lon="5.94005">
        <ele>1113.1999511719</ele>
        <time>2014-06-01T08:54:23.000Z</time>
      </trkpt>
      <trkpt lat="46.42678" lon="5.94001">
        <ele>1114.4000244141</ele>
        <time>2014-06-01T08:54:26.000Z</time>
      </trkpt>
      <trkpt lat="46.42674" lon="5.93985">
        <ele>1113</ele>
        <time>2014-06-01T08:54:32.000Z</time>
      </trkpt>
      <trkpt lat="46.4267" lon="5.93976">
        <ele>1112.8000488281</ele>
        <time>2014-06-01T08:54:36.000Z</time>
      </trkpt>
      <trkpt lat="46.42664" lon="5.93971">
        <ele>1113.4000244141</ele>
        <time>2014-06-01T08:54:41.000Z</time>
      </trkpt>
      <trkpt lat="46.42661" lon="5.93964">
        <ele>1112.5999755859</ele>
        <time>2014-06-01T08:54:44.000Z</time>
      </trkpt>
      <trkpt lat="46.42661" lon="5.93958">
        <ele>1111.5999755859</ele>
        <time>2014-06-01T08:54:48.000Z</time>
      </trkpt>
      <trkpt lat="46.4266" lon="5.9395">
        <ele>1110.5999755859</ele>
        <time>2014-06-01T08:54:54.000Z</time>
      </trkpt>
      <trkpt lat="46.42658" lon="5.93947">
        <ele>1110.5999755859</ele>
        <time>2014-06-01T08:54:56.000Z</time>
      </trkpt>
      <trkpt lat="46.42656" lon="5.93936">
        <ele>1109</ele>
        <time>2014-06-01T08:55:01.000Z</time>
      </trkpt>
      <trkpt lat="46.42655" lon="5.93926">
        <ele>1107.5999755859</ele>
        <time>2014-06-01T08:55:06.000Z</time>
      </trkpt>
      <trkpt lat="46.42655" lon="5.93923">
        <ele>1107</ele>
        <time>2014-06-01T08:55:08.000Z</time>
      </trkpt>
      <trkpt lat="46.42656" lon="5.93917">
        <ele>1106</ele>
        <time>2014-06-01T08:55:12.000Z</time>
      </trkpt>
      <trkpt lat="46.42658" lon="5.93905">
        <ele>1103.4000244141</ele>
        <time>2014-06-01T08:55:18.000Z</time>
      </trkpt>
      <trkpt lat="46.42656" lon="5.93895">
        <ele>1102.1999511719</ele>
        <time>2014-06-01T08:55:23.000Z</time>
      </trkpt>
      <trkpt lat="46.42654" lon="5.93889">
        <ele>1101.8000488281</ele>
        <time>2014-06-01T08:55:29.000Z</time>
      </trkpt>
      <trkpt lat="46.42652" lon="5.93876">
        <ele>1100.8000488281</ele>
        <time>2014-06-01T08:55:34.000Z</time>
      </trkpt>
      <trkpt lat="46.42652" lon="5.93874">
        <ele>1100.5999755859</ele>
        <time>2014-06-01T08:55:35.000Z</time>
      </trkpt>
      <trkpt lat="46.42651" lon="5.93857">
        <ele>1099</ele>
        <time>2014-06-01T08:55:41.000Z</time>
      </trkpt>
      <trkpt lat="46.42651" lon="5.9385">
        <ele>1098</ele>
        <time>2014-06-01T08:55:43.000Z</time>
      </trkpt>
      <trkpt lat="46.42649" lon="5.93838">
        <ele>1097.1999511719</ele>
        <time>2014-06-01T08:55:49.000Z</time>
      </trkpt>
      <trkpt lat="46.42649" lon="5.93832">
        <ele>1096.5999755859</ele>
        <time>2014-06-01T08:55:53.000Z</time>
      </trkpt>
      <trkpt lat="46.42649" lon="5.93828">
        <ele>1096.1999511719</ele>
        <time>2014-06-01T08:55:58.000Z</time>
      </trkpt>
      <trkpt lat="46.42649" lon="5.93826">
        <ele>1096</ele>
        <time>2014-06-01T08:55:59.000Z</time>
      </trkpt>
      <trkpt lat="46.42653" lon="5.93823">
        <ele>1094.8000488281</ele>
        <time>2014-06-01T08:56:02.000Z</time>
      </trkpt>
      <trkpt lat="46.42655" lon="5.93815">
        <ele>1093.5999755859</ele>
        <time>2014-06-01T08:56:05.000Z</time>
      </trkpt>
      <trkpt lat="46.42652" lon="5.93803">
        <ele>1092.8000488281</ele>
        <time>2014-06-01T08:56:10.000Z</time>
      </trkpt>
      <trkpt lat="46.42645" lon="5.93805">
        <ele>1094.4000244141</ele>
        <time>2014-06-01T08:56:14.000Z</time>
      </trkpt>
      <trkpt lat="46.42644" lon="5.93803">
        <ele>1094.5999755859</ele>
        <time>2014-06-01T08:56:16.000Z</time>
      </trkpt>
      <trkpt lat="46.42641" lon="5.93801">
        <ele>1094.8000488281</ele>
        <time>2014-06-01T08:56:21.000Z</time>
      </trkpt>
      <trkpt lat="46.42639" lon="5.93798">
        <ele>1094.8000488281</ele>
        <time>2014-06-01T08:56:25.000Z</time>
      </trkpt>
      <trkpt lat="46.42641" lon="5.93796">
        <ele>1094.1999511719</ele>
        <time>2014-06-01T08:56:32.000Z</time>
      </trkpt>
      <trkpt lat="46.42645" lon="5.93793">
        <ele>1093.1999511719</ele>
        <time>2014-06-01T08:56:40.000Z</time>
      </trkpt>
      <trkpt lat="46.42647" lon="5.93788">
        <ele>1092.4000244141</ele>
        <time>2014-06-01T08:56:46.000Z</time>
      </trkpt>
      <trkpt lat="46.4265" lon="5.93788">
        <ele>1091.8000488281</ele>
        <time>2014-06-01T08:56:48.000Z</time>
      </trkpt>
      <trkpt lat="46.42655" lon="5.93787">
        <ele>1090.8000488281</ele>
        <time>2014-06-01T08:56:50.000Z</time>
      </trkpt>
      <trkpt lat="46.42668" lon="5.93768">
        <ele>1086.1999511719</ele>
        <time>2014-06-01T08:56:55.000Z</time>
      </trkpt>
      <trkpt lat="46.42682" lon="5.93749">
        <ele>1081.8000488281</ele>
        <time>2014-06-01T08:57:01.000Z</time>
      </trkpt>
      <trkpt lat="46.42684" lon="5.93744">
        <ele>1081</ele>
        <time>2014-06-01T08:57:04.000Z</time>
      </trkpt>
      <trkpt lat="46.42685" lon="5.93743">
        <ele>1080.8000488281</ele>
        <time>2014-06-01T08:57:07.000Z</time>
      </trkpt>
      <trkpt lat="46.42687" lon="5.9374">
        <ele>1080.1999511719</ele>
        <time>2014-06-01T08:57:09.000Z</time>
      </trkpt>
      <trkpt lat="46.42702" lon="5.93725">
        <ele>1076.5999755859</ele>
        <time>2014-06-01T08:57:15.000Z</time>
      </trkpt>
      <trkpt lat="46.42711" lon="5.9371">
        <ele>1073</ele>
        <time>2014-06-01T08:57:20.000Z</time>
      </trkpt>
      <trkpt lat="46.42716" lon="5.93705">
        <ele>1071.5999755859</ele>
        <time>2014-06-01T08:57:24.000Z</time>
      </trkpt>
      <trkpt lat="46.42725" lon="5.9369">
        <ele>1069.1999511719</ele>
        <time>2014-06-01T08:57:30.000Z</time>
      </trkpt>
      <trkpt lat="46.42725" lon="5.93681">
        <ele>1068.1999511719</ele>
        <time>2014-06-01T08:57:34.000Z</time>
      </trkpt>
      <trkpt lat="46.42727" lon="5.93674">
        <ele>1067.4000244141</ele>
        <time>2014-06-01T08:57:38.000Z</time>
      </trkpt>
      <trkpt lat="46.42727" lon="5.93665">
        <ele>1066.5999755859</ele>
        <time>2014-06-01T08:57:43.000Z</time>
      </trkpt>
      <trkpt lat="46.42729" lon="5.93654">
        <ele>1065.5999755859</ele>
        <time>2014-06-01T08:57:49.000Z</time>
      </trkpt>
      <trkpt lat="46.42729" lon="5.93651">
        <ele>1065.1999511719</ele>
        <time>2014-06-01T08:57:53.000Z</time>
      </trkpt>
      <trkpt lat="46.4273" lon="5.9365">
        <ele>1065</ele>
        <time>2014-06-01T08:57:54.000Z</time>
      </trkpt>
      <trkpt lat="46.42729" lon="5.93639">
        <ele>1064.1999511719</ele>
        <time>2014-06-01T08:57:58.000Z</time>
      </trkpt>
      <trkpt lat="46.42732" lon="5.93627">
        <ele>1062.4000244141</ele>
        <time>2014-06-01T08:58:02.000Z</time>
      </trkpt>
      <trkpt lat="46.42735" lon="5.93626">
        <ele>1062</ele>
        <time>2014-06-01T08:58:04.000Z</time>
      </trkpt>
      <trkpt lat="46.42739" lon="5.93624">
        <ele>1061.1999511719</ele>
        <time>2014-06-01T08:58:08.000Z</time>
      </trkpt>
      <trkpt lat="46.42745" lon="5.93618">
        <ele>1060</ele>
        <time>2014-06-01T08:58:13.000Z</time>
      </trkpt>
      <trkpt lat="46.42754" lon="5.93616">
        <ele>1058.8000488281</ele>
        <time>2014-06-01T08:58:18.000Z</time>
      </trkpt>
      <trkpt lat="46.42757" lon="5.93615">
        <ele>1058.1999511719</ele>
        <time>2014-06-01T08:58:20.000Z</time>
      </trkpt>
      <trkpt lat="46.42761" lon="5.93619">
        <ele>1058.4000244141</ele>
        <time>2014-06-01T08:58:26.000Z</time>
      </trkpt>
      <trkpt lat="46.42758" lon="5.93618">
        <ele>1058.4000244141</ele>
        <time>2014-06-01T08:58:31.000Z</time>
      </trkpt>
      <trkpt lat="46.42758" lon="5.93613">
        <ele>1058</ele>
        <time>2014-06-01T08:58:43.000Z</time>
      </trkpt>
      <trkpt lat="46.42763" lon="5.93605">
        <ele>1056.4000244141</ele>
        <time>2014-06-01T08:58:48.000Z</time>
      </trkpt>
      <trkpt lat="46.42771" lon="5.93599">
        <ele>1054.8000488281</ele>
        <time>2014-06-01T08:58:54.000Z</time>
      </trkpt>
      <trkpt lat="46.42778" lon="5.9359">
        <ele>1053.4000244141</ele>
        <time>2014-06-01T08:58:58.000Z</time>
      </trkpt>
      <trkpt lat="46.42787" lon="5.93566">
        <ele>1050.1999511719</ele>
        <time>2014-06-01T08:59:03.000Z</time>
      </trkpt>
      <trkpt lat="46.42795" lon="5.93551">
        <ele>1048.1999511719</ele>
        <time>2014-06-01T08:59:07.000Z</time>
      </trkpt>
      <trkpt lat="46.42804" lon="5.93537">
        <ele>1046.4000244141</ele>
        <time>2014-06-01T08:59:11.000Z</time>
      </trkpt>
      <trkpt lat="46.42815" lon="5.93531">
        <ele>1044.5999755859</ele>
        <time>2014-06-01T08:59:15.000Z</time>
      </trkpt>
      <trkpt lat="46.42822" lon="5.93515">
        <ele>1042.1999511719</ele>
        <time>2014-06-01T08:59:19.000Z</time>
      </trkpt>
      <trkpt lat="46.42825" lon="5.93499">
        <ele>1040.4000244141</ele>
        <time>2014-06-01T08:59:23.000Z</time>
      </trkpt>
      <trkpt lat="46.42827" lon="5.93494">
        <ele>1039.5999755859</ele>
        <time>2014-06-01T08:59:25.000Z</time>
      </trkpt>
      <trkpt lat="46.42837" lon="5.93482">
        <ele>1037.8000488281</ele>
        <time>2014-06-01T08:59:31.000Z</time>
      </trkpt>
      <trkpt lat="46.42849" lon="5.93475">
        <ele>1036.4000244141</ele>
        <time>2014-06-01T08:59:35.000Z</time>
      </trkpt>
      <trkpt lat="46.42858" lon="5.93475">
        <ele>1035.5999755859</ele>
        <time>2014-06-01T08:59:38.000Z</time>
      </trkpt>
      <trkpt lat="46.42875" lon="5.93467">
        <ele>1033.8000488281</ele>
        <time>2014-06-01T08:59:43.000Z</time>
      </trkpt>
      <trkpt lat="46.42888" lon="5.93447">
        <ele>1031.8000488281</ele>
        <time>2014-06-01T08:59:48.000Z</time>
      </trkpt>
      <trkpt lat="46.42897" lon="5.93427">
        <ele>1030</ele>
        <time>2014-06-01T08:59:53.000Z</time>
      </trkpt>
      <trkpt lat="46.42898" lon="5.93423">
        <ele>1029.5999755859</ele>
        <time>2014-06-01T08:59:54.000Z</time>
      </trkpt>
      <trkpt lat="46.42901" lon="5.93411">
        <ele>1028.5999755859</ele>
        <time>2014-06-01T09:00:00.000Z</time>
      </trkpt>
      <trkpt lat="46.42902" lon="5.93398">
        <ele>1028</ele>
        <time>2014-06-01T09:00:04.000Z</time>
      </trkpt>
      <trkpt lat="46.42906" lon="5.93374">
        <ele>1026.8000488281</ele>
        <time>2014-06-01T09:00:09.000Z</time>
      </trkpt>
      <trkpt lat="46.4291" lon="5.93361">
        <ele>1026</ele>
        <time>2014-06-01T09:00:13.000Z</time>
      </trkpt>
      <trkpt lat="46.42915" lon="5.93342">
        <ele>1024.8000488281</ele>
        <time>2014-06-01T09:00:18.000Z</time>
      </trkpt>
      <trkpt lat="46.4292" lon="5.93321">
        <ele>1023.799987793</ele>
        <time>2014-06-01T09:00:22.000Z</time>
      </trkpt>
      <trkpt lat="46.42927" lon="5.93301">
        <ele>1022.799987793</ele>
        <time>2014-06-01T09:00:27.000Z</time>
      </trkpt>
      <trkpt lat="46.42918" lon="5.93285">
        <ele>1022</ele>
        <time>2014-06-01T09:00:31.000Z</time>
      </trkpt>
      <trkpt lat="46.42913" lon="5.93282">
        <ele>1021.799987793</ele>
        <time>2014-06-01T09:00:37.000Z</time>
      </trkpt>
      <trkpt lat="46.42902" lon="5.93265">
        <ele>1020.799987793</ele>
        <time>2014-06-01T09:00:42.000Z</time>
      </trkpt>
      <trkpt lat="46.42893" lon="5.93252">
        <ele>1020.799987793</ele>
        <time>2014-06-01T09:00:46.000Z</time>
      </trkpt>
      <trkpt lat="46.42882" lon="5.9323">
        <ele>1020.5999755859</ele>
        <time>2014-06-01T09:00:51.000Z</time>
      </trkpt>
      <trkpt lat="46.42875" lon="5.93206">
        <ele>1020.200012207</ele>
        <time>2014-06-01T09:00:56.000Z</time>
      </trkpt>
      <trkpt lat="46.4287" lon="5.93187">
        <ele>1020.200012207</ele>
        <time>2014-06-01T09:01:00.000Z</time>
      </trkpt>
      <trkpt lat="46.42864" lon="5.93167">
        <ele>1020.200012207</ele>
        <time>2014-06-01T09:01:04.000Z</time>
      </trkpt>
      <trkpt lat="46.42859" lon="5.93141">
        <ele>1019.799987793</ele>
        <time>2014-06-01T09:01:09.000Z</time>
      </trkpt>
      <trkpt lat="46.42855" lon="5.93119">
        <ele>1018.4000244141</ele>
        <time>2014-06-01T09:01:13.000Z</time>
      </trkpt>
      <trkpt lat="46.42848" lon="5.93095">
        <ele>1017.4000244141</ele>
        <time>2014-06-01T09:01:18.000Z</time>
      </trkpt>
      <trkpt lat="46.42842" lon="5.93075">
        <ele>1016.799987793</ele>
        <time>2014-06-01T09:01:23.000Z</time>
      </trkpt>
      <trkpt lat="46.42833" lon="5.9305">
        <ele>1016.799987793</ele>
        <time>2014-06-01T09:01:29.000Z</time>
      </trkpt>
      <trkpt lat="46.42822" lon="5.93029">
        <ele>1017.200012207</ele>
        <time>2014-06-01T09:01:34.000Z</time>
      </trkpt>
      <trkpt lat="46.42818" lon="5.93014">
        <ele>1017.4000244141</ele>
        <time>2014-06-01T09:01:38.000Z</time>
      </trkpt>
      <trkpt lat="46.42824" lon="5.93009">
        <ele>1017</ele>
        <time>2014-06-01T09:01:42.000Z</time>
      </trkpt>
      <trkpt lat="46.42827" lon="5.93007">
        <ele>1016.799987793</ele>
        <time>2014-06-01T09:01:44.000Z</time>
      </trkpt>
      <trkpt lat="46.42833" lon="5.93003">
        <ele>1016.4000244141</ele>
        <time>2014-06-01T09:01:50.000Z</time>
      </trkpt>
      <trkpt lat="46.42834" lon="5.93">
        <ele>1016.200012207</ele>
        <time>2014-06-01T09:01:54.000Z</time>
      </trkpt>
      <trkpt lat="46.42833" lon="5.92989">
        <ele>1016.200012207</ele>
        <time>2014-06-01T09:01:59.000Z</time>
      </trkpt>
      <trkpt lat="46.42836" lon="5.92972">
        <ele>1017</ele>
        <time>2014-06-01T09:02:06.000Z</time>
      </trkpt>
      <trkpt lat="46.42839" lon="5.92954">
        <ele>1017.4000244141</ele>
        <time>2014-06-01T09:02:10.000Z</time>
      </trkpt>
      <trkpt lat="46.42841" lon="5.92944">
        <ele>1017.799987793</ele>
        <time>2014-06-01T09:02:12.000Z</time>
      </trkpt>
      <trkpt lat="46.42848" lon="5.92926">
        <ele>1018.200012207</ele>
        <time>2014-06-01T09:02:18.000Z</time>
      </trkpt>
      <trkpt lat="46.42855" lon="5.92912">
        <ele>1019</ele>
        <time>2014-06-01T09:02:22.000Z</time>
      </trkpt>
      <trkpt lat="46.42863" lon="5.92888">
        <ele>1020.200012207</ele>
        <time>2014-06-01T09:02:29.000Z</time>
      </trkpt>
      <trkpt lat="46.4287" lon="5.92875">
        <ele>1021</ele>
        <time>2014-06-01T09:02:34.000Z</time>
      </trkpt>
      <trkpt lat="46.42871" lon="5.92872">
        <ele>1021.200012207</ele>
        <time>2014-06-01T09:02:36.000Z</time>
      </trkpt>
      <trkpt lat="46.42871" lon="5.92866">
        <ele>1021.5999755859</ele>
        <time>2014-06-01T09:02:39.000Z</time>
      </trkpt>
      <trkpt lat="46.42865" lon="5.92855">
        <ele>1022</ele>
        <time>2014-06-01T09:02:45.000Z</time>
      </trkpt>
      <trkpt lat="46.42863" lon="5.9285">
        <ele>1022.200012207</ele>
        <time>2014-06-01T09:02:53.000Z</time>
      </trkpt>
      <trkpt lat="46.42869" lon="5.92865">
        <ele>1021.4000244141</ele>
        <time>2014-06-01T09:02:58.000Z</time>
      </trkpt>
      <trkpt lat="46.4287" lon="5.92872">
        <ele>1021.200012207</ele>
        <time>2014-06-01T09:03:01.000Z</time>
      </trkpt>
      <trkpt lat="46.42871" lon="5.92878">
        <ele>1021</ele>
        <time>2014-06-01T09:03:06.000Z</time>
      </trkpt>
      <trkpt lat="46.42873" lon="5.92876">
        <ele>1021</ele>
        <time>2014-06-01T09:03:13.000Z</time>
      </trkpt>
      <trkpt lat="46.42882" lon="5.92865">
        <ele>1022.200012207</ele>
        <time>2014-06-01T09:03:18.000Z</time>
      </trkpt>
      <trkpt lat="46.42884" lon="5.92864">
        <ele>1022.200012207</ele>
        <time>2014-06-01T09:03:19.000Z</time>
      </trkpt>
      <trkpt lat="46.42894" lon="5.92859">
        <ele>1023.4000244141</ele>
        <time>2014-06-01T09:03:24.000Z</time>
      </trkpt>
      <trkpt lat="46.42901" lon="5.9285">
        <ele>1024.5999755859</ele>
        <time>2014-06-01T09:03:28.000Z</time>
      </trkpt>
      <trkpt lat="46.42905" lon="5.92847">
        <ele>1025.1999511719</ele>
        <time>2014-06-01T09:03:30.000Z</time>
      </trkpt>
      <trkpt lat="46.42909" lon="5.92846">
        <ele>1025.4000244141</ele>
        <time>2014-06-01T09:03:32.000Z</time>
      </trkpt>
      <trkpt lat="46.42921" lon="5.92834">
        <ele>1027.1999511719</ele>
        <time>2014-06-01T09:03:38.000Z</time>
      </trkpt>
      <trkpt lat="46.4293" lon="5.92822">
        <ele>1028.8000488281</ele>
        <time>2014-06-01T09:03:43.000Z</time>
      </trkpt>
      <trkpt lat="46.4293" lon="5.9282">
        <ele>1029</ele>
        <time>2014-06-01T09:03:44.000Z</time>
      </trkpt>
      <trkpt lat="46.42929" lon="5.92802">
        <ele>1030.1999511719</ele>
        <time>2014-06-01T09:03:50.000Z</time>
      </trkpt>
      <trkpt lat="46.42933" lon="5.92796">
        <ele>1030.8000488281</ele>
        <time>2014-06-01T09:03:52.000Z</time>
      </trkpt>
      <trkpt lat="46.42942" lon="5.92785">
        <ele>1032.1999511719</ele>
        <time>2014-06-01T09:03:58.000Z</time>
      </trkpt>
      <trkpt lat="46.42948" lon="5.92778">
        <ele>1033</ele>
        <time>2014-06-01T09:04:03.000Z</time>
      </trkpt>
      <trkpt lat="46.42949" lon="5.92776">
        <ele>1033.1999511719</ele>
        <time>2014-06-01T09:04:11.000Z</time>
      </trkpt>
      <trkpt lat="46.4295" lon="5.92777">
        <ele>1033.1999511719</ele>
        <time>2014-06-01T09:04:14.000Z</time>
      </trkpt>
      <trkpt lat="46.42944" lon="5.92781">
        <ele>1032.5999755859</ele>
        <time>2014-06-01T09:04:18.000Z</time>
      </trkpt>
      <trkpt lat="46.42942" lon="5.9277">
        <ele>1033.1999511719</ele>
        <time>2014-06-01T09:04:23.000Z</time>
      </trkpt>
      <trkpt lat="46.42943" lon="5.92758">
        <ele>1034.4000244141</ele>
        <time>2014-06-01T09:04:28.000Z</time>
      </trkpt>
      <trkpt lat="46.42945" lon="5.92752">
        <ele>1035.1999511719</ele>
        <time>2014-06-01T09:04:30.000Z</time>
      </trkpt>
      <trkpt lat="46.42948" lon="5.92742">
        <ele>1036.4000244141</ele>
        <time>2014-06-01T09:04:36.000Z</time>
      </trkpt>
      <trkpt lat="46.42949" lon="5.92737">
        <ele>1037</ele>
        <time>2014-06-01T09:04:44.000Z</time>
      </trkpt>
      <trkpt lat="46.42955" lon="5.92731">
        <ele>1038</ele>
        <time>2014-06-01T09:04:49.000Z</time>
      </trkpt>
      <trkpt lat="46.4296" lon="5.92727">
        <ele>1038.8000488281</ele>
        <time>2014-06-01T09:04:53.000Z</time>
      </trkpt>
      <trkpt lat="46.42967" lon="5.9272">
        <ele>1040</ele>
        <time>2014-06-01T09:04:58.000Z</time>
      </trkpt>
      <trkpt lat="46.42974" lon="5.92715">
        <ele>1041</ele>
        <time>2014-06-01T09:05:02.000Z</time>
      </trkpt>
      <trkpt lat="46.42975" lon="5.92715">
        <ele>1041.1999511719</ele>
        <time>2014-06-01T09:05:03.000Z</time>
      </trkpt>
      <trkpt lat="46.42983" lon="5.92708">
        <ele>1042.5999755859</ele>
        <time>2014-06-01T09:05:08.000Z</time>
      </trkpt>
      <trkpt lat="46.42985" lon="5.92706">
        <ele>1042.5999755859</ele>
        <time>2014-06-01T09:05:09.000Z</time>
      </trkpt>
      <trkpt lat="46.42988" lon="5.92702">
        <ele>1042.8000488281</ele>
        <time>2014-06-01T09:05:11.000Z</time>
      </trkpt>
      <trkpt lat="46.42994" lon="5.92688">
        <ele>1044</ele>
        <time>2014-06-01T09:05:16.000Z</time>
      </trkpt>
      <trkpt lat="46.42997" lon="5.92681">
        <ele>1044.5999755859</ele>
        <time>2014-06-01T09:05:18.000Z</time>
      </trkpt>
      <trkpt lat="46.42995" lon="5.92662">
        <ele>1046.4000244141</ele>
        <time>2014-06-01T09:05:25.000Z</time>
      </trkpt>
      <trkpt lat="46.42996" lon="5.92647">
        <ele>1047.5999755859</ele>
        <time>2014-06-01T09:05:33.000Z</time>
      </trkpt>
      <trkpt lat="46.42997" lon="5.9264">
        <ele>1048</ele>
        <time>2014-06-01T09:05:37.000Z</time>
      </trkpt>
      <trkpt lat="46.42996" lon="5.92637">
        <ele>1048.1999511719</ele>
        <time>2014-06-01T09:05:39.000Z</time>
      </trkpt>
      <trkpt lat="46.42994" lon="5.92633">
        <ele>1048.8000488281</ele>
        <time>2014-06-01T09:05:42.000Z</time>
      </trkpt>
      <trkpt lat="46.42992" lon="5.92628">
        <ele>1049.4000244141</ele>
        <time>2014-06-01T09:05:44.000Z</time>
      </trkpt>
      <trkpt lat="46.42988" lon="5.92619">
        <ele>1050.4000244141</ele>
        <time>2014-06-01T09:05:49.000Z</time>
      </trkpt>
      <trkpt lat="46.42986" lon="5.92607">
        <ele>1051.4000244141</ele>
        <time>2014-06-01T09:05:54.000Z</time>
      </trkpt>
      <trkpt lat="46.42977" lon="5.92592">
        <ele>1052.8000488281</ele>
        <time>2014-06-01T09:06:00.000Z</time>
      </trkpt>
      <trkpt lat="46.42972" lon="5.9258">
        <ele>1053.1999511719</ele>
        <time>2014-06-01T09:06:04.000Z</time>
      </trkpt>
      <trkpt lat="46.42968" lon="5.92564">
        <ele>1054.4000244141</ele>
        <time>2014-06-01T09:06:09.000Z</time>
      </trkpt>
      <trkpt lat="46.42964" lon="5.92546">
        <ele>1055.1999511719</ele>
        <time>2014-06-01T09:06:14.000Z</time>
      </trkpt>
      <trkpt lat="46.42962" lon="5.9254">
        <ele>1055.4000244141</ele>
        <time>2014-06-01T09:06:16.000Z</time>
      </trkpt>
      <trkpt lat="46.42956" lon="5.92536">
        <ele>1055</ele>
        <time>2014-06-01T09:06:22.000Z</time>
      </trkpt>
      <trkpt lat="46.42958" lon="5.92529">
        <ele>1055.4000244141</ele>
        <time>2014-06-01T09:06:27.000Z</time>
      </trkpt>
      <trkpt lat="46.42962" lon="5.92523">
        <ele>1055.5999755859</ele>
        <time>2014-06-01T09:06:31.000Z</time>
      </trkpt>
      <trkpt lat="46.42968" lon="5.92512">
        <ele>1056</ele>
        <time>2014-06-01T09:06:35.000Z</time>
      </trkpt>
      <trkpt lat="46.4297" lon="5.9251">
        <ele>1056.1999511719</ele>
        <time>2014-06-01T09:06:36.000Z</time>
      </trkpt>
      <trkpt lat="46.42972" lon="5.92507">
        <ele>1056.1999511719</ele>
        <time>2014-06-01T09:06:38.000Z</time>
      </trkpt>
      <trkpt lat="46.42972" lon="5.92497">
        <ele>1056.4000244141</ele>
        <time>2014-06-01T09:06:43.000Z</time>
      </trkpt>
      <trkpt lat="46.42973" lon="5.92496">
        <ele>1056.4000244141</ele>
        <time>2014-06-01T09:06:44.000Z</time>
      </trkpt>
      <trkpt lat="46.42977" lon="5.92485">
        <ele>1056.5999755859</ele>
        <time>2014-06-01T09:06:50.000Z</time>
      </trkpt>
      <trkpt lat="46.42977" lon="5.92481">
        <ele>1056.8000488281</ele>
        <time>2014-06-01T09:06:53.000Z</time>
      </trkpt>
      <trkpt lat="46.42971" lon="5.92465">
        <ele>1056.8000488281</ele>
        <time>2014-06-01T09:06:59.000Z</time>
      </trkpt>
      <trkpt lat="46.42965" lon="5.9245">
        <ele>1056.4000244141</ele>
        <time>2014-06-01T09:07:03.000Z</time>
      </trkpt>
      <trkpt lat="46.42956" lon="5.92434">
        <ele>1055.8000488281</ele>
        <time>2014-06-01T09:07:08.000Z</time>
      </trkpt>
      <trkpt lat="46.4295" lon="5.92424">
        <ele>1055.4000244141</ele>
        <time>2014-06-01T09:07:13.000Z</time>
      </trkpt>
      <trkpt lat="46.42942" lon="5.92417">
        <ele>1055.1999511719</ele>
        <time>2014-06-01T09:07:18.000Z</time>
      </trkpt>
      <trkpt lat="46.42934" lon="5.92424">
        <ele>1056.4000244141</ele>
        <time>2014-06-01T09:07:25.000Z</time>
      </trkpt>
      <trkpt lat="46.4293" lon="5.9241">
        <ele>1055.5999755859</ele>
        <time>2014-06-01T09:07:30.000Z</time>
      </trkpt>
      <trkpt lat="46.42926" lon="5.92394">
        <ele>1054.5999755859</ele>
        <time>2014-06-01T09:07:34.000Z</time>
      </trkpt>
      <trkpt lat="46.42922" lon="5.92379">
        <ele>1054.4000244141</ele>
        <time>2014-06-01T09:07:38.000Z</time>
      </trkpt>
      <trkpt lat="46.42915" lon="5.92365">
        <ele>1054.5999755859</ele>
        <time>2014-06-01T09:07:42.000Z</time>
      </trkpt>
      <trkpt lat="46.42907" lon="5.92343">
        <ele>1055</ele>
        <time>2014-06-01T09:07:47.000Z</time>
      </trkpt>
      <trkpt lat="46.42903" lon="5.92334">
        <ele>1055</ele>
        <time>2014-06-01T09:07:51.000Z</time>
      </trkpt>
      <trkpt lat="46.42898" lon="5.92329">
        <ele>1055.1999511719</ele>
        <time>2014-06-01T09:07:58.000Z</time>
      </trkpt>
      <trkpt lat="46.42898" lon="5.92325">
        <ele>1055.1999511719</ele>
        <time>2014-06-01T09:08:00.000Z</time>
      </trkpt>
      <trkpt lat="46.42904" lon="5.92319">
        <ele>1054.8000488281</ele>
        <time>2014-06-01T09:08:06.000Z</time>
      </trkpt>
      <trkpt lat="46.42907" lon="5.92313">
        <ele>1054.4000244141</ele>
        <time>2014-06-01T09:08:11.000Z</time>
      </trkpt>
      <trkpt lat="46.42908" lon="5.92311">
        <ele>1054.1999511719</ele>
        <time>2014-06-01T09:08:12.000Z</time>
      </trkpt>
      <trkpt lat="46.42912" lon="5.92298">
        <ele>1052.8000488281</ele>
        <time>2014-06-01T09:08:17.000Z</time>
      </trkpt>
      <trkpt lat="46.42913" lon="5.92293">
        <ele>1052.1999511719</ele>
        <time>2014-06-01T09:08:22.000Z</time>
      </trkpt>
      <trkpt lat="46.42911" lon="5.92287">
        <ele>1052.1999511719</ele>
        <time>2014-06-01T09:08:27.000Z</time>
      </trkpt>
      <trkpt lat="46.42902" lon="5.92272">
        <ele>1052.5999755859</ele>
        <time>2014-06-01T09:08:33.000Z</time>
      </trkpt>
      <trkpt lat="46.42902" lon="5.92269">
        <ele>1052.4000244141</ele>
        <time>2014-06-01T09:08:35.000Z</time>
      </trkpt>
      <trkpt lat="46.42904" lon="5.92259">
        <ele>1051.4000244141</ele>
        <time>2014-06-01T09:08:40.000Z</time>
      </trkpt>
      <trkpt lat="46.42905" lon="5.92254">
        <ele>1051</ele>
        <time>2014-06-01T09:08:45.000Z</time>
      </trkpt>
      <trkpt lat="46.42916" lon="5.92264">
        <ele>1050</ele>
        <time>2014-06-01T09:08:50.000Z</time>
      </trkpt>
      <trkpt lat="46.42915" lon="5.92268">
        <ele>1050.4000244141</ele>
        <time>2014-06-01T09:08:53.000Z</time>
      </trkpt>
      <trkpt lat="46.42914" lon="5.92263">
        <ele>1050.4000244141</ele>
        <time>2014-06-01T09:08:58.000Z</time>
      </trkpt>
      <trkpt lat="46.42914" lon="5.92262">
        <ele>1050.1999511719</ele>
        <time>2014-06-01T09:08:59.000Z</time>
      </trkpt>
      <trkpt lat="46.42912" lon="5.92254">
        <ele>1050</ele>
        <time>2014-06-01T09:09:04.000Z</time>
      </trkpt>
      <trkpt lat="46.42908" lon="5.9225">
        <ele>1050.4000244141</ele>
        <time>2014-06-01T09:09:07.000Z</time>
      </trkpt>
      <trkpt lat="46.42906" lon="5.92241">
        <ele>1050.1999511719</ele>
        <time>2014-06-01T09:09:11.000Z</time>
      </trkpt>
      <trkpt lat="46.42902" lon="5.92233">
        <ele>1050.1999511719</ele>
        <time>2014-06-01T09:09:17.000Z</time>
      </trkpt>
      <trkpt lat="46.4289" lon="5.92229">
        <ele>1050</ele>
        <time>2014-06-01T09:09:22.000Z</time>
      </trkpt>
      <trkpt lat="46.42885" lon="5.92228">
        <ele>1049.8000488281</ele>
        <time>2014-06-01T09:09:24.000Z</time>
      </trkpt>
      <trkpt lat="46.42878" lon="5.9222">
        <ele>1049.1999511719</ele>
        <time>2014-06-01T09:09:29.000Z</time>
      </trkpt>
      <trkpt lat="46.42872" lon="5.92219">
        <ele>1049</ele>
        <time>2014-06-01T09:09:34.000Z</time>
      </trkpt>
      <trkpt lat="46.42871" lon="5.92218">
        <ele>1048.8000488281</ele>
        <time>2014-06-01T09:09:35.000Z</time>
      </trkpt>
      <trkpt lat="46.42869" lon="5.92216">
        <ele>1048.8000488281</ele>
        <time>2014-06-01T09:09:39.000Z</time>
      </trkpt>
      <trkpt lat="46.42863" lon="5.92197">
        <ele>1048</ele>
        <time>2014-06-01T09:09:45.000Z</time>
      </trkpt>
      <trkpt lat="46.42857" lon="5.92194">
        <ele>1047.8000488281</ele>
        <time>2014-06-01T09:09:49.000Z</time>
      </trkpt>
      <trkpt lat="46.42852" lon="5.92199">
        <ele>1047.8000488281</ele>
        <time>2014-06-01T09:09:54.000Z</time>
      </trkpt>
      <trkpt lat="46.4284" lon="5.922">
        <ele>1047.4000244141</ele>
        <time>2014-06-01T09:09:59.000Z</time>
      </trkpt>
      <trkpt lat="46.4283" lon="5.92209">
        <ele>1047.1999511719</ele>
        <time>2014-06-01T09:10:03.000Z</time>
      </trkpt>
      <trkpt lat="46.42816" lon="5.92212">
        <ele>1046.8000488281</ele>
        <time>2014-06-01T09:10:07.000Z</time>
      </trkpt>
      <trkpt lat="46.42803" lon="5.92211">
        <ele>1045.8000488281</ele>
        <time>2014-06-01T09:10:11.000Z</time>
      </trkpt>
      <trkpt lat="46.42793" lon="5.92214">
        <ele>1044.1999511719</ele>
        <time>2014-06-01T09:10:16.000Z</time>
      </trkpt>
      <trkpt lat="46.42789" lon="5.92212">
        <ele>1043.8000488281</ele>
        <time>2014-06-01T09:10:20.000Z</time>
      </trkpt>
      <trkpt lat="46.42777" lon="5.92213">
        <ele>1042</ele>
        <time>2014-06-01T09:10:35.000Z</time>
      </trkpt>
      <trkpt lat="46.42772" lon="5.92213">
        <ele>1041.1999511719</ele>
        <time>2014-06-01T09:10:39.000Z</time>
      </trkpt>
      <trkpt lat="46.42758" lon="5.92199">
        <ele>1040</ele>
        <time>2014-06-01T09:10:44.000Z</time>
      </trkpt>
      <trkpt lat="46.42749" lon="5.9219">
        <ele>1039</ele>
        <time>2014-06-01T09:10:47.000Z</time>
      </trkpt>
      <trkpt lat="46.42738" lon="5.9219">
        <ele>1037.4000244141</ele>
        <time>2014-06-01T09:10:53.000Z</time>
      </trkpt>
      <trkpt lat="46.42732" lon="5.92194">
        <ele>1036.4000244141</ele>
        <time>2014-06-01T09:10:59.000Z</time>
      </trkpt>
      <trkpt lat="46.42733" lon="5.92194">
        <ele>1036.5999755859</ele>
        <time>2014-06-01T09:11:14.000Z</time>
      </trkpt>
      <trkpt lat="46.42746" lon="5.92189">
        <ele>1038.5999755859</ele>
        <time>2014-06-01T09:11:19.000Z</time>
      </trkpt>
      <trkpt lat="46.42751" lon="5.92186">
        <ele>1039.4000244141</ele>
        <time>2014-06-01T09:11:22.000Z</time>
      </trkpt>
      <trkpt lat="46.4276" lon="5.92181">
        <ele>1041.1999511719</ele>
        <time>2014-06-01T09:11:29.000Z</time>
      </trkpt>
      <trkpt lat="46.42763" lon="5.92178">
        <ele>1041.5999755859</ele>
        <time>2014-06-01T09:11:33.000Z</time>
      </trkpt>
      <trkpt lat="46.42768" lon="5.92175">
        <ele>1042.4000244141</ele>
        <time>2014-06-01T09:11:37.000Z</time>
      </trkpt>
      <trkpt lat="46.42771" lon="5.92171">
        <ele>1042.5999755859</ele>
        <time>2014-06-01T09:11:39.000Z</time>
      </trkpt>
      <trkpt lat="46.42775" lon="5.92164">
        <ele>1042.5999755859</ele>
        <time>2014-06-01T09:11:44.000Z</time>
      </trkpt>
      <trkpt lat="46.42777" lon="5.9216">
        <ele>1042.5999755859</ele>
        <time>2014-06-01T09:11:47.000Z</time>
      </trkpt>
      <trkpt lat="46.42778" lon="5.92152">
        <ele>1042.5999755859</ele>
        <time>2014-06-01T09:11:52.000Z</time>
      </trkpt>
      <trkpt lat="46.42778" lon="5.92143">
        <ele>1042.4000244141</ele>
        <time>2014-06-01T09:11:56.000Z</time>
      </trkpt>
      <trkpt lat="46.4278" lon="5.92137">
        <ele>1042.4000244141</ele>
        <time>2014-06-01T09:11:59.000Z</time>
      </trkpt>
      <trkpt lat="46.42781" lon="5.92126">
        <ele>1042.4000244141</ele>
        <time>2014-06-01T09:12:04.000Z</time>
      </trkpt>
      <trkpt lat="46.42778" lon="5.9212">
        <ele>1042</ele>
        <time>2014-06-01T09:12:07.000Z</time>
      </trkpt>
      <trkpt lat="46.42777" lon="5.92108">
        <ele>1041.8000488281</ele>
        <time>2014-06-01T09:12:12.000Z</time>
      </trkpt>
      <trkpt lat="46.42773" lon="5.92097">
        <ele>1041.4000244141</ele>
        <time>2014-06-01T09:12:17.000Z</time>
      </trkpt>
      <trkpt lat="46.42766" lon="5.9209">
        <ele>1040.8000488281</ele>
        <time>2014-06-01T09:12:21.000Z</time>
      </trkpt>
      <trkpt lat="46.42763" lon="5.92087">
        <ele>1040.5999755859</ele>
        <time>2014-06-01T09:12:24.000Z</time>
      </trkpt>
      <trkpt lat="46.4276" lon="5.92089">
        <ele>1040.4000244141</ele>
        <time>2014-06-01T09:12:28.000Z</time>
      </trkpt>
      <trkpt lat="46.42758" lon="5.9208">
        <ele>1040</ele>
        <time>2014-06-01T09:12:32.000Z</time>
      </trkpt>
      <trkpt lat="46.42759" lon="5.92067">
        <ele>1039.4000244141</ele>
        <time>2014-06-01T09:12:36.000Z</time>
      </trkpt>
      <trkpt lat="46.42765" lon="5.92061">
        <ele>1039.4000244141</ele>
        <time>2014-06-01T09:12:41.000Z</time>
      </trkpt>
      <trkpt lat="46.42766" lon="5.92062">
        <ele>1039.4000244141</ele>
        <time>2014-06-01T09:12:45.000Z</time>
      </trkpt>
      <trkpt lat="46.42765" lon="5.92061">
        <ele>1039.4000244141</ele>
        <time>2014-06-01T09:12:48.000Z</time>
      </trkpt>
      <trkpt lat="46.42763" lon="5.92065">
        <ele>1039.4000244141</ele>
        <time>2014-06-01T09:12:53.000Z</time>
      </trkpt>
      <trkpt lat="46.42758" lon="5.92082">
        <ele>1040.1999511719</ele>
        <time>2014-06-01T09:12:58.000Z</time>
      </trkpt>
      <trkpt lat="46.42753" lon="5.92088">
        <ele>1040</ele>
        <time>2014-06-01T09:13:03.000Z</time>
      </trkpt>
      <trkpt lat="46.42752" lon="5.92093">
        <ele>1039.8000488281</ele>
        <time>2014-06-01T09:13:07.000Z</time>
      </trkpt>
      <trkpt lat="46.42742" lon="5.92095">
        <ele>1039.1999511719</ele>
        <time>2014-06-01T09:13:12.000Z</time>
      </trkpt>
      <trkpt lat="46.42738" lon="5.92098">
        <ele>1039</ele>
        <time>2014-06-01T09:13:14.000Z</time>
      </trkpt>
      <trkpt lat="46.42734" lon="5.92109">
        <ele>1038.8000488281</ele>
        <time>2014-06-01T09:13:20.000Z</time>
      </trkpt>
      <trkpt lat="46.42734" lon="5.92117">
        <ele>1038.8000488281</ele>
        <time>2014-06-01T09:13:24.000Z</time>
      </trkpt>
      <trkpt lat="46.42733" lon="5.92128">
        <ele>1039</ele>
        <time>2014-06-01T09:13:29.000Z</time>
      </trkpt>
      <trkpt lat="46.42732" lon="5.9213">
        <ele>1038.8000488281</ele>
        <time>2014-06-01T09:13:30.000Z</time>
      </trkpt>
      <trkpt lat="46.4273" lon="5.92131">
        <ele>1038.5999755859</ele>
        <time>2014-06-01T09:13:32.000Z</time>
      </trkpt>
      <trkpt lat="46.42724" lon="5.92141">
        <ele>1037.4000244141</ele>
        <time>2014-06-01T09:13:37.000Z</time>
      </trkpt>
      <trkpt lat="46.42723" lon="5.92143">
        <ele>1037</ele>
        <time>2014-06-01T09:13:38.000Z</time>
      </trkpt>
      <trkpt lat="46.42714" lon="5.92152">
        <ele>1034.8000488281</ele>
        <time>2014-06-01T09:13:45.000Z</time>
      </trkpt>
      <trkpt lat="46.42702" lon="5.92155">
        <ele>1032.4000244141</ele>
        <time>2014-06-01T09:13:50.000Z</time>
      </trkpt>
      <trkpt lat="46.42696" lon="5.9216">
        <ele>1031.1999511719</ele>
        <time>2014-06-01T09:13:54.000Z</time>
      </trkpt>
      <trkpt lat="46.42688" lon="5.92175">
        <ele>1028.8000488281</ele>
        <time>2014-06-01T09:14:00.000Z</time>
      </trkpt>
      <trkpt lat="46.42676" lon="5.92185">
        <ele>1025.8000488281</ele>
        <time>2014-06-01T09:14:05.000Z</time>
      </trkpt>
      <trkpt lat="46.42669" lon="5.92194">
        <ele>1023.799987793</ele>
        <time>2014-06-01T09:14:11.000Z</time>
      </trkpt>
      <trkpt lat="46.42665" lon="5.92197">
        <ele>1022.799987793</ele>
        <time>2014-06-01T09:14:14.000Z</time>
      </trkpt>
      <trkpt lat="46.42664" lon="5.92198">
        <ele>1022.5999755859</ele>
        <time>2014-06-01T09:14:15.000Z</time>
      </trkpt>
      <trkpt lat="46.42661" lon="5.92199">
        <ele>1022</ele>
        <time>2014-06-01T09:14:20.000Z</time>
      </trkpt>
      <trkpt lat="46.42656" lon="5.92196">
        <ele>1021</ele>
        <time>2014-06-01T09:14:25.000Z</time>
      </trkpt>
      <trkpt lat="46.42655" lon="5.92196">
        <ele>1021</ele>
        <time>2014-06-01T09:14:26.000Z</time>
      </trkpt>
      <trkpt lat="46.4265" lon="5.92186">
        <ele>1020.5999755859</ele>
        <time>2014-06-01T09:14:31.000Z</time>
      </trkpt>
      <trkpt lat="46.42648" lon="5.92182">
        <ele>1020.200012207</ele>
        <time>2014-06-01T09:14:33.000Z</time>
      </trkpt>
      <trkpt lat="46.42635" lon="5.92184">
        <ele>1017.799987793</ele>
        <time>2014-06-01T09:14:37.000Z</time>
      </trkpt>
      <trkpt lat="46.42622" lon="5.92186">
        <ele>1015.200012207</ele>
        <time>2014-06-01T09:14:42.000Z</time>
      </trkpt>
      <trkpt lat="46.42625" lon="5.9219">
        <ele>1015.4000244141</ele>
        <time>2014-06-01T09:14:55.000Z</time>
      </trkpt>
      <trkpt lat="46.42624" lon="5.92197">
        <ele>1014.799987793</ele>
        <time>2014-06-01T09:15:00.000Z</time>
      </trkpt>
      <trkpt lat="46.42622" lon="5.92206">
        <ele>1014</ele>
        <time>2014-06-01T09:15:04.000Z</time>
      </trkpt>
      <trkpt lat="46.42621" lon="5.9221">
        <ele>1013.5999755859</ele>
        <time>2014-06-01T09:15:06.000Z</time>
      </trkpt>
      <trkpt lat="46.42621" lon="5.92212">
        <ele>1013.5999755859</ele>
        <time>2014-06-01T09:15:08.000Z</time>
      </trkpt>
      <trkpt lat="46.42625" lon="5.92213">
        <ele>1014.200012207</ele>
        <time>2014-06-01T09:15:11.000Z</time>
      </trkpt>
      <trkpt lat="46.42626" lon="5.92216">
        <ele>1014.200012207</ele>
        <time>2014-06-01T09:15:13.000Z</time>
      </trkpt>
      <trkpt lat="46.42628" lon="5.92222">
        <ele>1014.4000244141</ele>
        <time>2014-06-01T09:15:18.000Z</time>
      </trkpt>
      <trkpt lat="46.42629" lon="5.92225">
        <ele>1014.4000244141</ele>
        <time>2014-06-01T09:15:21.000Z</time>
      </trkpt>
      <trkpt lat="46.42628" lon="5.92244">
        <ele>1014</ele>
        <time>2014-06-01T09:15:26.000Z</time>
      </trkpt>
      <trkpt lat="46.42629" lon="5.92271">
        <ele>1013.799987793</ele>
        <time>2014-06-01T09:15:31.000Z</time>
      </trkpt>
      <trkpt lat="46.42634" lon="5.92281">
        <ele>1014.5999755859</ele>
        <time>2014-06-01T09:15:36.000Z</time>
      </trkpt>
      <trkpt lat="46.42635" lon="5.92281">
        <ele>1014.799987793</ele>
        <time>2014-06-01T09:15:42.000Z</time>
      </trkpt>
      <trkpt lat="46.4264" lon="5.92282">
        <ele>1015.799987793</ele>
        <time>2014-06-01T09:15:46.000Z</time>
      </trkpt>
      <trkpt lat="46.4264" lon="5.92285">
        <ele>1015.5999755859</ele>
        <time>2014-06-01T09:15:50.000Z</time>
      </trkpt>
      <trkpt lat="46.4263" lon="5.92295">
        <ele>1014</ele>
        <time>2014-06-01T09:15:55.000Z</time>
      </trkpt>
      <trkpt lat="46.42629" lon="5.92297">
        <ele>1013.799987793</ele>
        <time>2014-06-01T09:15:56.000Z</time>
      </trkpt>
      <trkpt lat="46.4263" lon="5.92301">
        <ele>1014</ele>
        <time>2014-06-01T09:16:00.000Z</time>
      </trkpt>
      <trkpt lat="46.42627" lon="5.92309">
        <ele>1013.799987793</ele>
        <time>2014-06-01T09:16:05.000Z</time>
      </trkpt>
      <trkpt lat="46.42627" lon="5.92311">
        <ele>1013.5999755859</ele>
        <time>2014-06-01T09:16:07.000Z</time>
      </trkpt>
      <trkpt lat="46.42628" lon="5.92315">
        <ele>1014</ele>
        <time>2014-06-01T09:16:10.000Z</time>
      </trkpt>
      <trkpt lat="46.42623" lon="5.92321">
        <ele>1013.4000244141</ele>
        <time>2014-06-01T09:16:15.000Z</time>
      </trkpt>
      <trkpt lat="46.42613" lon="5.9232">
        <ele>1011.799987793</ele>
        <time>2014-06-01T09:16:21.000Z</time>
      </trkpt>
      <trkpt lat="46.42601" lon="5.92326">
        <ele>1010</ele>
        <time>2014-06-01T09:16:24.000Z</time>
      </trkpt>
      <trkpt lat="46.42586" lon="5.9233">
        <ele>1007.799987793</ele>
        <time>2014-06-01T09:16:28.000Z</time>
      </trkpt>
      <trkpt lat="46.42577" lon="5.92322">
        <ele>1006.200012207</ele>
        <time>2014-06-01T09:16:31.000Z</time>
      </trkpt>
      <trkpt lat="46.4256" lon="5.92312">
        <ele>1004</ele>
        <time>2014-06-01T09:16:36.000Z</time>
      </trkpt>
      <trkpt lat="46.42553" lon="5.92318">
        <ele>1004</ele>
        <time>2014-06-01T09:16:39.000Z</time>
      </trkpt>
      <trkpt lat="46.42551" lon="5.92323">
        <ele>1004</ele>
        <time>2014-06-01T09:16:40.000Z</time>
      </trkpt>
      <trkpt lat="46.42554" lon="5.92347">
        <ele>1005</ele>
        <time>2014-06-01T09:16:45.000Z</time>
      </trkpt>
      <trkpt lat="46.4255" lon="5.92358">
        <ele>1005.200012207</ele>
        <time>2014-06-01T09:16:48.000Z</time>
      </trkpt>
      <trkpt lat="46.42538" lon="5.92384">
        <ele>1005.799987793</ele>
        <time>2014-06-01T09:16:55.000Z</time>
      </trkpt>
      <trkpt lat="46.42532" lon="5.92405">
        <ele>1005.799987793</ele>
        <time>2014-06-01T09:16:59.000Z</time>
      </trkpt>
      <trkpt lat="46.42532" lon="5.92428">
        <ele>1005.799987793</ele>
        <time>2014-06-01T09:17:03.000Z</time>
      </trkpt>
      <trkpt lat="46.42538" lon="5.92445">
        <ele>1006</ele>
        <time>2014-06-01T09:17:07.000Z</time>
      </trkpt>
      <trkpt lat="46.42545" lon="5.92471">
        <ele>1006.4000244141</ele>
        <time>2014-06-01T09:17:12.000Z</time>
      </trkpt>
      <trkpt lat="46.4255" lon="5.92487">
        <ele>1006.799987793</ele>
        <time>2014-06-01T09:17:16.000Z</time>
      </trkpt>
      <trkpt lat="46.42551" lon="5.92506">
        <ele>1007</ele>
        <time>2014-06-01T09:17:20.000Z</time>
      </trkpt>
      <trkpt lat="46.42552" lon="5.9251">
        <ele>1007.200012207</ele>
        <time>2014-06-01T09:17:21.000Z</time>
      </trkpt>
      <trkpt lat="46.42567" lon="5.92526">
        <ele>1007.799987793</ele>
        <time>2014-06-01T09:17:25.000Z</time>
      </trkpt>
      <trkpt lat="46.42575" lon="5.92537">
        <ele>1008.4000244141</ele>
        <time>2014-06-01T09:17:29.000Z</time>
      </trkpt>
      <trkpt lat="46.42578" lon="5.9254">
        <ele>1008.5999755859</ele>
        <time>2014-06-01T09:17:30.000Z</time>
      </trkpt>
      <trkpt lat="46.42593" lon="5.92554">
        <ele>1009.5999755859</ele>
        <time>2014-06-01T09:17:36.000Z</time>
      </trkpt>
      <trkpt lat="46.42607" lon="5.92568">
        <ele>1010.5999755859</ele>
        <time>2014-06-01T09:17:41.000Z</time>
      </trkpt>
      <trkpt lat="46.4262" lon="5.92589">
        <ele>1011.5999755859</ele>
        <time>2014-06-01T09:17:46.000Z</time>
      </trkpt>
      <trkpt lat="46.42624" lon="5.9261">
        <ele>1012.200012207</ele>
        <time>2014-06-01T09:17:50.000Z</time>
      </trkpt>
      <trkpt lat="46.42619" lon="5.92629">
        <ele>1012.4000244141</ele>
        <time>2014-06-01T09:17:54.000Z</time>
      </trkpt>
      <trkpt lat="46.42612" lon="5.92645">
        <ele>1012.5999755859</ele>
        <time>2014-06-01T09:17:58.000Z</time>
      </trkpt>
      <trkpt lat="46.42605" lon="5.92667">
        <ele>1011.799987793</ele>
        <time>2014-06-01T09:18:03.000Z</time>
      </trkpt>
      <trkpt lat="46.426" lon="5.92682">
        <ele>1011.4000244141</ele>
        <time>2014-06-01T09:18:07.000Z</time>
      </trkpt>
      <trkpt lat="46.42596" lon="5.92703">
        <ele>1011.4000244141</ele>
        <time>2014-06-01T09:18:12.000Z</time>
      </trkpt>
      <trkpt lat="46.4259" lon="5.92721">
        <ele>1011.200012207</ele>
        <time>2014-06-01T09:18:16.000Z</time>
      </trkpt>
      <trkpt lat="46.42588" lon="5.92742">
        <ele>1011</ele>
        <time>2014-06-01T09:18:20.000Z</time>
      </trkpt>
      <trkpt lat="46.42588" lon="5.92746">
        <ele>1011</ele>
        <time>2014-06-01T09:18:21.000Z</time>
      </trkpt>
      <trkpt lat="46.426" lon="5.92752">
        <ele>1011</ele>
        <time>2014-06-01T09:18:25.000Z</time>
      </trkpt>
      <trkpt lat="46.42617" lon="5.92761">
        <ele>1011.200012207</ele>
        <time>2014-06-01T09:18:30.000Z</time>
      </trkpt>
      <trkpt lat="46.4263" lon="5.92769">
        <ele>1011.200012207</ele>
        <time>2014-06-01T09:18:33.000Z</time>
      </trkpt>
      <trkpt lat="46.4265" lon="5.92792">
        <ele>1011.200012207</ele>
        <time>2014-06-01T09:18:38.000Z</time>
      </trkpt>
      <trkpt lat="46.42658" lon="5.92809">
        <ele>1011.5999755859</ele>
        <time>2014-06-01T09:18:42.000Z</time>
      </trkpt>
      <trkpt lat="46.42661" lon="5.92831">
        <ele>1011.799987793</ele>
        <time>2014-06-01T09:18:47.000Z</time>
      </trkpt>
      <trkpt lat="46.42672" lon="5.92847">
        <ele>1012.200012207</ele>
        <time>2014-06-01T09:18:51.000Z</time>
      </trkpt>
      <trkpt lat="46.42673" lon="5.9286">
        <ele>1012.5999755859</ele>
        <time>2014-06-01T09:18:55.000Z</time>
      </trkpt>
      <trkpt lat="46.42674" lon="5.92871">
        <ele>1012.799987793</ele>
        <time>2014-06-01T09:18:58.000Z</time>
      </trkpt>
      <trkpt lat="46.42685" lon="5.92892">
        <ele>1013.4000244141</ele>
        <time>2014-06-01T09:19:03.000Z</time>
      </trkpt>
      <trkpt lat="46.42695" lon="5.92905">
        <ele>1013.799987793</ele>
        <time>2014-06-01T09:19:07.000Z</time>
      </trkpt>
      <trkpt lat="46.42708" lon="5.92918">
        <ele>1014.4000244141</ele>
        <time>2014-06-01T09:19:13.000Z</time>
      </trkpt>
      <trkpt lat="46.42721" lon="5.92929">
        <ele>1014.799987793</ele>
        <time>2014-06-01T09:19:18.000Z</time>
      </trkpt>
      <trkpt lat="46.42728" lon="5.92933">
        <ele>1015</ele>
        <time>2014-06-01T09:19:21.000Z</time>
      </trkpt>
      <trkpt lat="46.4274" lon="5.92925">
        <ele>1015</ele>
        <time>2014-06-01T09:19:27.000Z</time>
      </trkpt>
      <trkpt lat="46.42748" lon="5.92915">
        <ele>1014.799987793</ele>
        <time>2014-06-01T09:19:31.000Z</time>
      </trkpt>
      <trkpt lat="46.42749" lon="5.9291">
        <ele>1014.5999755859</ele>
        <time>2014-06-01T09:19:32.000Z</time>
      </trkpt>
      <trkpt lat="46.42757" lon="5.92889">
        <ele>1015.5999755859</ele>
        <time>2014-06-01T09:19:38.000Z</time>
      </trkpt>
      <trkpt lat="46.42761" lon="5.92881">
        <ele>1016</ele>
        <time>2014-06-01T09:19:41.000Z</time>
      </trkpt>
      <trkpt lat="46.42767" lon="5.92869">
        <ele>1016.5999755859</ele>
        <time>2014-06-01T09:19:47.000Z</time>
      </trkpt>
      <trkpt lat="46.42768" lon="5.92859">
        <ele>1017</ele>
        <time>2014-06-01T09:19:51.000Z</time>
      </trkpt>
      <trkpt lat="46.42774" lon="5.92839">
        <ele>1018</ele>
        <time>2014-06-01T09:19:58.000Z</time>
      </trkpt>
      <trkpt lat="46.42782" lon="5.92833">
        <ele>1019</ele>
        <time>2014-06-01T09:20:02.000Z</time>
      </trkpt>
      <trkpt lat="46.42785" lon="5.92832">
        <ele>1019.200012207</ele>
        <time>2014-06-01T09:20:04.000Z</time>
      </trkpt>
      <trkpt lat="46.42789" lon="5.92832">
        <ele>1019.5999755859</ele>
        <time>2014-06-01T09:20:08.000Z</time>
      </trkpt>
      <trkpt lat="46.42796" lon="5.92828">
        <ele>1020.4000244141</ele>
        <time>2014-06-01T09:20:13.000Z</time>
      </trkpt>
      <trkpt lat="46.42806" lon="5.92832">
        <ele>1021</ele>
        <time>2014-06-01T09:20:20.000Z</time>
      </trkpt>
      <trkpt lat="46.42806" lon="5.92833">
        <ele>1021</ele>
        <time>2014-06-01T09:20:21.000Z</time>
      </trkpt>
      <trkpt lat="46.42815" lon="5.92835">
        <ele>1021.5999755859</ele>
        <time>2014-06-01T09:20:26.000Z</time>
      </trkpt>
      <trkpt lat="46.42816" lon="5.92833">
        <ele>1021.799987793</ele>
        <time>2014-06-01T09:20:28.000Z</time>
      </trkpt>
      <trkpt lat="46.42819" lon="5.92832">
        <ele>1022</ele>
        <time>2014-06-01T09:20:33.000Z</time>
      </trkpt>
      <trkpt lat="46.42816" lon="5.92832">
        <ele>1021.799987793</ele>
        <time>2014-06-01T09:20:39.000Z</time>
      </trkpt>
      <trkpt lat="46.4282" lon="5.92832">
        <ele>1022</ele>
        <time>2014-06-01T09:20:48.000Z</time>
      </trkpt>
      <trkpt lat="46.42822" lon="5.92847">
        <ele>1021.200012207</ele>
        <time>2014-06-01T09:20:53.000Z</time>
      </trkpt>
      <trkpt lat="46.42828" lon="5.92857">
        <ele>1020.799987793</ele>
        <time>2014-06-01T09:20:57.000Z</time>
      </trkpt>
      <trkpt lat="46.42832" lon="5.92856">
        <ele>1021</ele>
        <time>2014-06-01T09:21:02.000Z</time>
      </trkpt>
      <trkpt lat="46.42834" lon="5.92855">
        <ele>1021.200012207</ele>
        <time>2014-06-01T09:21:05.000Z</time>
      </trkpt>
      <trkpt lat="46.42841" lon="5.9287">
        <ele>1020.5999755859</ele>
        <time>2014-06-01T09:21:11.000Z</time>
      </trkpt>
      <trkpt lat="46.42848" lon="5.92886">
        <ele>1020</ele>
        <time>2014-06-01T09:21:16.000Z</time>
      </trkpt>
      <trkpt lat="46.42853" lon="5.92891">
        <ele>1019.799987793</ele>
        <time>2014-06-01T09:21:21.000Z</time>
      </trkpt>
      <trkpt lat="46.42855" lon="5.92887">
        <ele>1020</ele>
        <time>2014-06-01T09:21:26.000Z</time>
      </trkpt>
      <trkpt lat="46.42864" lon="5.92886">
        <ele>1020.4000244141</ele>
        <time>2014-06-01T09:21:30.000Z</time>
      </trkpt>
      <trkpt lat="46.42874" lon="5.92894">
        <ele>1020.200012207</ele>
        <time>2014-06-01T09:21:34.000Z</time>
      </trkpt>
      <trkpt lat="46.42881" lon="5.92899">
        <ele>1020.200012207</ele>
        <time>2014-06-01T09:21:38.000Z</time>
      </trkpt>
      <trkpt lat="46.42892" lon="5.92896">
        <ele>1020.5999755859</ele>
        <time>2014-06-01T09:21:43.000Z</time>
      </trkpt>
      <trkpt lat="46.42903" lon="5.92898">
        <ele>1020.799987793</ele>
        <time>2014-06-01T09:21:47.000Z</time>
      </trkpt>
      <trkpt lat="46.42913" lon="5.92905">
        <ele>1021.200012207</ele>
        <time>2014-06-01T09:21:52.000Z</time>
      </trkpt>
      <trkpt lat="46.42915" lon="5.92905">
        <ele>1021.4000244141</ele>
        <time>2014-06-01T09:21:55.000Z</time>
      </trkpt>
      <trkpt lat="46.42931" lon="5.92916">
        <ele>1021.799987793</ele>
        <time>2014-06-01T09:22:01.000Z</time>
      </trkpt>
      <trkpt lat="46.42936" lon="5.92923">
        <ele>1021.799987793</ele>
        <time>2014-06-01T09:22:04.000Z</time>
      </trkpt>
      <trkpt lat="46.42947" lon="5.92936">
        <ele>1021.799987793</ele>
        <time>2014-06-01T09:22:08.000Z</time>
      </trkpt>
      <trkpt lat="46.42953" lon="5.92936">
        <ele>1022.200012207</ele>
        <time>2014-06-01T09:22:13.000Z</time>
      </trkpt>
      <trkpt lat="46.42955" lon="5.92935">
        <ele>1022.4000244141</ele>
        <time>2014-06-01T09:22:17.000Z</time>
      </trkpt>
      <trkpt lat="46.42962" lon="5.92941">
        <ele>1022.4000244141</ele>
        <time>2014-06-01T09:22:21.000Z</time>
      </trkpt>
      <trkpt lat="46.42962" lon="5.92943">
        <ele>1022.4000244141</ele>
        <time>2014-06-01T09:22:23.000Z</time>
      </trkpt>
      <trkpt lat="46.42961" lon="5.92948">
        <ele>1022</ele>
        <time>2014-06-01T09:22:28.000Z</time>
      </trkpt>
      <trkpt lat="46.42959" lon="5.92949">
        <ele>1021.799987793</ele>
        <time>2014-06-01T09:22:39.000Z</time>
      </trkpt>
      <trkpt lat="46.42965" lon="5.92953">
        <ele>1022</ele>
        <time>2014-06-01T09:22:45.000Z</time>
      </trkpt>
      <trkpt lat="46.42973" lon="5.92952">
        <ele>1022.5999755859</ele>
        <time>2014-06-01T09:22:50.000Z</time>
      </trkpt>
      <trkpt lat="46.42979" lon="5.92956">
        <ele>1022.799987793</ele>
        <time>2014-06-01T09:22:54.000Z</time>
      </trkpt>
      <trkpt lat="46.42979" lon="5.9296">
        <ele>1022.5999755859</ele>
        <time>2014-06-01T09:22:58.000Z</time>
      </trkpt>
      <trkpt lat="46.42984" lon="5.92969">
        <ele>1022.4000244141</ele>
        <time>2014-06-01T09:23:03.000Z</time>
      </trkpt>
      <trkpt lat="46.4299" lon="5.92975">
        <ele>1022.5999755859</ele>
        <time>2014-06-01T09:23:06.000Z</time>
      </trkpt>
      <trkpt lat="46.42997" lon="5.92983">
        <ele>1023</ele>
        <time>2014-06-01T09:23:11.000Z</time>
      </trkpt>
      <trkpt lat="46.42999" lon="5.92984">
        <ele>1023.200012207</ele>
        <time>2014-06-01T09:23:14.000Z</time>
      </trkpt>
      <trkpt lat="46.43002" lon="5.9299">
        <ele>1023.200012207</ele>
        <time>2014-06-01T09:23:19.000Z</time>
      </trkpt>
      <trkpt lat="46.43003" lon="5.92994">
        <ele>1023.200012207</ele>
        <time>2014-06-01T09:23:21.000Z</time>
      </trkpt>
      <trkpt lat="46.43007" lon="5.93006">
        <ele>1023.200012207</ele>
        <time>2014-06-01T09:23:28.000Z</time>
      </trkpt>
      <trkpt lat="46.4301" lon="5.93007">
        <ele>1023.4000244141</ele>
        <time>2014-06-01T09:23:30.000Z</time>
      </trkpt>
      <trkpt lat="46.43017" lon="5.9302">
        <ele>1023.5999755859</ele>
        <time>2014-06-01T09:23:35.000Z</time>
      </trkpt>
      <trkpt lat="46.43023" lon="5.93029">
        <ele>1023.799987793</ele>
        <time>2014-06-01T09:23:41.000Z</time>
      </trkpt>
      <trkpt lat="46.43026" lon="5.93031">
        <ele>1024</ele>
        <time>2014-06-01T09:23:43.000Z</time>
      </trkpt>
      <trkpt lat="46.43029" lon="5.93033">
        <ele>1024.1999511719</ele>
        <time>2014-06-01T09:23:45.000Z</time>
      </trkpt>
      <trkpt lat="46.43035" lon="5.93036">
        <ele>1024.8000488281</ele>
        <time>2014-06-01T09:23:49.000Z</time>
      </trkpt>
      <trkpt lat="46.43038" lon="5.93039">
        <ele>1025</ele>
        <time>2014-06-01T09:23:54.000Z</time>
      </trkpt>
      <trkpt lat="46.43039" lon="5.93041">
        <ele>1024.8000488281</ele>
        <time>2014-06-01T09:23:55.000Z</time>
      </trkpt>
      <trkpt lat="46.43046" lon="5.93046">
        <ele>1025.4000244141</ele>
        <time>2014-06-01T09:24:00.000Z</time>
      </trkpt>
      <trkpt lat="46.43052" lon="5.9304">
        <ele>1026.1999511719</ele>
        <time>2014-06-01T09:24:13.000Z</time>
      </trkpt>
      <trkpt lat="46.43052" lon="5.93039">
        <ele>1026.1999511719</ele>
        <time>2014-06-01T09:24:23.000Z</time>
      </trkpt>
      <trkpt lat="46.43052" lon="5.93041">
        <ele>1026.1999511719</ele>
        <time>2014-06-01T09:24:31.000Z</time>
      </trkpt>
      <trkpt lat="46.43052" lon="5.93045">
        <ele>1026.1999511719</ele>
        <time>2014-06-01T09:24:36.000Z</time>
      </trkpt>
      <trkpt lat="46.43051" lon="5.9305">
        <ele>1025.8000488281</ele>
        <time>2014-06-01T09:24:39.000Z</time>
      </trkpt>
      <trkpt lat="46.43043" lon="5.9306">
        <ele>1024.4000244141</ele>
        <time>2014-06-01T09:24:45.000Z</time>
      </trkpt>
      <trkpt lat="46.43039" lon="5.93066">
        <ele>1023.5999755859</ele>
        <time>2014-06-01T09:24:47.000Z</time>
      </trkpt>
      <trkpt lat="46.4303" lon="5.93072">
        <ele>1022.4000244141</ele>
        <time>2014-06-01T09:24:53.000Z</time>
      </trkpt>
      <trkpt lat="46.43028" lon="5.93073">
        <ele>1022.200012207</ele>
        <time>2014-06-01T09:24:55.000Z</time>
      </trkpt>
      <trkpt lat="46.43022" lon="5.93086">
        <ele>1020.799987793</ele>
        <time>2014-06-01T09:25:00.000Z</time>
      </trkpt>
      <trkpt lat="46.43007" lon="5.93097">
        <ele>1019.4000244141</ele>
        <time>2014-06-01T09:25:05.000Z</time>
      </trkpt>
      <trkpt lat="46.42997" lon="5.93098">
        <ele>1018.5999755859</ele>
        <time>2014-06-01T09:25:09.000Z</time>
      </trkpt>
      <trkpt lat="46.42996" lon="5.93098">
        <ele>1018.4000244141</ele>
        <time>2014-06-01T09:25:10.000Z</time>
      </trkpt>
      <trkpt lat="46.42995" lon="5.93103">
        <ele>1018.4000244141</ele>
        <time>2014-06-01T09:25:24.000Z</time>
      </trkpt>
      <trkpt lat="46.42991" lon="5.93104">
        <ele>1018</ele>
        <time>2014-06-01T09:25:29.000Z</time>
      </trkpt>
      <trkpt lat="46.4299" lon="5.93106">
        <ele>1018</ele>
        <time>2014-06-01T09:25:37.000Z</time>
      </trkpt>
      <trkpt lat="46.4299" lon="5.93105">
        <ele>1018</ele>
        <time>2014-06-01T09:25:50.000Z</time>
      </trkpt>
      <trkpt lat="46.42982" lon="5.93108">
        <ele>1017.4000244141</ele>
        <time>2014-06-01T09:25:56.000Z</time>
      </trkpt>
      <trkpt lat="46.42978" lon="5.93111">
        <ele>1017.200012207</ele>
        <time>2014-06-01T09:26:00.000Z</time>
      </trkpt>
      <trkpt lat="46.42965" lon="5.93112">
        <ele>1016.4000244141</ele>
        <time>2014-06-01T09:26:05.000Z</time>
      </trkpt>
      <trkpt lat="46.42959" lon="5.93114">
        <ele>1016</ele>
        <time>2014-06-01T09:26:09.000Z</time>
      </trkpt>
      <trkpt lat="46.42953" lon="5.93117">
        <ele>1015.799987793</ele>
        <time>2014-06-01T09:26:17.000Z</time>
      </trkpt>
      <trkpt lat="46.42949" lon="5.93116">
        <ele>1015.5999755859</ele>
        <time>2014-06-01T09:26:23.000Z</time>
      </trkpt>
      <trkpt lat="46.42947" lon="5.93119">
        <ele>1015.5999755859</ele>
        <time>2014-06-01T09:26:29.000Z</time>
      </trkpt>
      <trkpt lat="46.42946" lon="5.93122">
        <ele>1015.5999755859</ele>
        <time>2014-06-01T09:26:37.000Z</time>
      </trkpt>
      <trkpt lat="46.42943" lon="5.93126">
        <ele>1015.799987793</ele>
        <time>2014-06-01T09:26:48.000Z</time>
      </trkpt>
      <trkpt lat="46.42941" lon="5.93128">
        <ele>1015.799987793</ele>
        <time>2014-06-01T09:27:00.000Z</time>
      </trkpt>
      <trkpt lat="46.42937" lon="5.93125">
        <ele>1015.5999755859</ele>
        <time>2014-06-01T09:27:03.000Z</time>
      </trkpt>
      <trkpt lat="46.42926" lon="5.93119">
        <ele>1015.200012207</ele>
        <time>2014-06-01T09:27:07.000Z</time>
      </trkpt>
      <trkpt lat="46.42914" lon="5.93114">
        <ele>1014.799987793</ele>
        <time>2014-06-01T09:27:12.000Z</time>
      </trkpt>
      <trkpt lat="46.42903" lon="5.93121">
        <ele>1014.5999755859</ele>
        <time>2014-06-01T09:27:16.000Z</time>
      </trkpt>
      <trkpt lat="46.42891" lon="5.93125">
        <ele>1015</ele>
        <time>2014-06-01T09:27:21.000Z</time>
      </trkpt>
      <trkpt lat="46.4288" lon="5.93136">
        <ele>1016.799987793</ele>
        <time>2014-06-01T09:27:25.000Z</time>
      </trkpt>
      <trkpt lat="46.42872" lon="5.93151">
        <ele>1018.5999755859</ele>
        <time>2014-06-01T09:27:29.000Z</time>
      </trkpt>
      <trkpt lat="46.4287" lon="5.93158">
        <ele>1019</ele>
        <time>2014-06-01T09:27:31.000Z</time>
      </trkpt>
      <trkpt lat="46.42872" lon="5.9317">
        <ele>1019.4000244141</ele>
        <time>2014-06-01T09:27:34.000Z</time>
      </trkpt>
      <trkpt lat="46.42878" lon="5.93198">
        <ele>1019.5999755859</ele>
        <time>2014-06-01T09:27:41.000Z</time>
      </trkpt>
      <trkpt lat="46.42882" lon="5.93219">
        <ele>1020</ele>
        <time>2014-06-01T09:27:46.000Z</time>
      </trkpt>
      <trkpt lat="46.4289" lon="5.93235">
        <ele>1020</ele>
        <time>2014-06-01T09:27:50.000Z</time>
      </trkpt>
      <trkpt lat="46.42895" lon="5.93249">
        <ele>1020.4000244141</ele>
        <time>2014-06-01T09:27:54.000Z</time>
      </trkpt>
      <trkpt lat="46.42899" lon="5.93269">
        <ele>1021.200012207</ele>
        <time>2014-06-01T09:27:59.000Z</time>
      </trkpt>
      <trkpt lat="46.42907" lon="5.93283">
        <ele>1022</ele>
        <time>2014-06-01T09:28:03.000Z</time>
      </trkpt>
      <trkpt lat="46.42917" lon="5.93297">
        <ele>1022.799987793</ele>
        <time>2014-06-01T09:28:07.000Z</time>
      </trkpt>
      <trkpt lat="46.42928" lon="5.93309">
        <ele>1023.4000244141</ele>
        <time>2014-06-01T09:28:11.000Z</time>
      </trkpt>
      <trkpt lat="46.42939" lon="5.93325">
        <ele>1023.4000244141</ele>
        <time>2014-06-01T09:28:16.000Z</time>
      </trkpt>
      <trkpt lat="46.42953" lon="5.93337">
        <ele>1023.4000244141</ele>
        <time>2014-06-01T09:28:20.000Z</time>
      </trkpt>
      <trkpt lat="46.42962" lon="5.93345">
        <ele>1023.4000244141</ele>
        <time>2014-06-01T09:28:24.000Z</time>
      </trkpt>
      <trkpt lat="46.42975" lon="5.93357">
        <ele>1023.4000244141</ele>
        <time>2014-06-01T09:28:29.000Z</time>
      </trkpt>
      <trkpt lat="46.42993" lon="5.93369">
        <ele>1022.799987793</ele>
        <time>2014-06-01T09:28:35.000Z</time>
      </trkpt>
      <trkpt lat="46.43007" lon="5.93376">
        <ele>1021.799987793</ele>
        <time>2014-06-01T09:28:39.000Z</time>
      </trkpt>
      <trkpt lat="46.43021" lon="5.93385">
        <ele>1021</ele>
        <time>2014-06-01T09:28:43.000Z</time>
      </trkpt>
      <trkpt lat="46.43032" lon="5.93394">
        <ele>1020.200012207</ele>
        <time>2014-06-01T09:28:47.000Z</time>
      </trkpt>
      <trkpt lat="46.4305" lon="5.93407">
        <ele>1018.5999755859</ele>
        <time>2014-06-01T09:28:52.000Z</time>
      </trkpt>
      <trkpt lat="46.43062" lon="5.93419">
        <ele>1017.200012207</ele>
        <time>2014-06-01T09:28:55.000Z</time>
      </trkpt>
      <trkpt lat="46.43072" lon="5.93441">
        <ele>1016</ele>
        <time>2014-06-01T09:29:00.000Z</time>
      </trkpt>
      <trkpt lat="46.43077" lon="5.93462">
        <ele>1015.200012207</ele>
        <time>2014-06-01T09:29:04.000Z</time>
      </trkpt>
      <trkpt lat="46.43078" lon="5.93472">
        <ele>1014.799987793</ele>
        <time>2014-06-01T09:29:06.000Z</time>
      </trkpt>
      <trkpt lat="46.43081" lon="5.93498">
        <ele>1015.5999755859</ele>
        <time>2014-06-01T09:29:11.000Z</time>
      </trkpt>
      <trkpt lat="46.43083" lon="5.93522">
        <ele>1016.799987793</ele>
        <time>2014-06-01T09:29:16.000Z</time>
      </trkpt>
      <trkpt lat="46.43088" lon="5.93544">
        <ele>1017.799987793</ele>
        <time>2014-06-01T09:29:20.000Z</time>
      </trkpt>
      <trkpt lat="46.4309" lon="5.93557">
        <ele>1018.5999755859</ele>
        <time>2014-06-01T09:29:23.000Z</time>
      </trkpt>
      <trkpt lat="46.43104" lon="5.93562">
        <ele>1018</ele>
        <time>2014-06-01T09:29:28.000Z</time>
      </trkpt>
      <trkpt lat="46.43119" lon="5.93556">
        <ele>1016.5999755859</ele>
        <time>2014-06-01T09:29:32.000Z</time>
      </trkpt>
      <trkpt lat="46.43133" lon="5.93552">
        <ele>1015.5999755859</ele>
        <time>2014-06-01T09:29:36.000Z</time>
      </trkpt>
      <trkpt lat="46.43146" lon="5.93541">
        <ele>1014.5999755859</ele>
        <time>2014-06-01T09:29:40.000Z</time>
      </trkpt>
      <trkpt lat="46.43159" lon="5.9353">
        <ele>1013.4000244141</ele>
        <time>2014-06-01T09:29:43.000Z</time>
      </trkpt>
      <trkpt lat="46.43176" lon="5.93514">
        <ele>1011.799987793</ele>
        <time>2014-06-01T09:29:49.000Z</time>
      </trkpt>
      <trkpt lat="46.43191" lon="5.93499">
        <ele>1009.200012207</ele>
        <time>2014-06-01T09:29:55.000Z</time>
      </trkpt>
      <trkpt lat="46.43202" lon="5.93489">
        <ele>1007.200012207</ele>
        <time>2014-06-01T09:29:59.000Z</time>
      </trkpt>
      <trkpt lat="46.43212" lon="5.93473">
        <ele>1004.799987793</ele>
        <time>2014-06-01T09:30:05.000Z</time>
      </trkpt>
      <trkpt lat="46.43219" lon="5.93459">
        <ele>1003.5999755859</ele>
        <time>2014-06-01T09:30:10.000Z</time>
      </trkpt>
      <trkpt lat="46.43225" lon="5.93451">
        <ele>1002.200012207</ele>
        <time>2014-06-01T09:30:13.000Z</time>
      </trkpt>
      <trkpt lat="46.43235" lon="5.93443">
        <ele>1000.200012207</ele>
        <time>2014-06-01T09:30:17.000Z</time>
      </trkpt>
      <trkpt lat="46.43254" lon="5.93426">
        <ele>996.79998779297</ele>
        <time>2014-06-01T09:30:24.000Z</time>
      </trkpt>
      <trkpt lat="46.43259" lon="5.93406">
        <ele>995.40002441406</ele>
        <time>2014-06-01T09:30:28.000Z</time>
      </trkpt>
      <trkpt lat="46.43267" lon="5.93389">
        <ele>994</ele>
        <time>2014-06-01T09:30:32.000Z</time>
      </trkpt>
      <trkpt lat="46.43273" lon="5.93384">
        <ele>993.40002441406</ele>
        <time>2014-06-01T09:30:36.000Z</time>
      </trkpt>
      <trkpt lat="46.43278" lon="5.93377">
        <ele>993.20001220703</ele>
        <time>2014-06-01T09:30:42.000Z</time>
      </trkpt>
      <trkpt lat="46.43282" lon="5.93367">
        <ele>993.20001220703</ele>
        <time>2014-06-01T09:30:52.000Z</time>
      </trkpt>
      <trkpt lat="46.43283" lon="5.93365">
        <ele>993.20001220703</ele>
        <time>2014-06-01T09:31:03.000Z</time>
      </trkpt>
      <trkpt lat="46.43287" lon="5.93344">
        <ele>993.59997558594</ele>
        <time>2014-06-01T09:31:09.000Z</time>
      </trkpt>
      <trkpt lat="46.43289" lon="5.93322">
        <ele>994.59997558594</ele>
        <time>2014-06-01T09:31:14.000Z</time>
      </trkpt>
      <trkpt lat="46.43288" lon="5.93295">
        <ele>996.40002441406</ele>
        <time>2014-06-01T09:31:19.000Z</time>
      </trkpt>
      <trkpt lat="46.43294" lon="5.93274">
        <ele>996.59997558594</ele>
        <time>2014-06-01T09:31:24.000Z</time>
      </trkpt>
      <trkpt lat="46.43298" lon="5.93261">
        <ele>995.79998779297</ele>
        <time>2014-06-01T09:31:28.000Z</time>
      </trkpt>
      <trkpt lat="46.433" lon="5.93256">
        <ele>995.40002441406</ele>
        <time>2014-06-01T09:31:30.000Z</time>
      </trkpt>
      <trkpt lat="46.43301" lon="5.93248">
        <ele>995.20001220703</ele>
        <time>2014-06-01T09:31:33.000Z</time>
      </trkpt>
      <trkpt lat="46.43303" lon="5.93235">
        <ele>994.79998779297</ele>
        <time>2014-06-01T09:31:38.000Z</time>
      </trkpt>
      <trkpt lat="46.43304" lon="5.93229">
        <ele>994.59997558594</ele>
        <time>2014-06-01T09:31:43.000Z</time>
      </trkpt>
      <trkpt lat="46.43315" lon="5.93218">
        <ele>992</ele>
        <time>2014-06-01T09:32:12.000Z</time>
      </trkpt>
      <trkpt lat="46.43318" lon="5.9322">
        <ele>991.40002441406</ele>
        <time>2014-06-01T09:32:14.000Z</time>
      </trkpt>
      <trkpt lat="46.43322" lon="5.93213">
        <ele>989.79998779297</ele>
        <time>2014-06-01T09:32:19.000Z</time>
      </trkpt>
      <trkpt lat="46.4333" lon="5.93206">
        <ele>987.79998779297</ele>
        <time>2014-06-01T09:32:25.000Z</time>
      </trkpt>
      <trkpt lat="46.43337" lon="5.93206">
        <ele>986.20001220703</ele>
        <time>2014-06-01T09:32:29.000Z</time>
      </trkpt>
      <trkpt lat="46.43349" lon="5.93201">
        <ele>983.40002441406</ele>
        <time>2014-06-01T09:32:34.000Z</time>
      </trkpt>
      <trkpt lat="46.43351" lon="5.93197">
        <ele>982.79998779297</ele>
        <time>2014-06-01T09:32:39.000Z</time>
      </trkpt>
      <trkpt lat="46.43347" lon="5.93196">
        <ele>983.59997558594</ele>
        <time>2014-06-01T09:32:46.000Z</time>
      </trkpt>
      <trkpt lat="46.43343" lon="5.93188">
        <ele>983.79998779297</ele>
        <time>2014-06-01T09:32:50.000Z</time>
      </trkpt>
      <trkpt lat="46.43336" lon="5.93164">
        <ele>984</ele>
        <time>2014-06-01T09:32:55.000Z</time>
      </trkpt>
      <trkpt lat="46.43339" lon="5.93145">
        <ele>982.79998779297</ele>
        <time>2014-06-01T09:32:59.000Z</time>
      </trkpt>
      <trkpt lat="46.43347" lon="5.93122">
        <ele>980</ele>
        <time>2014-06-01T09:33:04.000Z</time>
      </trkpt>
      <trkpt lat="46.43354" lon="5.93106">
        <ele>978</ele>
        <time>2014-06-01T09:33:08.000Z</time>
      </trkpt>
      <trkpt lat="46.43361" lon="5.93082">
        <ele>976.40002441406</ele>
        <time>2014-06-01T09:33:13.000Z</time>
      </trkpt>
      <trkpt lat="46.43365" lon="5.93069">
        <ele>976</ele>
        <time>2014-06-01T09:33:17.000Z</time>
      </trkpt>
      <trkpt lat="46.43363" lon="5.93055">
        <ele>976</ele>
        <time>2014-06-01T09:33:21.000Z</time>
      </trkpt>
      <trkpt lat="46.43359" lon="5.9304">
        <ele>976</ele>
        <time>2014-06-01T09:33:24.000Z</time>
      </trkpt>
      <trkpt lat="46.43354" lon="5.93032">
        <ele>976.20001220703</ele>
        <time>2014-06-01T09:33:30.000Z</time>
      </trkpt>
      <trkpt lat="46.43353" lon="5.93023">
        <ele>976</ele>
        <time>2014-06-01T09:33:37.000Z</time>
      </trkpt>
      <trkpt lat="46.43357" lon="5.9302">
        <ele>975.20001220703</ele>
        <time>2014-06-01T09:33:41.000Z</time>
      </trkpt>
      <trkpt lat="46.43362" lon="5.93024">
        <ele>974.59997558594</ele>
        <time>2014-06-01T09:33:49.000Z</time>
      </trkpt>
      <trkpt lat="46.43365" lon="5.93025">
        <ele>974.40002441406</ele>
        <time>2014-06-01T09:34:06.000Z</time>
      </trkpt>
      <trkpt lat="46.43365" lon="5.93027">
        <ele>974.40002441406</ele>
        <time>2014-06-01T09:34:08.000Z</time>
      </trkpt>
      <trkpt lat="46.43367" lon="5.9303">
        <ele>974.20001220703</ele>
        <time>2014-06-01T09:34:14.000Z</time>
      </trkpt>
      <trkpt lat="46.43368" lon="5.93017">
        <ele>973.79998779297</ele>
        <time>2014-06-01T09:34:21.000Z</time>
      </trkpt>
      <trkpt lat="46.43375" lon="5.93007">
        <ele>972.59997558594</ele>
        <time>2014-06-01T09:34:37.000Z</time>
      </trkpt>
      <trkpt lat="46.43375" lon="5.93">
        <ele>972.40002441406</ele>
        <time>2014-06-01T09:34:41.000Z</time>
      </trkpt>
      <trkpt lat="46.43375" lon="5.92996">
        <ele>972.40002441406</ele>
        <time>2014-06-01T09:34:43.000Z</time>
      </trkpt>
      <trkpt lat="46.43379" lon="5.92996">
        <ele>972</ele>
        <time>2014-06-01T09:34:46.000Z</time>
      </trkpt>
      <trkpt lat="46.43374" lon="5.92995">
        <ele>972.59997558594</ele>
        <time>2014-06-01T09:34:52.000Z</time>
      </trkpt>
      <trkpt lat="46.43374" lon="5.92992">
        <ele>972.40002441406</ele>
        <time>2014-06-01T09:35:01.000Z</time>
      </trkpt>
      <trkpt lat="46.43369" lon="5.92994">
        <ele>973</ele>
        <time>2014-06-01T09:35:09.000Z</time>
      </trkpt>
      <trkpt lat="46.43369" lon="5.93006">
        <ele>973.40002441406</ele>
        <time>2014-06-01T09:35:13.000Z</time>
      </trkpt>
      <trkpt lat="46.4337" lon="5.93012">
        <ele>973.40002441406</ele>
        <time>2014-06-01T09:35:15.000Z</time>
      </trkpt>
      <trkpt lat="46.43369" lon="5.93023">
        <ele>973.79998779297</ele>
        <time>2014-06-01T09:35:19.000Z</time>
      </trkpt>
      <trkpt lat="46.43369" lon="5.93029">
        <ele>974</ele>
        <time>2014-06-01T09:35:21.000Z</time>
      </trkpt>
      <trkpt lat="46.43365" lon="5.93044">
        <ele>975.20001220703</ele>
        <time>2014-06-01T09:35:26.000Z</time>
      </trkpt>
      <trkpt lat="46.43366" lon="5.93053">
        <ele>975.59997558594</ele>
        <time>2014-06-01T09:35:28.000Z</time>
      </trkpt>
      <trkpt lat="46.43366" lon="5.93065">
        <ele>975.79998779297</ele>
        <time>2014-06-01T09:35:31.000Z</time>
      </trkpt>
      <trkpt lat="46.43369" lon="5.93083">
        <ele>975.20001220703</ele>
        <time>2014-06-01T09:35:36.000Z</time>
      </trkpt>
      <trkpt lat="46.43364" lon="5.93102">
        <ele>976</ele>
        <time>2014-06-01T09:35:41.000Z</time>
      </trkpt>
      <trkpt lat="46.43361" lon="5.93118">
        <ele>977.20001220703</ele>
        <time>2014-06-01T09:35:46.000Z</time>
      </trkpt>
      <trkpt lat="46.43359" lon="5.93127">
        <ele>978</ele>
        <time>2014-06-01T09:35:49.000Z</time>
      </trkpt>
      <trkpt lat="46.43346" lon="5.93152">
        <ele>981.40002441406</ele>
        <time>2014-06-01T09:35:55.000Z</time>
      </trkpt>
      <trkpt lat="46.43345" lon="5.93175">
        <ele>982.79998779297</ele>
        <time>2014-06-01T09:36:00.000Z</time>
      </trkpt>
      <trkpt lat="46.43347" lon="5.93193">
        <ele>983.40002441406</ele>
        <time>2014-06-01T09:36:04.000Z</time>
      </trkpt>
      <trkpt lat="46.43353" lon="5.93215">
        <ele>983.40002441406</ele>
        <time>2014-06-01T09:36:09.000Z</time>
      </trkpt>
      <trkpt lat="46.4336" lon="5.93232">
        <ele>983.20001220703</ele>
        <time>2014-06-01T09:36:13.000Z</time>
      </trkpt>
      <trkpt lat="46.43361" lon="5.93247">
        <ele>984.20001220703</ele>
        <time>2014-06-01T09:36:17.000Z</time>
      </trkpt>
      <trkpt lat="46.43362" lon="5.9325">
        <ele>984.20001220703</ele>
        <time>2014-06-01T09:36:18.000Z</time>
      </trkpt>
      <trkpt lat="46.43379" lon="5.93256">
        <ele>981</ele>
        <time>2014-06-01T09:36:24.000Z</time>
      </trkpt>
      <trkpt lat="46.43382" lon="5.93256">
        <ele>980.40002441406</ele>
        <time>2014-06-01T09:36:25.000Z</time>
      </trkpt>
      <trkpt lat="46.43403" lon="5.93251">
        <ele>976.40002441406</ele>
        <time>2014-06-01T09:36:30.000Z</time>
      </trkpt>
      <trkpt lat="46.4342" lon="5.93243">
        <ele>976.59997558594</ele>
        <time>2014-06-01T09:36:35.000Z</time>
      </trkpt>
      <trkpt lat="46.43433" lon="5.9323">
        <ele>978</ele>
        <time>2014-06-01T09:36:41.000Z</time>
      </trkpt>
      <trkpt lat="46.43441" lon="5.93216">
        <ele>978.79998779297</ele>
        <time>2014-06-01T09:36:46.000Z</time>
      </trkpt>
      <trkpt lat="46.43445" lon="5.93201">
        <ele>978.79998779297</ele>
        <time>2014-06-01T09:36:51.000Z</time>
      </trkpt>
      <trkpt lat="46.4345" lon="5.93188">
        <ele>978.79998779297</ele>
        <time>2014-06-01T09:36:56.000Z</time>
      </trkpt>
      <trkpt lat="46.43451" lon="5.93186">
        <ele>979.20001220703</ele>
        <time>2014-06-01T09:36:57.000Z</time>
      </trkpt>
      <trkpt lat="46.43456" lon="5.93185">
        <ele>979.79998779297</ele>
        <time>2014-06-01T09:37:02.000Z</time>
      </trkpt>
      <trkpt lat="46.43464" lon="5.93184">
        <ele>981.20001220703</ele>
        <time>2014-06-01T09:37:05.000Z</time>
      </trkpt>
      <trkpt lat="46.43476" lon="5.93184">
        <ele>983</ele>
        <time>2014-06-01T09:37:11.000Z</time>
      </trkpt>
      <trkpt lat="46.43483" lon="5.93178">
        <ele>984.20001220703</ele>
        <time>2014-06-01T09:37:16.000Z</time>
      </trkpt>
      <trkpt lat="46.43488" lon="5.93173">
        <ele>985.20001220703</ele>
        <time>2014-06-01T09:37:20.000Z</time>
      </trkpt>
      <trkpt lat="46.43491" lon="5.93165">
        <ele>985.79998779297</ele>
        <time>2014-06-01T09:37:24.000Z</time>
      </trkpt>
      <trkpt lat="46.43495" lon="5.93158">
        <ele>986.59997558594</ele>
        <time>2014-06-01T09:37:28.000Z</time>
      </trkpt>
      <trkpt lat="46.43497" lon="5.93156">
        <ele>987</ele>
        <time>2014-06-01T09:37:30.000Z</time>
      </trkpt>
      <trkpt lat="46.43498" lon="5.9315">
        <ele>987</ele>
        <time>2014-06-01T09:37:34.000Z</time>
      </trkpt>
      <trkpt lat="46.43502" lon="5.93135">
        <ele>987.59997558594</ele>
        <time>2014-06-01T09:37:41.000Z</time>
      </trkpt>
      <trkpt lat="46.43503" lon="5.93133">
        <ele>988</ele>
        <time>2014-06-01T09:37:42.000Z</time>
      </trkpt>
      <trkpt lat="46.43506" lon="5.9313">
        <ele>988.59997558594</ele>
        <time>2014-06-01T09:37:44.000Z</time>
      </trkpt>
      <trkpt lat="46.43513" lon="5.93126">
        <ele>989.79998779297</ele>
        <time>2014-06-01T09:37:49.000Z</time>
      </trkpt>
      <trkpt lat="46.43519" lon="5.93117">
        <ele>990.79998779297</ele>
        <time>2014-06-01T09:37:56.000Z</time>
      </trkpt>
      <trkpt lat="46.4352" lon="5.93114">
        <ele>991</ele>
        <time>2014-06-01T09:37:58.000Z</time>
      </trkpt>
      <trkpt lat="46.43523" lon="5.93111">
        <ele>991.40002441406</ele>
        <time>2014-06-01T09:38:02.000Z</time>
      </trkpt>
      <trkpt lat="46.43528" lon="5.93105">
        <ele>992.40002441406</ele>
        <time>2014-06-01T09:38:09.000Z</time>
      </trkpt>
      <trkpt lat="46.43536" lon="5.93104">
        <ele>993.79998779297</ele>
        <time>2014-06-01T09:38:13.000Z</time>
      </trkpt>
      <trkpt lat="46.43547" lon="5.93106">
        <ele>995.59997558594</ele>
        <time>2014-06-01T09:38:17.000Z</time>
      </trkpt>
      <trkpt lat="46.43557" lon="5.93108">
        <ele>997.40002441406</ele>
        <time>2014-06-01T09:38:22.000Z</time>
      </trkpt>
      <trkpt lat="46.43564" lon="5.93106">
        <ele>998.40002441406</ele>
        <time>2014-06-01T09:38:26.000Z</time>
      </trkpt>
      <trkpt lat="46.43566" lon="5.93105">
        <ele>998.79998779297</ele>
        <time>2014-06-01T09:38:28.000Z</time>
      </trkpt>
      <trkpt lat="46.43578" lon="5.93091">
        <ele>999.59997558594</ele>
        <time>2014-06-01T09:38:34.000Z</time>
      </trkpt>
      <trkpt lat="46.43581" lon="5.93085">
        <ele>999.79998779297</ele>
        <time>2014-06-01T09:38:36.000Z</time>
      </trkpt>
      <trkpt lat="46.4359" lon="5.93078">
        <ele>1000.4000244141</ele>
        <time>2014-06-01T09:38:42.000Z</time>
      </trkpt>
      <trkpt lat="46.43595" lon="5.93074">
        <ele>1001</ele>
        <time>2014-06-01T09:38:44.000Z</time>
      </trkpt>
      <trkpt lat="46.43601" lon="5.9307">
        <ele>1001.5999755859</ele>
        <time>2014-06-01T09:38:49.000Z</time>
      </trkpt>
      <trkpt lat="46.43602" lon="5.9307">
        <ele>1001.5999755859</ele>
        <time>2014-06-01T09:38:50.000Z</time>
      </trkpt>
      <trkpt lat="46.43608" lon="5.93068">
        <ele>1002.4000244141</ele>
        <time>2014-06-01T09:38:54.000Z</time>
      </trkpt>
      <trkpt lat="46.43612" lon="5.93064">
        <ele>1002.799987793</ele>
        <time>2014-06-01T09:38:59.000Z</time>
      </trkpt>
      <trkpt lat="46.43612" lon="5.93063">
        <ele>1002.799987793</ele>
        <time>2014-06-01T09:39:00.000Z</time>
      </trkpt>
      <trkpt lat="46.4362" lon="5.93065">
        <ele>1003.799987793</ele>
        <time>2014-06-01T09:39:07.000Z</time>
      </trkpt>
      <trkpt lat="46.43627" lon="5.9308">
        <ele>1004.799987793</ele>
        <time>2014-06-01T09:39:13.000Z</time>
      </trkpt>
      <trkpt lat="46.43631" lon="5.93087">
        <ele>1005.5999755859</ele>
        <time>2014-06-01T09:39:16.000Z</time>
      </trkpt>
      <trkpt lat="46.43638" lon="5.93104">
        <ele>1006.799987793</ele>
        <time>2014-06-01T09:39:22.000Z</time>
      </trkpt>
      <trkpt lat="46.43639" lon="5.9311">
        <ele>1007</ele>
        <time>2014-06-01T09:39:24.000Z</time>
      </trkpt>
      <trkpt lat="46.43645" lon="5.93124">
        <ele>1008.200012207</ele>
        <time>2014-06-01T09:39:29.000Z</time>
      </trkpt>
      <trkpt lat="46.4365" lon="5.93132">
        <ele>1008.799987793</ele>
        <time>2014-06-01T09:39:33.000Z</time>
      </trkpt>
      <trkpt lat="46.43655" lon="5.93138">
        <ele>1009.4000244141</ele>
        <time>2014-06-01T09:39:38.000Z</time>
      </trkpt>
      <trkpt lat="46.43659" lon="5.93145">
        <ele>1010</ele>
        <time>2014-06-01T09:39:42.000Z</time>
      </trkpt>
      <trkpt lat="46.43664" lon="5.93151">
        <ele>1010.799987793</ele>
        <time>2014-06-01T09:39:48.000Z</time>
      </trkpt>
      <trkpt lat="46.43666" lon="5.93153">
        <ele>1011</ele>
        <time>2014-06-01T09:39:49.000Z</time>
      </trkpt>
      <trkpt lat="46.43676" lon="5.93159">
        <ele>1012</ele>
        <time>2014-06-01T09:39:53.000Z</time>
      </trkpt>
      <trkpt lat="46.43682" lon="5.93165">
        <ele>1012.799987793</ele>
        <time>2014-06-01T09:39:56.000Z</time>
      </trkpt>
      <trkpt lat="46.43684" lon="5.93165">
        <ele>1013</ele>
        <time>2014-06-01T09:39:58.000Z</time>
      </trkpt>
      <trkpt lat="46.43687" lon="5.93165">
        <ele>1013.200012207</ele>
        <time>2014-06-01T09:40:02.000Z</time>
      </trkpt>
      <trkpt lat="46.43701" lon="5.93171">
        <ele>1014.5999755859</ele>
        <time>2014-06-01T09:40:08.000Z</time>
      </trkpt>
      <trkpt lat="46.43703" lon="5.93173">
        <ele>1014.799987793</ele>
        <time>2014-06-01T09:40:10.000Z</time>
      </trkpt>
      <trkpt lat="46.43711" lon="5.93177">
        <ele>1015.5999755859</ele>
        <time>2014-06-01T09:40:15.000Z</time>
      </trkpt>
      <trkpt lat="46.43717" lon="5.93183">
        <ele>1016.4000244141</ele>
        <time>2014-06-01T09:40:20.000Z</time>
      </trkpt>
      <trkpt lat="46.43718" lon="5.93187">
        <ele>1016.799987793</ele>
        <time>2014-06-01T09:40:23.000Z</time>
      </trkpt>
      <trkpt lat="46.43725" lon="5.93191">
        <ele>1017.5999755859</ele>
        <time>2014-06-01T09:40:28.000Z</time>
      </trkpt>
      <trkpt lat="46.43738" lon="5.93195">
        <ele>1018.5999755859</ele>
        <time>2014-06-01T09:40:35.000Z</time>
      </trkpt>
      <trkpt lat="46.43752" lon="5.93205">
        <ele>1019.799987793</ele>
        <time>2014-06-01T09:40:40.000Z</time>
      </trkpt>
      <trkpt lat="46.43763" lon="5.93208">
        <ele>1020.5999755859</ele>
        <time>2014-06-01T09:40:45.000Z</time>
      </trkpt>
      <trkpt lat="46.43765" lon="5.93207">
        <ele>1020.5999755859</ele>
        <time>2014-06-01T09:40:48.000Z</time>
      </trkpt>
      <trkpt lat="46.43768" lon="5.93207">
        <ele>1020.5999755859</ele>
        <time>2014-06-01T09:40:50.000Z</time>
      </trkpt>
      <trkpt lat="46.43773" lon="5.93212">
        <ele>1021.200012207</ele>
        <time>2014-06-01T09:40:55.000Z</time>
      </trkpt>
      <trkpt lat="46.43781" lon="5.93211">
        <ele>1021.5999755859</ele>
        <time>2014-06-01T09:40:59.000Z</time>
      </trkpt>
      <trkpt lat="46.43784" lon="5.93206">
        <ele>1021.4000244141</ele>
        <time>2014-06-01T09:41:02.000Z</time>
      </trkpt>
      <trkpt lat="46.43785" lon="5.932">
        <ele>1021</ele>
        <time>2014-06-01T09:41:04.000Z</time>
      </trkpt>
      <trkpt lat="46.4379" lon="5.93189">
        <ele>1020.4000244141</ele>
        <time>2014-06-01T09:41:09.000Z</time>
      </trkpt>
      <trkpt lat="46.43791" lon="5.9319">
        <ele>1020.5999755859</ele>
        <time>2014-06-01T09:41:10.000Z</time>
      </trkpt>
      <trkpt lat="46.43798" lon="5.93197">
        <ele>1021.4000244141</ele>
        <time>2014-06-01T09:41:15.000Z</time>
      </trkpt>
      <trkpt lat="46.43801" lon="5.93198">
        <ele>1021.4000244141</ele>
        <time>2014-06-01T09:41:17.000Z</time>
      </trkpt>
      <trkpt lat="46.43806" lon="5.93198">
        <ele>1021.5999755859</ele>
        <time>2014-06-01T09:41:21.000Z</time>
      </trkpt>
      <trkpt lat="46.43815" lon="5.93197">
        <ele>1021.799987793</ele>
        <time>2014-06-01T09:41:25.000Z</time>
      </trkpt>
      <trkpt lat="46.43825" lon="5.93192">
        <ele>1020.799987793</ele>
        <time>2014-06-01T09:41:32.000Z</time>
      </trkpt>
      <trkpt lat="46.43828" lon="5.93192">
        <ele>1020.799987793</ele>
        <time>2014-06-01T09:41:35.000Z</time>
      </trkpt>
      <trkpt lat="46.4384" lon="5.93194">
        <ele>1020.4000244141</ele>
        <time>2014-06-01T09:41:40.000Z</time>
      </trkpt>
      <trkpt lat="46.43845" lon="5.93197">
        <ele>1020.4000244141</ele>
        <time>2014-06-01T09:41:42.000Z</time>
      </trkpt>
      <trkpt lat="46.4385" lon="5.93201">
        <ele>1020.4000244141</ele>
        <time>2014-06-01T09:41:44.000Z</time>
      </trkpt>
      <trkpt lat="46.43853" lon="5.93203">
        <ele>1020.4000244141</ele>
        <time>2014-06-01T09:41:49.000Z</time>
      </trkpt>
      <trkpt lat="46.43858" lon="5.93217">
        <ele>1021.4000244141</ele>
        <time>2014-06-01T09:41:56.000Z</time>
      </trkpt>
      <trkpt lat="46.43857" lon="5.93222">
        <ele>1021.799987793</ele>
        <time>2014-06-01T09:41:59.000Z</time>
      </trkpt>
      <trkpt lat="46.43854" lon="5.93226">
        <ele>1022.200012207</ele>
        <time>2014-06-01T09:42:02.000Z</time>
      </trkpt>
      <trkpt lat="46.4386" lon="5.93232">
        <ele>1022.200012207</ele>
        <time>2014-06-01T09:42:08.000Z</time>
      </trkpt>
      <trkpt lat="46.43866" lon="5.93241">
        <ele>1022.200012207</ele>
        <time>2014-06-01T09:42:14.000Z</time>
      </trkpt>
      <trkpt lat="46.43866" lon="5.93243">
        <ele>1022.200012207</ele>
        <time>2014-06-01T09:42:15.000Z</time>
      </trkpt>
      <trkpt lat="46.43867" lon="5.93247">
        <ele>1022.4000244141</ele>
        <time>2014-06-01T09:42:17.000Z</time>
      </trkpt>
      <trkpt lat="46.43867" lon="5.93259">
        <ele>1022.799987793</ele>
        <time>2014-06-01T09:42:22.000Z</time>
      </trkpt>
      <trkpt lat="46.43867" lon="5.93264">
        <ele>1023</ele>
        <time>2014-06-01T09:42:24.000Z</time>
      </trkpt>
      <trkpt lat="46.43871" lon="5.93272">
        <ele>1023</ele>
        <time>2014-06-01T09:42:30.000Z</time>
      </trkpt>
      <trkpt lat="46.43872" lon="5.93274">
        <ele>1023.200012207</ele>
        <time>2014-06-01T09:42:31.000Z</time>
      </trkpt>
      <trkpt lat="46.43876" lon="5.93289">
        <ele>1023.4000244141</ele>
        <time>2014-06-01T09:42:36.000Z</time>
      </trkpt>
      <trkpt lat="46.43887" lon="5.93302">
        <ele>1023.4000244141</ele>
        <time>2014-06-01T09:42:41.000Z</time>
      </trkpt>
      <trkpt lat="46.43893" lon="5.93311">
        <ele>1023.200012207</ele>
        <time>2014-06-01T09:42:44.000Z</time>
      </trkpt>
      <trkpt lat="46.43897" lon="5.93309">
        <ele>1023</ele>
        <time>2014-06-01T09:42:50.000Z</time>
      </trkpt>
      <trkpt lat="46.43897" lon="5.93311">
        <ele>1023</ele>
        <time>2014-06-01T09:42:54.000Z</time>
      </trkpt>
      <trkpt lat="46.439" lon="5.93322">
        <ele>1022.799987793</ele>
        <time>2014-06-01T09:42:58.000Z</time>
      </trkpt>
      <trkpt lat="46.43905" lon="5.93332">
        <ele>1022.200012207</ele>
        <time>2014-06-01T09:43:03.000Z</time>
      </trkpt>
      <trkpt lat="46.43908" lon="5.93341">
        <ele>1022</ele>
        <time>2014-06-01T09:43:06.000Z</time>
      </trkpt>
      <trkpt lat="46.4392" lon="5.9335">
        <ele>1021</ele>
        <time>2014-06-01T09:43:10.000Z</time>
      </trkpt>
      <trkpt lat="46.43931" lon="5.93363">
        <ele>1020</ele>
        <time>2014-06-01T09:43:14.000Z</time>
      </trkpt>
      <trkpt lat="46.43935" lon="5.93381">
        <ele>1019.5999755859</ele>
        <time>2014-06-01T09:43:19.000Z</time>
      </trkpt>
      <trkpt lat="46.43942" lon="5.93391">
        <ele>1019</ele>
        <time>2014-06-01T09:43:22.000Z</time>
      </trkpt>
      <trkpt lat="46.43953" lon="5.93402">
        <ele>1018.200012207</ele>
        <time>2014-06-01T09:43:27.000Z</time>
      </trkpt>
      <trkpt lat="46.43958" lon="5.93412">
        <ele>1018</ele>
        <time>2014-06-01T09:43:31.000Z</time>
      </trkpt>
      <trkpt lat="46.43959" lon="5.93414">
        <ele>1018</ele>
        <time>2014-06-01T09:43:32.000Z</time>
      </trkpt>
      <trkpt lat="46.43962" lon="5.93421">
        <ele>1017.799987793</ele>
        <time>2014-06-01T09:43:36.000Z</time>
      </trkpt>
      <trkpt lat="46.43974" lon="5.93432">
        <ele>1017.200012207</ele>
        <time>2014-06-01T09:43:42.000Z</time>
      </trkpt>
      <trkpt lat="46.43975" lon="5.93435">
        <ele>1017</ele>
        <time>2014-06-01T09:43:43.000Z</time>
      </trkpt>
      <trkpt lat="46.43983" lon="5.93443">
        <ele>1016.5999755859</ele>
        <time>2014-06-01T09:43:49.000Z</time>
      </trkpt>
      <trkpt lat="46.43984" lon="5.93444">
        <ele>1016.5999755859</ele>
        <time>2014-06-01T09:43:56.000Z</time>
      </trkpt>
      <trkpt lat="46.43989" lon="5.93445">
        <ele>1016.200012207</ele>
        <time>2014-06-01T09:44:01.000Z</time>
      </trkpt>
      <trkpt lat="46.4399" lon="5.93449">
        <ele>1016.200012207</ele>
        <time>2014-06-01T09:44:07.000Z</time>
      </trkpt>
      <trkpt lat="46.43996" lon="5.93452">
        <ele>1016</ele>
        <time>2014-06-01T09:44:16.000Z</time>
      </trkpt>
      <trkpt lat="46.43996" lon="5.93453">
        <ele>1016</ele>
        <time>2014-06-01T09:44:17.000Z</time>
      </trkpt>
      <trkpt lat="46.43988" lon="5.93469">
        <ele>1016.5999755859</ele>
        <time>2014-06-01T09:44:23.000Z</time>
      </trkpt>
      <trkpt lat="46.43985" lon="5.93473">
        <ele>1016.799987793</ele>
        <time>2014-06-01T09:44:25.000Z</time>
      </trkpt>
      <trkpt lat="46.43979" lon="5.9349">
        <ele>1016.799987793</ele>
        <time>2014-06-01T09:44:31.000Z</time>
      </trkpt>
      <trkpt lat="46.43975" lon="5.93497">
        <ele>1016.5999755859</ele>
        <time>2014-06-01T09:44:33.000Z</time>
      </trkpt>
      <trkpt lat="46.4397" lon="5.93502">
        <ele>1016.5999755859</ele>
        <time>2014-06-01T09:44:36.000Z</time>
      </trkpt>
      <trkpt lat="46.43965" lon="5.93505">
        <ele>1016.4000244141</ele>
        <time>2014-06-01T09:44:39.000Z</time>
      </trkpt>
      <trkpt lat="46.43956" lon="5.93512">
        <ele>1016.200012207</ele>
        <time>2014-06-01T09:44:44.000Z</time>
      </trkpt>
      <trkpt lat="46.43955" lon="5.93517">
        <ele>1016.200012207</ele>
        <time>2014-06-01T09:44:48.000Z</time>
      </trkpt>
      <trkpt lat="46.43954" lon="5.93519">
        <ele>1016.200012207</ele>
        <time>2014-06-01T09:44:50.000Z</time>
      </trkpt>
      <trkpt lat="46.43952" lon="5.93529">
        <ele>1016</ele>
        <time>2014-06-01T09:44:57.000Z</time>
      </trkpt>
      <trkpt lat="46.4395" lon="5.93532">
        <ele>1015.799987793</ele>
        <time>2014-06-01T09:45:00.000Z</time>
      </trkpt>
      <trkpt lat="46.43947" lon="5.93531">
        <ele>1015.799987793</ele>
        <time>2014-06-01T09:45:03.000Z</time>
      </trkpt>
      <trkpt lat="46.4394" lon="5.93537">
        <ele>1015.4000244141</ele>
        <time>2014-06-01T09:45:09.000Z</time>
      </trkpt>
      <trkpt lat="46.43938" lon="5.93544">
        <ele>1015.200012207</ele>
        <time>2014-06-01T09:45:13.000Z</time>
      </trkpt>
      <trkpt lat="46.43937" lon="5.9355">
        <ele>1015</ele>
        <time>2014-06-01T09:45:17.000Z</time>
      </trkpt>
      <trkpt lat="46.43937" lon="5.93564">
        <ele>1014.799987793</ele>
        <time>2014-06-01T09:45:23.000Z</time>
      </trkpt>
      <trkpt lat="46.43938" lon="5.93566">
        <ele>1014.799987793</ele>
        <time>2014-06-01T09:45:24.000Z</time>
      </trkpt>
      <trkpt lat="46.43941" lon="5.93569">
        <ele>1014.799987793</ele>
        <time>2014-06-01T09:45:28.000Z</time>
      </trkpt>
      <trkpt lat="46.43941" lon="5.93572">
        <ele>1014.799987793</ele>
        <time>2014-06-01T09:45:36.000Z</time>
      </trkpt>
      <trkpt lat="46.43942" lon="5.9357">
        <ele>1014.799987793</ele>
        <time>2014-06-01T09:45:46.000Z</time>
      </trkpt>
      <trkpt lat="46.43937" lon="5.93574">
        <ele>1014.799987793</ele>
        <time>2014-06-01T09:45:54.000Z</time>
      </trkpt>
      <trkpt lat="46.43934" lon="5.93577">
        <ele>1014.5999755859</ele>
        <time>2014-06-01T09:45:56.000Z</time>
      </trkpt>
      <trkpt lat="46.43925" lon="5.93589">
        <ele>1014.4000244141</ele>
        <time>2014-06-01T09:46:01.000Z</time>
      </trkpt>
      <trkpt lat="46.43921" lon="5.93599">
        <ele>1014.4000244141</ele>
        <time>2014-06-01T09:46:07.000Z</time>
      </trkpt>
      <trkpt lat="46.4392" lon="5.936">
        <ele>1014.5999755859</ele>
        <time>2014-06-01T09:46:08.000Z</time>
      </trkpt>
      <trkpt lat="46.43919" lon="5.93601">
        <ele>1014.5999755859</ele>
        <time>2014-06-01T09:46:10.000Z</time>
      </trkpt>
      <trkpt lat="46.43918" lon="5.93608">
        <ele>1014.5999755859</ele>
        <time>2014-06-01T09:46:15.000Z</time>
      </trkpt>
      <trkpt lat="46.43914" lon="5.93615">
        <ele>1014.5999755859</ele>
        <time>2014-06-01T09:46:20.000Z</time>
      </trkpt>
      <trkpt lat="46.43912" lon="5.93619">
        <ele>1014.799987793</ele>
        <time>2014-06-01T09:46:22.000Z</time>
      </trkpt>
      <trkpt lat="46.43909" lon="5.93632">
        <ele>1014.799987793</ele>
        <time>2014-06-01T09:46:28.000Z</time>
      </trkpt>
      <trkpt lat="46.43909" lon="5.93638">
        <ele>1015</ele>
        <time>2014-06-01T09:46:30.000Z</time>
      </trkpt>
      <trkpt lat="46.43914" lon="5.93641">
        <ele>1015</ele>
        <time>2014-06-01T09:46:35.000Z</time>
      </trkpt>
      <trkpt lat="46.43926" lon="5.93641">
        <ele>1015</ele>
        <time>2014-06-01T09:46:40.000Z</time>
      </trkpt>
      <trkpt lat="46.4394" lon="5.93644">
        <ele>1014.799987793</ele>
        <time>2014-06-01T09:46:46.000Z</time>
      </trkpt>
      <trkpt lat="46.4394" lon="5.93645">
        <ele>1014.799987793</ele>
        <time>2014-06-01T09:46:50.000Z</time>
      </trkpt>
      <trkpt lat="46.43945" lon="5.93646">
        <ele>1014.799987793</ele>
        <time>2014-06-01T09:46:59.000Z</time>
      </trkpt>
      <trkpt lat="46.43956" lon="5.93648">
        <ele>1014.799987793</ele>
        <time>2014-06-01T09:47:04.000Z</time>
      </trkpt>
      <trkpt lat="46.4397" lon="5.93655">
        <ele>1014.4000244141</ele>
        <time>2014-06-01T09:47:09.000Z</time>
      </trkpt>
      <trkpt lat="46.43983" lon="5.93671">
        <ele>1013.799987793</ele>
        <time>2014-06-01T09:47:14.000Z</time>
      </trkpt>
      <trkpt lat="46.43988" lon="5.93675">
        <ele>1013.5999755859</ele>
        <time>2014-06-01T09:47:16.000Z</time>
      </trkpt>
      <trkpt lat="46.43998" lon="5.93687">
        <ele>1013</ele>
        <time>2014-06-01T09:47:22.000Z</time>
      </trkpt>
      <trkpt lat="46.44016" lon="5.93692">
        <ele>1012.4000244141</ele>
        <time>2014-06-01T09:47:27.000Z</time>
      </trkpt>
      <trkpt lat="46.44027" lon="5.93698">
        <ele>1011.799987793</ele>
        <time>2014-06-01T09:47:30.000Z</time>
      </trkpt>
      <trkpt lat="46.44046" lon="5.93709">
        <ele>1011</ele>
        <time>2014-06-01T09:47:35.000Z</time>
      </trkpt>
      <trkpt lat="46.44052" lon="5.93715">
        <ele>1010.5999755859</ele>
        <time>2014-06-01T09:47:37.000Z</time>
      </trkpt>
      <trkpt lat="46.44068" lon="5.93728">
        <ele>1010</ele>
        <time>2014-06-01T09:47:42.000Z</time>
      </trkpt>
      <trkpt lat="46.44078" lon="5.93739">
        <ele>1010.200012207</ele>
        <time>2014-06-01T09:47:47.000Z</time>
      </trkpt>
      <trkpt lat="46.44096" lon="5.9374">
        <ele>1010.4000244141</ele>
        <time>2014-06-01T09:47:52.000Z</time>
      </trkpt>
      <trkpt lat="46.44099" lon="5.93741">
        <ele>1010.4000244141</ele>
        <time>2014-06-01T09:47:53.000Z</time>
      </trkpt>
      <trkpt lat="46.44116" lon="5.93757">
        <ele>1010.5999755859</ele>
        <time>2014-06-01T09:47:59.000Z</time>
      </trkpt>
      <trkpt lat="46.44128" lon="5.93781">
        <ele>1010.799987793</ele>
        <time>2014-06-01T09:48:04.000Z</time>
      </trkpt>
      <trkpt lat="46.44139" lon="5.9379">
        <ele>1010.799987793</ele>
        <time>2014-06-01T09:48:08.000Z</time>
      </trkpt>
      <trkpt lat="46.44152" lon="5.938">
        <ele>1011</ele>
        <time>2014-06-01T09:48:12.000Z</time>
      </trkpt>
      <trkpt lat="46.44169" lon="5.93809">
        <ele>1010.799987793</ele>
        <time>2014-06-01T09:48:17.000Z</time>
      </trkpt>
      <trkpt lat="46.44182" lon="5.93818">
        <ele>1010.5999755859</ele>
        <time>2014-06-01T09:48:21.000Z</time>
      </trkpt>
      <trkpt lat="46.44196" lon="5.93828">
        <ele>1010.4000244141</ele>
        <time>2014-06-01T09:48:26.000Z</time>
      </trkpt>
      <trkpt lat="46.442" lon="5.93828">
        <ele>1010.4000244141</ele>
        <time>2014-06-01T09:48:31.000Z</time>
      </trkpt>
      <trkpt lat="46.44202" lon="5.93829">
        <ele>1010.4000244141</ele>
        <time>2014-06-01T09:48:32.000Z</time>
      </trkpt>
      <trkpt lat="46.44205" lon="5.93831">
        <ele>1010.4000244141</ele>
        <time>2014-06-01T09:48:34.000Z</time>
      </trkpt>
      <trkpt lat="46.44212" lon="5.93843">
        <ele>1010.200012207</ele>
        <time>2014-06-01T09:48:39.000Z</time>
      </trkpt>
      <trkpt lat="46.44228" lon="5.9385">
        <ele>1010</ele>
        <time>2014-06-01T09:48:45.000Z</time>
      </trkpt>
      <trkpt lat="46.44239" lon="5.93851">
        <ele>1009.5999755859</ele>
        <time>2014-06-01T09:48:49.000Z</time>
      </trkpt>
      <trkpt lat="46.44241" lon="5.93853">
        <ele>1009.5999755859</ele>
        <time>2014-06-01T09:48:50.000Z</time>
      </trkpt>
      <trkpt lat="46.44251" lon="5.93857">
        <ele>1009.200012207</ele>
        <time>2014-06-01T09:48:54.000Z</time>
      </trkpt>
      <trkpt lat="46.44271" lon="5.93874">
        <ele>1008.200012207</ele>
        <time>2014-06-01T09:49:01.000Z</time>
      </trkpt>
      <trkpt lat="46.44285" lon="5.93885">
        <ele>1007.4000244141</ele>
        <time>2014-06-01T09:49:05.000Z</time>
      </trkpt>
      <trkpt lat="46.44297" lon="5.93895">
        <ele>1007</ele>
        <time>2014-06-01T09:49:09.000Z</time>
      </trkpt>
      <trkpt lat="46.4431" lon="5.93906">
        <ele>1006.5999755859</ele>
        <time>2014-06-01T09:49:13.000Z</time>
      </trkpt>
      <trkpt lat="46.44324" lon="5.93916">
        <ele>1006.5999755859</ele>
        <time>2014-06-01T09:49:18.000Z</time>
      </trkpt>
      <trkpt lat="46.44338" lon="5.93925">
        <ele>1006.799987793</ele>
        <time>2014-06-01T09:49:23.000Z</time>
      </trkpt>
      <trkpt lat="46.44352" lon="5.93935">
        <ele>1007</ele>
        <time>2014-06-01T09:49:28.000Z</time>
      </trkpt>
      <trkpt lat="46.4436" lon="5.93939">
        <ele>1007.200012207</ele>
        <time>2014-06-01T09:49:32.000Z</time>
      </trkpt>
      <trkpt lat="46.44371" lon="5.93946">
        <ele>1007.4000244141</ele>
        <time>2014-06-01T09:49:37.000Z</time>
      </trkpt>
      <trkpt lat="46.44377" lon="5.93954">
        <ele>1007.5999755859</ele>
        <time>2014-06-01T09:49:42.000Z</time>
      </trkpt>
      <trkpt lat="46.44379" lon="5.93956">
        <ele>1007.5999755859</ele>
        <time>2014-06-01T09:49:45.000Z</time>
      </trkpt>
      <trkpt lat="46.4439" lon="5.93967">
        <ele>1007.799987793</ele>
        <time>2014-06-01T09:49:50.000Z</time>
      </trkpt>
      <trkpt lat="46.44402" lon="5.93978">
        <ele>1008.200012207</ele>
        <time>2014-06-01T09:49:54.000Z</time>
      </trkpt>
      <trkpt lat="46.44415" lon="5.9398">
        <ele>1008.200012207</ele>
        <time>2014-06-01T09:49:57.000Z</time>
      </trkpt>
      <trkpt lat="46.44423" lon="5.93986">
        <ele>1008.4000244141</ele>
        <time>2014-06-01T09:50:02.000Z</time>
      </trkpt>
      <trkpt lat="46.44424" lon="5.93995">
        <ele>1009</ele>
        <time>2014-06-01T09:50:09.000Z</time>
      </trkpt>
      <trkpt lat="46.44433" lon="5.94005">
        <ele>1009.4000244141</ele>
        <time>2014-06-01T09:50:15.000Z</time>
      </trkpt>
      <trkpt lat="46.44441" lon="5.94017">
        <ele>1010</ele>
        <time>2014-06-01T09:50:20.000Z</time>
      </trkpt>
      <trkpt lat="46.44444" lon="5.94022">
        <ele>1010.200012207</ele>
        <time>2014-06-01T09:50:22.000Z</time>
      </trkpt>
      <trkpt lat="46.44454" lon="5.94037">
        <ele>1011</ele>
        <time>2014-06-01T09:50:28.000Z</time>
      </trkpt>
      <trkpt lat="46.44458" lon="5.94044">
        <ele>1011.200012207</ele>
        <time>2014-06-01T09:50:32.000Z</time>
      </trkpt>
      <trkpt lat="46.44465" lon="5.94053">
        <ele>1011.5999755859</ele>
        <time>2014-06-01T09:50:36.000Z</time>
      </trkpt>
      <trkpt lat="46.44474" lon="5.94068">
        <ele>1012.5999755859</ele>
        <time>2014-06-01T09:50:42.000Z</time>
      </trkpt>
      <trkpt lat="46.44479" lon="5.94081">
        <ele>1013.5999755859</ele>
        <time>2014-06-01T09:50:46.000Z</time>
      </trkpt>
      <trkpt lat="46.44486" lon="5.94094">
        <ele>1014.5999755859</ele>
        <time>2014-06-01T09:50:50.000Z</time>
      </trkpt>
      <trkpt lat="46.44492" lon="5.94104">
        <ele>1015.4000244141</ele>
        <time>2014-06-01T09:50:54.000Z</time>
      </trkpt>
      <trkpt lat="46.44497" lon="5.94115">
        <ele>1016.200012207</ele>
        <time>2014-06-01T09:50:58.000Z</time>
      </trkpt>
      <trkpt lat="46.44501" lon="5.9412">
        <ele>1016.5999755859</ele>
        <time>2014-06-01T09:51:00.000Z</time>
      </trkpt>
      <trkpt lat="46.44508" lon="5.94129">
        <ele>1017.200012207</ele>
        <time>2014-06-01T09:51:05.000Z</time>
      </trkpt>
      <trkpt lat="46.4451" lon="5.94131">
        <ele>1017.200012207</ele>
        <time>2014-06-01T09:51:06.000Z</time>
      </trkpt>
      <trkpt lat="46.44514" lon="5.94136">
        <ele>1017.5999755859</ele>
        <time>2014-06-01T09:51:09.000Z</time>
      </trkpt>
      <trkpt lat="46.44526" lon="5.94148">
        <ele>1018.5999755859</ele>
        <time>2014-06-01T09:51:14.000Z</time>
      </trkpt>
      <trkpt lat="46.44531" lon="5.94152">
        <ele>1019</ele>
        <time>2014-06-01T09:51:18.000Z</time>
      </trkpt>
      <trkpt lat="46.4454" lon="5.94161">
        <ele>1019.5999755859</ele>
        <time>2014-06-01T09:51:23.000Z</time>
      </trkpt>
      <trkpt lat="46.44549" lon="5.94171">
        <ele>1020.5999755859</ele>
        <time>2014-06-01T09:51:27.000Z</time>
      </trkpt>
      <trkpt lat="46.44551" lon="5.94177">
        <ele>1021</ele>
        <time>2014-06-01T09:51:29.000Z</time>
      </trkpt>
      <trkpt lat="46.44558" lon="5.94197">
        <ele>1022.799987793</ele>
        <time>2014-06-01T09:51:35.000Z</time>
      </trkpt>
      <trkpt lat="46.4456" lon="5.942">
        <ele>1023</ele>
        <time>2014-06-01T09:51:36.000Z</time>
      </trkpt>
      <trkpt lat="46.44573" lon="5.94213">
        <ele>1023.4000244141</ele>
        <time>2014-06-01T09:51:41.000Z</time>
      </trkpt>
      <trkpt lat="46.44586" lon="5.94233">
        <ele>1023.799987793</ele>
        <time>2014-06-01T09:51:47.000Z</time>
      </trkpt>
      <trkpt lat="46.44594" lon="5.94255">
        <ele>1024.4000244141</ele>
        <time>2014-06-01T09:51:53.000Z</time>
      </trkpt>
      <trkpt lat="46.446" lon="5.94268">
        <ele>1024.1999511719</ele>
        <time>2014-06-01T09:51:57.000Z</time>
      </trkpt>
      <trkpt lat="46.44602" lon="5.94291">
        <ele>1024.4000244141</ele>
        <time>2014-06-01T09:52:03.000Z</time>
      </trkpt>
      <trkpt lat="46.44605" lon="5.94308">
        <ele>1024.5999755859</ele>
        <time>2014-06-01T09:52:08.000Z</time>
      </trkpt>
      <trkpt lat="46.44607" lon="5.94322">
        <ele>1025.8000488281</ele>
        <time>2014-06-01T09:52:12.000Z</time>
      </trkpt>
      <trkpt lat="46.44606" lon="5.94346">
        <ele>1027.8000488281</ele>
        <time>2014-06-01T09:52:17.000Z</time>
      </trkpt>
      <trkpt lat="46.44602" lon="5.94361">
        <ele>1028.4000244141</ele>
        <time>2014-06-01T09:52:21.000Z</time>
      </trkpt>
      <trkpt lat="46.44598" lon="5.94381">
        <ele>1029</ele>
        <time>2014-06-01T09:52:26.000Z</time>
      </trkpt>
      <trkpt lat="46.44598" lon="5.94391">
        <ele>1029.4000244141</ele>
        <time>2014-06-01T09:52:29.000Z</time>
      </trkpt>
      <trkpt lat="46.44593" lon="5.94411">
        <ele>1030.1999511719</ele>
        <time>2014-06-01T09:52:35.000Z</time>
      </trkpt>
      <trkpt lat="46.44592" lon="5.94431">
        <ele>1030.8000488281</ele>
        <time>2014-06-01T09:52:40.000Z</time>
      </trkpt>
      <trkpt lat="46.44591" lon="5.94448">
        <ele>1031</ele>
        <time>2014-06-01T09:52:44.000Z</time>
      </trkpt>
      <trkpt lat="46.44587" lon="5.94458">
        <ele>1030.8000488281</ele>
        <time>2014-06-01T09:52:47.000Z</time>
      </trkpt>
      <trkpt lat="46.44586" lon="5.94466">
        <ele>1030.8000488281</ele>
        <time>2014-06-01T09:52:49.000Z</time>
      </trkpt>
      <trkpt lat="46.44582" lon="5.94492">
        <ele>1031</ele>
        <time>2014-06-01T09:52:55.000Z</time>
      </trkpt>
      <trkpt lat="46.44574" lon="5.94511">
        <ele>1030.8000488281</ele>
        <time>2014-06-01T09:53:00.000Z</time>
      </trkpt>
      <trkpt lat="46.44572" lon="5.94518">
        <ele>1030.8000488281</ele>
        <time>2014-06-01T09:53:02.000Z</time>
      </trkpt>
      <trkpt lat="46.44575" lon="5.94538">
        <ele>1031.1999511719</ele>
        <time>2014-06-01T09:53:07.000Z</time>
      </trkpt>
      <trkpt lat="46.44565" lon="5.9455">
        <ele>1031</ele>
        <time>2014-06-01T09:53:11.000Z</time>
      </trkpt>
      <trkpt lat="46.44556" lon="5.94561">
        <ele>1031.1999511719</ele>
        <time>2014-06-01T09:53:15.000Z</time>
      </trkpt>
      <trkpt lat="46.44552" lon="5.94566">
        <ele>1031.4000244141</ele>
        <time>2014-06-01T09:53:17.000Z</time>
      </trkpt>
      <trkpt lat="46.44535" lon="5.94571">
        <ele>1031.8000488281</ele>
        <time>2014-06-01T09:53:23.000Z</time>
      </trkpt>
      <trkpt lat="46.44529" lon="5.94573">
        <ele>1032</ele>
        <time>2014-06-01T09:53:27.000Z</time>
      </trkpt>
      <trkpt lat="46.44525" lon="5.94582">
        <ele>1032.4000244141</ele>
        <time>2014-06-01T09:53:31.000Z</time>
      </trkpt>
      <trkpt lat="46.44517" lon="5.94593">
        <ele>1032.8000488281</ele>
        <time>2014-06-01T09:53:36.000Z</time>
      </trkpt>
      <trkpt lat="46.44509" lon="5.946">
        <ele>1033.4000244141</ele>
        <time>2014-06-01T09:53:40.000Z</time>
      </trkpt>
      <trkpt lat="46.44499" lon="5.94608">
        <ele>1034</ele>
        <time>2014-06-01T09:53:45.000Z</time>
      </trkpt>
      <trkpt lat="46.44487" lon="5.94612">
        <ele>1034.4000244141</ele>
        <time>2014-06-01T09:53:49.000Z</time>
      </trkpt>
      <trkpt lat="46.4448" lon="5.94616">
        <ele>1034.8000488281</ele>
        <time>2014-06-01T09:53:53.000Z</time>
      </trkpt>
      <trkpt lat="46.44472" lon="5.94625">
        <ele>1035.8000488281</ele>
        <time>2014-06-01T09:53:57.000Z</time>
      </trkpt>
      <trkpt lat="46.44469" lon="5.94627">
        <ele>1036</ele>
        <time>2014-06-01T09:53:59.000Z</time>
      </trkpt>
      <trkpt lat="46.44463" lon="5.94635">
        <ele>1037.1999511719</ele>
        <time>2014-06-01T09:54:03.000Z</time>
      </trkpt>
      <trkpt lat="46.44453" lon="5.94646">
        <ele>1039.1999511719</ele>
        <time>2014-06-01T09:54:09.000Z</time>
      </trkpt>
      <trkpt lat="46.44451" lon="5.9465">
        <ele>1039.8000488281</ele>
        <time>2014-06-01T09:54:13.000Z</time>
      </trkpt>
      <trkpt lat="46.44448" lon="5.94652">
        <ele>1040.1999511719</ele>
        <time>2014-06-01T09:54:17.000Z</time>
      </trkpt>
      <trkpt lat="46.4444" lon="5.94657">
        <ele>1041.4000244141</ele>
        <time>2014-06-01T09:54:23.000Z</time>
      </trkpt>
      <trkpt lat="46.44439" lon="5.94658">
        <ele>1041.5999755859</ele>
        <time>2014-06-01T09:54:24.000Z</time>
      </trkpt>
      <trkpt lat="46.44427" lon="5.94667">
        <ele>1043.4000244141</ele>
        <time>2014-06-01T09:54:32.000Z</time>
      </trkpt>
      <trkpt lat="46.44423" lon="5.9467">
        <ele>1044.1999511719</ele>
        <time>2014-06-01T09:54:36.000Z</time>
      </trkpt>
      <trkpt lat="46.44421" lon="5.94671">
        <ele>1044.5999755859</ele>
        <time>2014-06-01T09:54:38.000Z</time>
      </trkpt>
      <trkpt lat="46.44415" lon="5.94675">
        <ele>1045.5999755859</ele>
        <time>2014-06-01T09:54:43.000Z</time>
      </trkpt>
      <trkpt lat="46.4441" lon="5.94679">
        <ele>1046.4000244141</ele>
        <time>2014-06-01T09:54:48.000Z</time>
      </trkpt>
      <trkpt lat="46.44407" lon="5.94684">
        <ele>1047.1999511719</ele>
        <time>2014-06-01T09:54:53.000Z</time>
      </trkpt>
      <trkpt lat="46.44406" lon="5.94685">
        <ele>1047.4000244141</ele>
        <time>2014-06-01T09:54:54.000Z</time>
      </trkpt>
      <trkpt lat="46.444" lon="5.94693">
        <ele>1049</ele>
        <time>2014-06-01T09:55:00.000Z</time>
      </trkpt>
      <trkpt lat="46.44399" lon="5.94693">
        <ele>1049</ele>
        <time>2014-06-01T09:55:01.000Z</time>
      </trkpt>
      <trkpt lat="46.44397" lon="5.94703">
        <ele>1050.1999511719</ele>
        <time>2014-06-01T09:55:07.000Z</time>
      </trkpt>
      <trkpt lat="46.44405" lon="5.94712">
        <ele>1050.1999511719</ele>
        <time>2014-06-01T09:55:11.000Z</time>
      </trkpt>
      <trkpt lat="46.44417" lon="5.94729">
        <ele>1050.4000244141</ele>
        <time>2014-06-01T09:55:16.000Z</time>
      </trkpt>
      <trkpt lat="46.44427" lon="5.94738">
        <ele>1049.5999755859</ele>
        <time>2014-06-01T09:55:20.000Z</time>
      </trkpt>
      <trkpt lat="46.44434" lon="5.94753">
        <ele>1049.5999755859</ele>
        <time>2014-06-01T09:55:25.000Z</time>
      </trkpt>
      <trkpt lat="46.4444" lon="5.94766">
        <ele>1049.5999755859</ele>
        <time>2014-06-01T09:55:29.000Z</time>
      </trkpt>
      <trkpt lat="46.44449" lon="5.94777">
        <ele>1049.1999511719</ele>
        <time>2014-06-01T09:55:33.000Z</time>
      </trkpt>
      <trkpt lat="46.44456" lon="5.94788">
        <ele>1049</ele>
        <time>2014-06-01T09:55:37.000Z</time>
      </trkpt>
      <trkpt lat="46.44461" lon="5.94804">
        <ele>1049.4000244141</ele>
        <time>2014-06-01T09:55:42.000Z</time>
      </trkpt>
      <trkpt lat="46.44468" lon="5.94814">
        <ele>1049</ele>
        <time>2014-06-01T09:55:46.000Z</time>
      </trkpt>
      <trkpt lat="46.44479" lon="5.94835">
        <ele>1048.4000244141</ele>
        <time>2014-06-01T09:55:52.000Z</time>
      </trkpt>
      <trkpt lat="46.44486" lon="5.94852">
        <ele>1048.1999511719</ele>
        <time>2014-06-01T09:55:57.000Z</time>
      </trkpt>
      <trkpt lat="46.44494" lon="5.94862">
        <ele>1047.8000488281</ele>
        <time>2014-06-01T09:56:01.000Z</time>
      </trkpt>
      <trkpt lat="46.44499" lon="5.94878">
        <ele>1048</ele>
        <time>2014-06-01T09:56:06.000Z</time>
      </trkpt>
      <trkpt lat="46.44502" lon="5.94886">
        <ele>1048</ele>
        <time>2014-06-01T09:56:09.000Z</time>
      </trkpt>
      <trkpt lat="46.44496" lon="5.94901">
        <ele>1048.5999755859</ele>
        <time>2014-06-01T09:56:14.000Z</time>
      </trkpt>
      <trkpt lat="46.44491" lon="5.94903">
        <ele>1049.1999511719</ele>
        <time>2014-06-01T09:56:17.000Z</time>
      </trkpt>
      <trkpt lat="46.44488" lon="5.94905">
        <ele>1049.8000488281</ele>
        <time>2014-06-01T09:56:20.000Z</time>
      </trkpt>
      <trkpt lat="46.44484" lon="5.94909">
        <ele>1050.4000244141</ele>
        <time>2014-06-01T09:56:25.000Z</time>
      </trkpt>
      <trkpt lat="46.44478" lon="5.94915">
        <ele>1051.4000244141</ele>
        <time>2014-06-01T09:56:30.000Z</time>
      </trkpt>
      <trkpt lat="46.44475" lon="5.94917">
        <ele>1051.5999755859</ele>
        <time>2014-06-01T09:56:31.000Z</time>
      </trkpt>
      <trkpt lat="46.44465" lon="5.94922">
        <ele>1052.8000488281</ele>
        <time>2014-06-01T09:56:37.000Z</time>
      </trkpt>
      <trkpt lat="46.44463" lon="5.94923">
        <ele>1053</ele>
        <time>2014-06-01T09:56:39.000Z</time>
      </trkpt>
      <trkpt lat="46.44452" lon="5.9493">
        <ele>1054.4000244141</ele>
        <time>2014-06-01T09:56:45.000Z</time>
      </trkpt>
      <trkpt lat="46.44439" lon="5.94937">
        <ele>1055.5999755859</ele>
        <time>2014-06-01T09:56:50.000Z</time>
      </trkpt>
      <trkpt lat="46.44431" lon="5.94944">
        <ele>1056</ele>
        <time>2014-06-01T09:56:55.000Z</time>
      </trkpt>
      <trkpt lat="46.44422" lon="5.94952">
        <ele>1056.5999755859</ele>
        <time>2014-06-01T09:57:00.000Z</time>
      </trkpt>
      <trkpt lat="46.44411" lon="5.94959">
        <ele>1057.1999511719</ele>
        <time>2014-06-01T09:57:05.000Z</time>
      </trkpt>
      <trkpt lat="46.44398" lon="5.94964">
        <ele>1058</ele>
        <time>2014-06-01T09:57:10.000Z</time>
      </trkpt>
      <trkpt lat="46.44391" lon="5.94964">
        <ele>1058</ele>
        <time>2014-06-01T09:57:14.000Z</time>
      </trkpt>
      <trkpt lat="46.44387" lon="5.94966">
        <ele>1058</ele>
        <time>2014-06-01T09:57:16.000Z</time>
      </trkpt>
      <trkpt lat="46.44376" lon="5.94974">
        <ele>1058.8000488281</ele>
        <time>2014-06-01T09:57:21.000Z</time>
      </trkpt>
      <trkpt lat="46.44366" lon="5.94984">
        <ele>1059.8000488281</ele>
        <time>2014-06-01T09:57:26.000Z</time>
      </trkpt>
      <trkpt lat="46.44364" lon="5.94983">
        <ele>1060</ele>
        <time>2014-06-01T09:57:28.000Z</time>
      </trkpt>
      <trkpt lat="46.44366" lon="5.94987">
        <ele>1060.1999511719</ele>
        <time>2014-06-01T09:57:34.000Z</time>
      </trkpt>
      <trkpt lat="46.44365" lon="5.9499">
        <ele>1060.4000244141</ele>
        <time>2014-06-01T09:57:39.000Z</time>
      </trkpt>
      <trkpt lat="46.44367" lon="5.94995">
        <ele>1060.5999755859</ele>
        <time>2014-06-01T09:57:46.000Z</time>
      </trkpt>
      <trkpt lat="46.44366" lon="5.95001">
        <ele>1061.1999511719</ele>
        <time>2014-06-01T09:57:52.000Z</time>
      </trkpt>
      <trkpt lat="46.44365" lon="5.95007">
        <ele>1061.5999755859</ele>
        <time>2014-06-01T09:57:55.000Z</time>
      </trkpt>
      <trkpt lat="46.44366" lon="5.95015">
        <ele>1062.1999511719</ele>
        <time>2014-06-01T09:58:00.000Z</time>
      </trkpt>
      <trkpt lat="46.44364" lon="5.95028">
        <ele>1063.1999511719</ele>
        <time>2014-06-01T09:58:07.000Z</time>
      </trkpt>
      <trkpt lat="46.44366" lon="5.95032">
        <ele>1063.5999755859</ele>
        <time>2014-06-01T09:58:10.000Z</time>
      </trkpt>
      <trkpt lat="46.44368" lon="5.95034">
        <ele>1063.5999755859</ele>
        <time>2014-06-01T09:58:12.000Z</time>
      </trkpt>
      <trkpt lat="46.4437" lon="5.95038">
        <ele>1063.8000488281</ele>
        <time>2014-06-01T09:58:16.000Z</time>
      </trkpt>
      <trkpt lat="46.44368" lon="5.95041">
        <ele>1064.4000244141</ele>
        <time>2014-06-01T09:58:19.000Z</time>
      </trkpt>
      <trkpt lat="46.44369" lon="5.95045">
        <ele>1064.5999755859</ele>
        <time>2014-06-01T09:58:21.000Z</time>
      </trkpt>
      <trkpt lat="46.44372" lon="5.95049">
        <ele>1064.8000488281</ele>
        <time>2014-06-01T09:58:25.000Z</time>
      </trkpt>
      <trkpt lat="46.44373" lon="5.95054">
        <ele>1065.1999511719</ele>
        <time>2014-06-01T09:58:29.000Z</time>
      </trkpt>
      <trkpt lat="46.44371" lon="5.95059">
        <ele>1065.8000488281</ele>
        <time>2014-06-01T09:58:33.000Z</time>
      </trkpt>
      <trkpt lat="46.44369" lon="5.95066">
        <ele>1066.5999755859</ele>
        <time>2014-06-01T09:58:37.000Z</time>
      </trkpt>
      <trkpt lat="46.44365" lon="5.95074">
        <ele>1067.5999755859</ele>
        <time>2014-06-01T09:58:43.000Z</time>
      </trkpt>
      <trkpt lat="46.44367" lon="5.95076">
        <ele>1067.8000488281</ele>
        <time>2014-06-01T09:58:46.000Z</time>
      </trkpt>
      <trkpt lat="46.44369" lon="5.95079">
        <ele>1067.8000488281</ele>
        <time>2014-06-01T09:58:48.000Z</time>
      </trkpt>
      <trkpt lat="46.44367" lon="5.95087">
        <ele>1068.8000488281</ele>
        <time>2014-06-01T09:58:53.000Z</time>
      </trkpt>
      <trkpt lat="46.44365" lon="5.95088">
        <ele>1069</ele>
        <time>2014-06-01T09:58:55.000Z</time>
      </trkpt>
      <trkpt lat="46.44366" lon="5.95087">
        <ele>1068.8000488281</ele>
        <time>2014-06-01T09:59:01.000Z</time>
      </trkpt>
      <trkpt lat="46.44366" lon="5.9509">
        <ele>1069</ele>
        <time>2014-06-01T09:59:05.000Z</time>
      </trkpt>
      <trkpt lat="46.44369" lon="5.95091">
        <ele>1069</ele>
        <time>2014-06-01T09:59:11.000Z</time>
      </trkpt>
      <trkpt lat="46.44372" lon="5.95089">
        <ele>1068.5999755859</ele>
        <time>2014-06-01T09:59:16.000Z</time>
      </trkpt>
      <trkpt lat="46.44374" lon="5.95089">
        <ele>1068.5999755859</ele>
        <time>2014-06-01T09:59:17.000Z</time>
      </trkpt>
      <trkpt lat="46.44377" lon="5.95089">
        <ele>1068.4000244141</ele>
        <time>2014-06-01T09:59:19.000Z</time>
      </trkpt>
      <trkpt lat="46.44384" lon="5.95086">
        <ele>1067.5999755859</ele>
        <time>2014-06-01T09:59:23.000Z</time>
      </trkpt>
      <trkpt lat="46.44398" lon="5.9508">
        <ele>1066.1999511719</ele>
        <time>2014-06-01T09:59:30.000Z</time>
      </trkpt>
      <trkpt lat="46.44407" lon="5.95079">
        <ele>1065.4000244141</ele>
        <time>2014-06-01T09:59:35.000Z</time>
      </trkpt>
      <trkpt lat="46.44414" lon="5.95081">
        <ele>1065</ele>
        <time>2014-06-01T09:59:40.000Z</time>
      </trkpt>
      <trkpt lat="46.44415" lon="5.95081">
        <ele>1065</ele>
        <time>2014-06-01T09:59:41.000Z</time>
      </trkpt>
      <trkpt lat="46.44416" lon="5.95081">
        <ele>1064.8000488281</ele>
        <time>2014-06-01T09:59:44.000Z</time>
      </trkpt>
      <trkpt lat="46.44423" lon="5.95086">
        <ele>1064.8000488281</ele>
        <time>2014-06-01T09:59:49.000Z</time>
      </trkpt>
      <trkpt lat="46.44427" lon="5.95083">
        <ele>1064.1999511719</ele>
        <time>2014-06-01T09:59:54.000Z</time>
      </trkpt>
      <trkpt lat="46.4443" lon="5.95084">
        <ele>1064</ele>
        <time>2014-06-01T10:00:04.000Z</time>
      </trkpt>
      <trkpt lat="46.44432" lon="5.95085">
        <ele>1064</ele>
        <time>2014-06-01T10:00:05.000Z</time>
      </trkpt>
      <trkpt lat="46.44438" lon="5.95086">
        <ele>1063.5999755859</ele>
        <time>2014-06-01T10:00:08.000Z</time>
      </trkpt>
      <trkpt lat="46.44451" lon="5.95089">
        <ele>1062.8000488281</ele>
        <time>2014-06-01T10:00:15.000Z</time>
      </trkpt>
      <trkpt lat="46.44456" lon="5.95095">
        <ele>1063</ele>
        <time>2014-06-01T10:00:20.000Z</time>
      </trkpt>
      <trkpt lat="46.44461" lon="5.95096">
        <ele>1062.8000488281</ele>
        <time>2014-06-01T10:00:25.000Z</time>
      </trkpt>
      <trkpt lat="46.44465" lon="5.95092">
        <ele>1062.1999511719</ele>
        <time>2014-06-01T10:00:36.000Z</time>
      </trkpt>
      <trkpt lat="46.4447" lon="5.95091">
        <ele>1061.5999755859</ele>
        <time>2014-06-01T10:00:41.000Z</time>
      </trkpt>
      <trkpt lat="46.44473" lon="5.9509">
        <ele>1061.4000244141</ele>
        <time>2014-06-01T10:00:45.000Z</time>
      </trkpt>
      <trkpt lat="46.44476" lon="5.95091">
        <ele>1061.1999511719</ele>
        <time>2014-06-01T10:00:48.000Z</time>
      </trkpt>
      <trkpt lat="46.44483" lon="5.95093">
        <ele>1061</ele>
        <time>2014-06-01T10:00:54.000Z</time>
      </trkpt>
      <trkpt lat="46.44487" lon="5.95095">
        <ele>1060.8000488281</ele>
        <time>2014-06-01T10:00:59.000Z</time>
      </trkpt>
      <trkpt lat="46.4449" lon="5.95097">
        <ele>1060.5999755859</ele>
        <time>2014-06-01T10:01:05.000Z</time>
      </trkpt>
      <trkpt lat="46.44493" lon="5.95099">
        <ele>1060.4000244141</ele>
        <time>2014-06-01T10:01:13.000Z</time>
      </trkpt>
      <trkpt lat="46.44493" lon="5.95108">
        <ele>1061.1999511719</ele>
        <time>2014-06-01T10:01:19.000Z</time>
      </trkpt>
      <trkpt lat="46.44491" lon="5.95128">
        <ele>1063</ele>
        <time>2014-06-01T10:01:25.000Z</time>
      </trkpt>
      <trkpt lat="46.44494" lon="5.95142">
        <ele>1064</ele>
        <time>2014-06-01T10:01:30.000Z</time>
      </trkpt>
      <trkpt lat="46.44495" lon="5.95146">
        <ele>1064.4000244141</ele>
        <time>2014-06-01T10:01:33.000Z</time>
      </trkpt>
      <trkpt lat="46.44498" lon="5.9515">
        <ele>1064.5999755859</ele>
        <time>2014-06-01T10:01:37.000Z</time>
      </trkpt>
      <trkpt lat="46.445" lon="5.95153">
        <ele>1064.5999755859</ele>
        <time>2014-06-01T10:01:39.000Z</time>
      </trkpt>
      <trkpt lat="46.4451" lon="5.95168">
        <ele>1065.1999511719</ele>
        <time>2014-06-01T10:01:45.000Z</time>
      </trkpt>
      <trkpt lat="46.44519" lon="5.95176">
        <ele>1065.4000244141</ele>
        <time>2014-06-01T10:01:50.000Z</time>
      </trkpt>
      <trkpt lat="46.44524" lon="5.95176">
        <ele>1064.8000488281</ele>
        <time>2014-06-01T10:01:54.000Z</time>
      </trkpt>
      <trkpt lat="46.44535" lon="5.95181">
        <ele>1064.1999511719</ele>
        <time>2014-06-01T10:02:03.000Z</time>
      </trkpt>
      <trkpt lat="46.44539" lon="5.95184">
        <ele>1064.1999511719</ele>
        <time>2014-06-01T10:02:05.000Z</time>
      </trkpt>
      <trkpt lat="46.44542" lon="5.95188">
        <ele>1064.4000244141</ele>
        <time>2014-06-01T10:02:08.000Z</time>
      </trkpt>
      <trkpt lat="46.44543" lon="5.95189">
        <ele>1064.4000244141</ele>
        <time>2014-06-01T10:02:13.000Z</time>
      </trkpt>
      <trkpt lat="46.44544" lon="5.95186">
        <ele>1064</ele>
        <time>2014-06-01T10:02:16.000Z</time>
      </trkpt>
      <trkpt lat="46.4455" lon="5.95173">
        <ele>1062</ele>
        <time>2014-06-01T10:02:21.000Z</time>
      </trkpt>
      <trkpt lat="46.4456" lon="5.95171">
        <ele>1060.8000488281</ele>
        <time>2014-06-01T10:02:24.000Z</time>
      </trkpt>
      <trkpt lat="46.44568" lon="5.95176">
        <ele>1060.8000488281</ele>
        <time>2014-06-01T10:02:30.000Z</time>
      </trkpt>
      <trkpt lat="46.4457" lon="5.95177">
        <ele>1060.5999755859</ele>
        <time>2014-06-01T10:02:32.000Z</time>
      </trkpt>
      <trkpt lat="46.44579" lon="5.95174">
        <ele>1060</ele>
        <time>2014-06-01T10:02:37.000Z</time>
      </trkpt>
      <trkpt lat="46.4458" lon="5.95174">
        <ele>1060</ele>
        <time>2014-06-01T10:02:38.000Z</time>
      </trkpt>
      <trkpt lat="46.44589" lon="5.95174">
        <ele>1059.8000488281</ele>
        <time>2014-06-01T10:02:42.000Z</time>
      </trkpt>
      <trkpt lat="46.44605" lon="5.95183">
        <ele>1060</ele>
        <time>2014-06-01T10:02:47.000Z</time>
      </trkpt>
      <trkpt lat="46.44618" lon="5.95189">
        <ele>1060.4000244141</ele>
        <time>2014-06-01T10:02:51.000Z</time>
      </trkpt>
      <trkpt lat="46.44623" lon="5.95191">
        <ele>1060.5999755859</ele>
        <time>2014-06-01T10:02:54.000Z</time>
      </trkpt>
      <trkpt lat="46.44629" lon="5.95197">
        <ele>1061</ele>
        <time>2014-06-01T10:02:59.000Z</time>
      </trkpt>
      <trkpt lat="46.44637" lon="5.95201">
        <ele>1061.1999511719</ele>
        <time>2014-06-01T10:03:03.000Z</time>
      </trkpt>
      <trkpt lat="46.44642" lon="5.95202">
        <ele>1061.1999511719</ele>
        <time>2014-06-01T10:03:06.000Z</time>
      </trkpt>
      <trkpt lat="46.44645" lon="5.95206">
        <ele>1061.5999755859</ele>
        <time>2014-06-01T10:03:08.000Z</time>
      </trkpt>
      <trkpt lat="46.44652" lon="5.95213">
        <ele>1062</ele>
        <time>2014-06-01T10:03:13.000Z</time>
      </trkpt>
      <trkpt lat="46.4466" lon="5.95221">
        <ele>1062.4000244141</ele>
        <time>2014-06-01T10:03:18.000Z</time>
      </trkpt>
      <trkpt lat="46.4467" lon="5.95233">
        <ele>1062.4000244141</ele>
        <time>2014-06-01T10:03:23.000Z</time>
      </trkpt>
      <trkpt lat="46.44675" lon="5.95236">
        <ele>1062.4000244141</ele>
        <time>2014-06-01T10:03:26.000Z</time>
      </trkpt>
      <trkpt lat="46.44677" lon="5.95239">
        <ele>1062.4000244141</ele>
        <time>2014-06-01T10:03:28.000Z</time>
      </trkpt>
      <trkpt lat="46.44683" lon="5.95246">
        <ele>1062.4000244141</ele>
        <time>2014-06-01T10:03:34.000Z</time>
      </trkpt>
      <trkpt lat="46.44689" lon="5.95252">
        <ele>1062.1999511719</ele>
        <time>2014-06-01T10:03:39.000Z</time>
      </trkpt>
      <trkpt lat="46.4469" lon="5.9526">
        <ele>1062.4000244141</ele>
        <time>2014-06-01T10:03:45.000Z</time>
      </trkpt>
      <trkpt lat="46.4469" lon="5.95269">
        <ele>1062.8000488281</ele>
        <time>2014-06-01T10:03:50.000Z</time>
      </trkpt>
      <trkpt lat="46.44686" lon="5.95282">
        <ele>1063.8000488281</ele>
        <time>2014-06-01T10:03:56.000Z</time>
      </trkpt>
      <trkpt lat="46.44687" lon="5.95289">
        <ele>1064.1999511719</ele>
        <time>2014-06-01T10:04:00.000Z</time>
      </trkpt>
      <trkpt lat="46.44688" lon="5.95296">
        <ele>1064.5999755859</ele>
        <time>2014-06-01T10:04:03.000Z</time>
      </trkpt>
      <trkpt lat="46.4469" lon="5.95303">
        <ele>1064.8000488281</ele>
        <time>2014-06-01T10:04:08.000Z</time>
      </trkpt>
      <trkpt lat="46.44689" lon="5.95309">
        <ele>1065.1999511719</ele>
        <time>2014-06-01T10:04:14.000Z</time>
      </trkpt>
      <trkpt lat="46.44691" lon="5.95314">
        <ele>1065.4000244141</ele>
        <time>2014-06-01T10:04:18.000Z</time>
      </trkpt>
      <trkpt lat="46.44691" lon="5.95315">
        <ele>1065.5999755859</ele>
        <time>2014-06-01T10:04:20.000Z</time>
      </trkpt>
      <trkpt lat="46.44694" lon="5.95316">
        <ele>1065.4000244141</ele>
        <time>2014-06-01T10:04:25.000Z</time>
      </trkpt>
      <trkpt lat="46.44697" lon="5.95315">
        <ele>1065</ele>
        <time>2014-06-01T10:04:29.000Z</time>
      </trkpt>
      <trkpt lat="46.44699" lon="5.95315">
        <ele>1065</ele>
        <time>2014-06-01T10:04:30.000Z</time>
      </trkpt>
      <trkpt lat="46.44703" lon="5.95319">
        <ele>1065</ele>
        <time>2014-06-01T10:04:34.000Z</time>
      </trkpt>
      <trkpt lat="46.44712" lon="5.95324">
        <ele>1064.5999755859</ele>
        <time>2014-06-01T10:04:39.000Z</time>
      </trkpt>
      <trkpt lat="46.44717" lon="5.95324">
        <ele>1064.4000244141</ele>
        <time>2014-06-01T10:04:44.000Z</time>
      </trkpt>
      <trkpt lat="46.44724" lon="5.9533">
        <ele>1064.1999511719</ele>
        <time>2014-06-01T10:04:50.000Z</time>
      </trkpt>
      <trkpt lat="46.44725" lon="5.95331">
        <ele>1064.1999511719</ele>
        <time>2014-06-01T10:04:51.000Z</time>
      </trkpt>
      <trkpt lat="46.44728" lon="5.95333">
        <ele>1064.1999511719</ele>
        <time>2014-06-01T10:04:55.000Z</time>
      </trkpt>
      <trkpt lat="46.44732" lon="5.95337">
        <ele>1064.1999511719</ele>
        <time>2014-06-01T10:05:02.000Z</time>
      </trkpt>
      <trkpt lat="46.44735" lon="5.95339">
        <ele>1064</ele>
        <time>2014-06-01T10:05:04.000Z</time>
      </trkpt>
      <trkpt lat="46.44741" lon="5.95343">
        <ele>1063.5999755859</ele>
        <time>2014-06-01T10:05:08.000Z</time>
      </trkpt>
      <trkpt lat="46.44743" lon="5.95343">
        <ele>1063.4000244141</ele>
        <time>2014-06-01T10:05:10.000Z</time>
      </trkpt>
      <trkpt lat="46.44746" lon="5.9534">
        <ele>1062.8000488281</ele>
        <time>2014-06-01T10:05:15.000Z</time>
      </trkpt>
      <trkpt lat="46.44748" lon="5.95336">
        <ele>1062.4000244141</ele>
        <time>2014-06-01T10:05:21.000Z</time>
      </trkpt>
      <trkpt lat="46.44752" lon="5.95334">
        <ele>1061.8000488281</ele>
        <time>2014-06-01T10:05:26.000Z</time>
      </trkpt>
      <trkpt lat="46.44764" lon="5.95341">
        <ele>1061</ele>
        <time>2014-06-01T10:05:32.000Z</time>
      </trkpt>
      <trkpt lat="46.44775" lon="5.95359">
        <ele>1061</ele>
        <time>2014-06-01T10:05:38.000Z</time>
      </trkpt>
      <trkpt lat="46.44782" lon="5.9538">
        <ele>1061.8000488281</ele>
        <time>2014-06-01T10:05:44.000Z</time>
      </trkpt>
      <trkpt lat="46.4478" lon="5.95393">
        <ele>1063</ele>
        <time>2014-06-01T10:05:48.000Z</time>
      </trkpt>
      <trkpt lat="46.4478" lon="5.95399">
        <ele>1063.4000244141</ele>
        <time>2014-06-01T10:05:50.000Z</time>
      </trkpt>
      <trkpt lat="46.44781" lon="5.95421">
        <ele>1065</ele>
        <time>2014-06-01T10:05:57.000Z</time>
      </trkpt>
      <trkpt lat="46.44783" lon="5.95435">
        <ele>1065.8000488281</ele>
        <time>2014-06-01T10:06:01.000Z</time>
      </trkpt>
      <trkpt lat="46.44784" lon="5.95448">
        <ele>1066.5999755859</ele>
        <time>2014-06-01T10:06:06.000Z</time>
      </trkpt>
      <trkpt lat="46.44788" lon="5.95453">
        <ele>1066.5999755859</ele>
        <time>2014-06-01T10:06:11.000Z</time>
      </trkpt>
      <trkpt lat="46.44789" lon="5.95457">
        <ele>1067</ele>
        <time>2014-06-01T10:06:15.000Z</time>
      </trkpt>
      <trkpt lat="46.44789" lon="5.95462">
        <ele>1067.4000244141</ele>
        <time>2014-06-01T10:06:17.000Z</time>
      </trkpt>
      <trkpt lat="46.44789" lon="5.95468">
        <ele>1068</ele>
        <time>2014-06-01T10:06:21.000Z</time>
      </trkpt>
      <trkpt lat="46.44789" lon="5.95475">
        <ele>1068.5999755859</ele>
        <time>2014-06-01T10:06:26.000Z</time>
      </trkpt>
      <trkpt lat="46.4479" lon="5.9548">
        <ele>1069.1999511719</ele>
        <time>2014-06-01T10:06:30.000Z</time>
      </trkpt>
      <trkpt lat="46.44792" lon="5.95491">
        <ele>1070.1999511719</ele>
        <time>2014-06-01T10:06:35.000Z</time>
      </trkpt>
      <trkpt lat="46.44794" lon="5.95499">
        <ele>1070.8000488281</ele>
        <time>2014-06-01T10:06:39.000Z</time>
      </trkpt>
      <trkpt lat="46.44785" lon="5.95511">
        <ele>1073.5999755859</ele>
        <time>2014-06-01T10:06:44.000Z</time>
      </trkpt>
      <trkpt lat="46.44782" lon="5.95517">
        <ele>1074.5999755859</ele>
        <time>2014-06-01T10:06:47.000Z</time>
      </trkpt>
      <trkpt lat="46.44785" lon="5.95515">
        <ele>1074</ele>
        <time>2014-06-01T10:06:52.000Z</time>
      </trkpt>
      <trkpt lat="46.44784" lon="5.95511">
        <ele>1073.5999755859</ele>
        <time>2014-06-01T10:06:55.000Z</time>
      </trkpt>
      <trkpt lat="46.44786" lon="5.95504">
        <ele>1072.4000244141</ele>
        <time>2014-06-01T10:06:59.000Z</time>
      </trkpt>
      <trkpt lat="46.44788" lon="5.95496">
        <ele>1071.1999511719</ele>
        <time>2014-06-01T10:07:02.000Z</time>
      </trkpt>
      <trkpt lat="46.44792" lon="5.95476">
        <ele>1068.4000244141</ele>
        <time>2014-06-01T10:07:08.000Z</time>
      </trkpt>
      <trkpt lat="46.44796" lon="5.95464">
        <ele>1066.8000488281</ele>
        <time>2014-06-01T10:07:11.000Z</time>
      </trkpt>
      <trkpt lat="46.44801" lon="5.95446">
        <ele>1064.5999755859</ele>
        <time>2014-06-01T10:07:16.000Z</time>
      </trkpt>
      <trkpt lat="46.44798" lon="5.95431">
        <ele>1063.8000488281</ele>
        <time>2014-06-01T10:07:20.000Z</time>
      </trkpt>
      <trkpt lat="46.44805" lon="5.95416">
        <ele>1062</ele>
        <time>2014-06-01T10:07:25.000Z</time>
      </trkpt>
      <trkpt lat="46.44809" lon="5.95403">
        <ele>1060.5999755859</ele>
        <time>2014-06-01T10:07:29.000Z</time>
      </trkpt>
      <trkpt lat="46.44811" lon="5.954">
        <ele>1060.1999511719</ele>
        <time>2014-06-01T10:07:31.000Z</time>
      </trkpt>
      <trkpt lat="46.44811" lon="5.95398">
        <ele>1060</ele>
        <time>2014-06-01T10:07:33.000Z</time>
      </trkpt>
      <trkpt lat="46.44804" lon="5.95379">
        <ele>1059.4000244141</ele>
        <time>2014-06-01T10:07:38.000Z</time>
      </trkpt>
      <trkpt lat="46.44799" lon="5.9537">
        <ele>1059.4000244141</ele>
        <time>2014-06-01T10:07:41.000Z</time>
      </trkpt>
      <trkpt lat="46.44794" lon="5.95362">
        <ele>1059.5999755859</ele>
        <time>2014-06-01T10:07:44.000Z</time>
      </trkpt>
      <trkpt lat="46.44792" lon="5.95353">
        <ele>1059.4000244141</ele>
        <time>2014-06-01T10:07:48.000Z</time>
      </trkpt>
      <trkpt lat="46.44792" lon="5.95351">
        <ele>1059.4000244141</ele>
        <time>2014-06-01T10:07:49.000Z</time>
      </trkpt>
      <trkpt lat="46.44791" lon="5.95343">
        <ele>1059</ele>
        <time>2014-06-01T10:07:52.000Z</time>
      </trkpt>
      <trkpt lat="46.44799" lon="5.95333">
        <ele>1058.1999511719</ele>
        <time>2014-06-01T10:07:56.000Z</time>
      </trkpt>
      <trkpt lat="46.44812" lon="5.95315">
        <ele>1056.5999755859</ele>
        <time>2014-06-01T10:08:01.000Z</time>
      </trkpt>
      <trkpt lat="46.44827" lon="5.95307">
        <ele>1055.4000244141</ele>
        <time>2014-06-01T10:08:05.000Z</time>
      </trkpt>
      <trkpt lat="46.44842" lon="5.95297">
        <ele>1054.4000244141</ele>
        <time>2014-06-01T10:08:09.000Z</time>
      </trkpt>
      <trkpt lat="46.44854" lon="5.95292">
        <ele>1053.5999755859</ele>
        <time>2014-06-01T10:08:14.000Z</time>
      </trkpt>
      <trkpt lat="46.44862" lon="5.95289">
        <ele>1053.1999511719</ele>
        <time>2014-06-01T10:08:18.000Z</time>
      </trkpt>
      <trkpt lat="46.44869" lon="5.95282">
        <ele>1052.5999755859</ele>
        <time>2014-06-01T10:08:22.000Z</time>
      </trkpt>
      <trkpt lat="46.44876" lon="5.95274">
        <ele>1051.8000488281</ele>
        <time>2014-06-01T10:08:26.000Z</time>
      </trkpt>
      <trkpt lat="46.44887" lon="5.95268">
        <ele>1050.8000488281</ele>
        <time>2014-06-01T10:08:30.000Z</time>
      </trkpt>
      <trkpt lat="46.44899" lon="5.95256">
        <ele>1049.5999755859</ele>
        <time>2014-06-01T10:08:36.000Z</time>
      </trkpt>
      <trkpt lat="46.4491" lon="5.95245">
        <ele>1049.1999511719</ele>
        <time>2014-06-01T10:08:41.000Z</time>
      </trkpt>
      <trkpt lat="46.44922" lon="5.9524">
        <ele>1049.1999511719</ele>
        <time>2014-06-01T10:08:45.000Z</time>
      </trkpt>
      <trkpt lat="46.44938" lon="5.95233">
        <ele>1049</ele>
        <time>2014-06-01T10:08:50.000Z</time>
      </trkpt>
      <trkpt lat="46.44949" lon="5.95229">
        <ele>1048.8000488281</ele>
        <time>2014-06-01T10:08:54.000Z</time>
      </trkpt>
      <trkpt lat="46.44959" lon="5.95224">
        <ele>1048.8000488281</ele>
        <time>2014-06-01T10:08:59.000Z</time>
      </trkpt>
      <trkpt lat="46.44961" lon="5.95223">
        <ele>1048.8000488281</ele>
        <time>2014-06-01T10:09:00.000Z</time>
      </trkpt>
      <trkpt lat="46.44971" lon="5.95218">
        <ele>1049</ele>
        <time>2014-06-01T10:09:03.000Z</time>
      </trkpt>
      <trkpt lat="46.44986" lon="5.95215">
        <ele>1048.8000488281</ele>
        <time>2014-06-01T10:09:08.000Z</time>
      </trkpt>
      <trkpt lat="46.44988" lon="5.95214">
        <ele>1048.5999755859</ele>
        <time>2014-06-01T10:09:09.000Z</time>
      </trkpt>
      <trkpt lat="46.45012" lon="5.95199">
        <ele>1048.4000244141</ele>
        <time>2014-06-01T10:09:15.000Z</time>
      </trkpt>
      <trkpt lat="46.45019" lon="5.95193">
        <ele>1048.4000244141</ele>
        <time>2014-06-01T10:09:18.000Z</time>
      </trkpt>
      <trkpt lat="46.45032" lon="5.95193">
        <ele>1048.4000244141</ele>
        <time>2014-06-01T10:09:23.000Z</time>
      </trkpt>
      <trkpt lat="46.45046" lon="5.95189">
        <ele>1047.8000488281</ele>
        <time>2014-06-01T10:09:29.000Z</time>
      </trkpt>
      <trkpt lat="46.45056" lon="5.95178">
        <ele>1046.4000244141</ele>
        <time>2014-06-01T10:09:33.000Z</time>
      </trkpt>
      <trkpt lat="46.45061" lon="5.95159">
        <ele>1044.8000488281</ele>
        <time>2014-06-01T10:09:38.000Z</time>
      </trkpt>
      <trkpt lat="46.45063" lon="5.95148">
        <ele>1043.8000488281</ele>
        <time>2014-06-01T10:09:41.000Z</time>
      </trkpt>
      <trkpt lat="46.4507" lon="5.95127">
        <ele>1042</ele>
        <time>2014-06-01T10:09:47.000Z</time>
      </trkpt>
      <trkpt lat="46.45072" lon="5.95125">
        <ele>1041.5999755859</ele>
        <time>2014-06-01T10:09:51.000Z</time>
      </trkpt>
      <trkpt lat="46.45072" lon="5.95124">
        <ele>1041.5999755859</ele>
        <time>2014-06-01T10:09:52.000Z</time>
      </trkpt>
      <trkpt lat="46.45074" lon="5.95106">
        <ele>1040.5999755859</ele>
        <time>2014-06-01T10:09:58.000Z</time>
      </trkpt>
      <trkpt lat="46.45074" lon="5.95097">
        <ele>1040.1999511719</ele>
        <time>2014-06-01T10:10:01.000Z</time>
      </trkpt>
      <trkpt lat="46.45065" lon="5.95075">
        <ele>1040</ele>
        <time>2014-06-01T10:10:08.000Z</time>
      </trkpt>
      <trkpt lat="46.45055" lon="5.95062">
        <ele>1040</ele>
        <time>2014-06-01T10:10:13.000Z</time>
      </trkpt>
      <trkpt lat="46.45047" lon="5.95047">
        <ele>1040.1999511719</ele>
        <time>2014-06-01T10:10:18.000Z</time>
      </trkpt>
      <trkpt lat="46.45038" lon="5.95027">
        <ele>1040.5999755859</ele>
        <time>2014-06-01T10:10:22.000Z</time>
      </trkpt>
      <trkpt lat="46.45024" lon="5.95">
        <ele>1041.5999755859</ele>
        <time>2014-06-01T10:10:27.000Z</time>
      </trkpt>
      <trkpt lat="46.45018" lon="5.94985">
        <ele>1041.8000488281</ele>
        <time>2014-06-01T10:10:30.000Z</time>
      </trkpt>
      <trkpt lat="46.45022" lon="5.94963">
        <ele>1041.1999511719</ele>
        <time>2014-06-01T10:10:37.000Z</time>
      </trkpt>
      <trkpt lat="46.45022" lon="5.94945">
        <ele>1040.1999511719</ele>
        <time>2014-06-01T10:10:41.000Z</time>
      </trkpt>
      <trkpt lat="46.45022" lon="5.94941">
        <ele>1040</ele>
        <time>2014-06-01T10:10:42.000Z</time>
      </trkpt>
      <trkpt lat="46.45022" lon="5.94919">
        <ele>1039</ele>
        <time>2014-06-01T10:10:47.000Z</time>
      </trkpt>
      <trkpt lat="46.45015" lon="5.94893">
        <ele>1038.1999511719</ele>
        <time>2014-06-01T10:10:53.000Z</time>
      </trkpt>
      <trkpt lat="46.45016" lon="5.94872">
        <ele>1036.1999511719</ele>
        <time>2014-06-01T10:10:57.000Z</time>
      </trkpt>
      <trkpt lat="46.45028" lon="5.94859">
        <ele>1034.1999511719</ele>
        <time>2014-06-01T10:11:01.000Z</time>
      </trkpt>
      <trkpt lat="46.45041" lon="5.94848">
        <ele>1032.4000244141</ele>
        <time>2014-06-01T10:11:06.000Z</time>
      </trkpt>
      <trkpt lat="46.45055" lon="5.94848">
        <ele>1031.5999755859</ele>
        <time>2014-06-01T10:11:10.000Z</time>
      </trkpt>
      <trkpt lat="46.4507" lon="5.94858">
        <ele>1031</ele>
        <time>2014-06-01T10:11:16.000Z</time>
      </trkpt>
      <trkpt lat="46.45082" lon="5.94869">
        <ele>1030.1999511719</ele>
        <time>2014-06-01T10:11:20.000Z</time>
      </trkpt>
      <trkpt lat="46.45086" lon="5.9487">
        <ele>1029.5999755859</ele>
        <time>2014-06-01T10:11:22.000Z</time>
      </trkpt>
      <trkpt lat="46.45093" lon="5.9486">
        <ele>1027.4000244141</ele>
        <time>2014-06-01T10:11:27.000Z</time>
      </trkpt>
      <trkpt lat="46.45098" lon="5.94859">
        <ele>1026.5999755859</ele>
        <time>2014-06-01T10:11:30.000Z</time>
      </trkpt>
      <trkpt lat="46.45105" lon="5.94849">
        <ele>1024.4000244141</ele>
        <time>2014-06-01T10:11:35.000Z</time>
      </trkpt>
      <trkpt lat="46.45113" lon="5.94843">
        <ele>1023.200012207</ele>
        <time>2014-06-01T10:11:41.000Z</time>
      </trkpt>
      <trkpt lat="46.45117" lon="5.94844">
        <ele>1022.799987793</ele>
        <time>2014-06-01T10:11:44.000Z</time>
      </trkpt>
      <trkpt lat="46.45118" lon="5.94843">
        <ele>1022.5999755859</ele>
        <time>2014-06-01T10:11:46.000Z</time>
      </trkpt>
      <trkpt lat="46.45119" lon="5.94832">
        <ele>1022.200012207</ele>
        <time>2014-06-01T10:11:52.000Z</time>
      </trkpt>
      <trkpt lat="46.4512" lon="5.94831">
        <ele>1022</ele>
        <time>2014-06-01T10:11:53.000Z</time>
      </trkpt>
      <trkpt lat="46.45127" lon="5.94827">
        <ele>1021.200012207</ele>
        <time>2014-06-01T10:11:58.000Z</time>
      </trkpt>
      <trkpt lat="46.45131" lon="5.94826">
        <ele>1020.5999755859</ele>
        <time>2014-06-01T10:12:02.000Z</time>
      </trkpt>
      <trkpt lat="46.45132" lon="5.94822">
        <ele>1020.4000244141</ele>
        <time>2014-06-01T10:12:04.000Z</time>
      </trkpt>
      <trkpt lat="46.45139" lon="5.94811">
        <ele>1019.200012207</ele>
        <time>2014-06-01T10:12:10.000Z</time>
      </trkpt>
      <trkpt lat="46.45142" lon="5.94801">
        <ele>1018</ele>
        <time>2014-06-01T10:12:16.000Z</time>
      </trkpt>
      <trkpt lat="46.45144" lon="5.948">
        <ele>1017.799987793</ele>
        <time>2014-06-01T10:12:18.000Z</time>
      </trkpt>
      <trkpt lat="46.45149" lon="5.94795">
        <ele>1017</ele>
        <time>2014-06-01T10:12:25.000Z</time>
      </trkpt>
      <trkpt lat="46.45156" lon="5.94794">
        <ele>1016.4000244141</ele>
        <time>2014-06-01T10:12:29.000Z</time>
      </trkpt>
      <trkpt lat="46.45162" lon="5.94791">
        <ele>1015.799987793</ele>
        <time>2014-06-01T10:12:32.000Z</time>
      </trkpt>
      <trkpt lat="46.4517" lon="5.94799">
        <ele>1015.799987793</ele>
        <time>2014-06-01T10:12:36.000Z</time>
      </trkpt>
      <trkpt lat="46.45174" lon="5.94815">
        <ele>1016.5999755859</ele>
        <time>2014-06-01T10:12:42.000Z</time>
      </trkpt>
      <trkpt lat="46.45179" lon="5.94825">
        <ele>1016.799987793</ele>
        <time>2014-06-01T10:12:46.000Z</time>
      </trkpt>
      <trkpt lat="46.45183" lon="5.94833">
        <ele>1016.799987793</ele>
        <time>2014-06-01T10:12:48.000Z</time>
      </trkpt>
      <trkpt lat="46.45186" lon="5.9484">
        <ele>1017</ele>
        <time>2014-06-01T10:12:51.000Z</time>
      </trkpt>
      <trkpt lat="46.45184" lon="5.94857">
        <ele>1017.5999755859</ele>
        <time>2014-06-01T10:12:56.000Z</time>
      </trkpt>
      <trkpt lat="46.4519" lon="5.94865">
        <ele>1017.5999755859</ele>
        <time>2014-06-01T10:13:00.000Z</time>
      </trkpt>
      <trkpt lat="46.45193" lon="5.94871">
        <ele>1017.5999755859</ele>
        <time>2014-06-01T10:13:03.000Z</time>
      </trkpt>
      <trkpt lat="46.45201" lon="5.94886">
        <ele>1017.799987793</ele>
        <time>2014-06-01T10:13:08.000Z</time>
      </trkpt>
      <trkpt lat="46.45207" lon="5.94896">
        <ele>1017.5999755859</ele>
        <time>2014-06-01T10:13:13.000Z</time>
      </trkpt>
      <trkpt lat="46.4521" lon="5.94903">
        <ele>1017.5999755859</ele>
        <time>2014-06-01T10:13:20.000Z</time>
      </trkpt>
      <trkpt lat="46.45213" lon="5.94908">
        <ele>1017.5999755859</ele>
        <time>2014-06-01T10:13:26.000Z</time>
      </trkpt>
      <trkpt lat="46.45216" lon="5.94914">
        <ele>1017.5999755859</ele>
        <time>2014-06-01T10:13:31.000Z</time>
      </trkpt>
      <trkpt lat="46.45221" lon="5.94917">
        <ele>1017.4000244141</ele>
        <time>2014-06-01T10:13:34.000Z</time>
      </trkpt>
      <trkpt lat="46.45228" lon="5.94918">
        <ele>1017</ele>
        <time>2014-06-01T10:13:40.000Z</time>
      </trkpt>
      <trkpt lat="46.45235" lon="5.94927">
        <ele>1016.799987793</ele>
        <time>2014-06-01T10:13:45.000Z</time>
      </trkpt>
      <trkpt lat="46.45238" lon="5.94932">
        <ele>1016.799987793</ele>
        <time>2014-06-01T10:13:47.000Z</time>
      </trkpt>
      <trkpt lat="46.45244" lon="5.94931">
        <ele>1016.5999755859</ele>
        <time>2014-06-01T10:13:53.000Z</time>
      </trkpt>
      <trkpt lat="46.45247" lon="5.94928">
        <ele>1016.4000244141</ele>
        <time>2014-06-01T10:13:58.000Z</time>
      </trkpt>
      <trkpt lat="46.45253" lon="5.9492">
        <ele>1016</ele>
        <time>2014-06-01T10:14:04.000Z</time>
      </trkpt>
      <trkpt lat="46.45259" lon="5.94913">
        <ele>1015.4000244141</ele>
        <time>2014-06-01T10:14:07.000Z</time>
      </trkpt>
      <trkpt lat="46.45262" lon="5.94905">
        <ele>1014.799987793</ele>
        <time>2014-06-01T10:14:11.000Z</time>
      </trkpt>
      <trkpt lat="46.45263" lon="5.94903">
        <ele>1014.5999755859</ele>
        <time>2014-06-01T10:14:12.000Z</time>
      </trkpt>
      <trkpt lat="46.45264" lon="5.949">
        <ele>1014.200012207</ele>
        <time>2014-06-01T10:14:14.000Z</time>
      </trkpt>
      <trkpt lat="46.4527" lon="5.94903">
        <ele>1014</ele>
        <time>2014-06-01T10:14:21.000Z</time>
      </trkpt>
      <trkpt lat="46.45272" lon="5.94905">
        <ele>1014</ele>
        <time>2014-06-01T10:14:32.000Z</time>
      </trkpt>
      <trkpt lat="46.45268" lon="5.94909">
        <ele>1014.5999755859</ele>
        <time>2014-06-01T10:14:37.000Z</time>
      </trkpt>
      <trkpt lat="46.45268" lon="5.94916">
        <ele>1015</ele>
        <time>2014-06-01T10:14:41.000Z</time>
      </trkpt>
      <trkpt lat="46.45269" lon="5.94919">
        <ele>1015</ele>
        <time>2014-06-01T10:14:43.000Z</time>
      </trkpt>
      <trkpt lat="46.45272" lon="5.9493">
        <ele>1015.5999755859</ele>
        <time>2014-06-01T10:14:48.000Z</time>
      </trkpt>
      <trkpt lat="46.45266" lon="5.94943">
        <ele>1016</ele>
        <time>2014-06-01T10:14:53.000Z</time>
      </trkpt>
      <trkpt lat="46.45263" lon="5.94948">
        <ele>1016.200012207</ele>
        <time>2014-06-01T10:14:56.000Z</time>
      </trkpt>
      <trkpt lat="46.45262" lon="5.94959">
        <ele>1016.5999755859</ele>
        <time>2014-06-01T10:15:02.000Z</time>
      </trkpt>
      <trkpt lat="46.45256" lon="5.94968">
        <ele>1017</ele>
        <time>2014-06-01T10:15:07.000Z</time>
      </trkpt>
      <trkpt lat="46.45253" lon="5.94969">
        <ele>1017.200012207</ele>
        <time>2014-06-01T10:15:09.000Z</time>
      </trkpt>
      <trkpt lat="46.45252" lon="5.94972">
        <ele>1017.200012207</ele>
        <time>2014-06-01T10:15:12.000Z</time>
      </trkpt>
      <trkpt lat="46.4525" lon="5.94976">
        <ele>1017.4000244141</ele>
        <time>2014-06-01T10:15:15.000Z</time>
      </trkpt>
      <trkpt lat="46.45251" lon="5.94983">
        <ele>1017.4000244141</ele>
        <time>2014-06-01T10:15:21.000Z</time>
      </trkpt>
      <trkpt lat="46.45251" lon="5.94984">
        <ele>1017.4000244141</ele>
        <time>2014-06-01T10:15:24.000Z</time>
      </trkpt>
      <trkpt lat="46.45247" lon="5.94987">
        <ele>1017.4000244141</ele>
        <time>2014-06-01T10:15:29.000Z</time>
      </trkpt>
      <trkpt lat="46.45242" lon="5.95001">
        <ele>1018</ele>
        <time>2014-06-01T10:15:35.000Z</time>
      </trkpt>
      <trkpt lat="46.4524" lon="5.95004">
        <ele>1018.200012207</ele>
        <time>2014-06-01T10:15:36.000Z</time>
      </trkpt>
      <trkpt lat="46.45238" lon="5.95012">
        <ele>1018.5999755859</ele>
        <time>2014-06-01T10:15:40.000Z</time>
      </trkpt>
      <trkpt lat="46.45238" lon="5.95019">
        <ele>1018.799987793</ele>
        <time>2014-06-01T10:15:45.000Z</time>
      </trkpt>
      <trkpt lat="46.45238" lon="5.95021">
        <ele>1018.799987793</ele>
        <time>2014-06-01T10:15:46.000Z</time>
      </trkpt>
      <trkpt lat="46.45252" lon="5.95036">
        <ele>1018.4000244141</ele>
        <time>2014-06-01T10:15:53.000Z</time>
      </trkpt>
      <trkpt lat="46.45256" lon="5.95047">
        <ele>1018.4000244141</ele>
        <time>2014-06-01T10:15:58.000Z</time>
      </trkpt>
      <trkpt lat="46.45257" lon="5.95049">
        <ele>1018.4000244141</ele>
        <time>2014-06-01T10:15:59.000Z</time>
      </trkpt>
      <trkpt lat="46.45256" lon="5.95056">
        <ele>1018.5999755859</ele>
        <time>2014-06-01T10:16:05.000Z</time>
      </trkpt>
      <trkpt lat="46.45249" lon="5.9505">
        <ele>1018.799987793</ele>
        <time>2014-06-01T10:16:18.000Z</time>
      </trkpt>
      <trkpt lat="46.45249" lon="5.9505">
        <ele>1018.799987793</ele>
        <time>2014-06-01T10:16:19.000Z</time>
      </trkpt>
      <trkpt lat="46.45251" lon="5.9504">
        <ele>1018.4000244141</ele>
        <time>2014-06-01T10:16:26.000Z</time>
      </trkpt>
      <trkpt lat="46.45255" lon="5.95035">
        <ele>1018.200012207</ele>
        <time>2014-06-01T10:16:30.000Z</time>
      </trkpt>
      <trkpt lat="46.45265" lon="5.95023">
        <ele>1017.200012207</ele>
        <time>2014-06-01T10:16:35.000Z</time>
      </trkpt>
      <trkpt lat="46.45264" lon="5.95024">
        <ele>1017.4000244141</ele>
        <time>2014-06-01T10:16:39.000Z</time>
      </trkpt>
      <trkpt lat="46.45266" lon="5.95043">
        <ele>1017.5999755859</ele>
        <time>2014-06-01T10:16:44.000Z</time>
      </trkpt>
      <trkpt lat="46.45258" lon="5.95051">
        <ele>1018.4000244141</ele>
        <time>2014-06-01T10:16:48.000Z</time>
      </trkpt>
      <trkpt lat="46.45252" lon="5.95045">
        <ele>1018.5999755859</ele>
        <time>2014-06-01T10:16:51.000Z</time>
      </trkpt>
      <trkpt lat="46.45244" lon="5.95029">
        <ele>1018.5999755859</ele>
        <time>2014-06-01T10:16:56.000Z</time>
      </trkpt>
      <trkpt lat="46.45231" lon="5.95016">
        <ele>1019.200012207</ele>
        <time>2014-06-01T10:17:01.000Z</time>
      </trkpt>
      <trkpt lat="46.45228" lon="5.95013">
        <ele>1019.4000244141</ele>
        <time>2014-06-01T10:17:02.000Z</time>
      </trkpt>
      <trkpt lat="46.45217" lon="5.94986">
        <ele>1020</ele>
        <time>2014-06-01T10:17:08.000Z</time>
      </trkpt>
      <trkpt lat="46.45216" lon="5.94972">
        <ele>1019.5999755859</ele>
        <time>2014-06-01T10:17:12.000Z</time>
      </trkpt>
      <trkpt lat="46.45215" lon="5.94967">
        <ele>1019.4000244141</ele>
        <time>2014-06-01T10:17:15.000Z</time>
      </trkpt>
      <trkpt lat="46.45214" lon="5.94964">
        <ele>1019.200012207</ele>
        <time>2014-06-01T10:17:19.000Z</time>
      </trkpt>
      <trkpt lat="46.45214" lon="5.94959">
        <ele>1019</ele>
        <time>2014-06-01T10:17:26.000Z</time>
      </trkpt>
      <trkpt lat="46.45219" lon="5.94955">
        <ele>1018.4000244141</ele>
        <time>2014-06-01T10:17:31.000Z</time>
      </trkpt>
      <trkpt lat="46.45219" lon="5.94952">
        <ele>1018.200012207</ele>
        <time>2014-06-01T10:17:32.000Z</time>
      </trkpt>
      <trkpt lat="46.45218" lon="5.94938">
        <ele>1018</ele>
        <time>2014-06-01T10:17:36.000Z</time>
      </trkpt>
      <trkpt lat="46.45228" lon="5.94924">
        <ele>1017</ele>
        <time>2014-06-01T10:17:42.000Z</time>
      </trkpt>
      <trkpt lat="46.45231" lon="5.94911">
        <ele>1016.5999755859</ele>
        <time>2014-06-01T10:17:46.000Z</time>
      </trkpt>
      <trkpt lat="46.45233" lon="5.94904">
        <ele>1016.4000244141</ele>
        <time>2014-06-01T10:17:49.000Z</time>
      </trkpt>
      <trkpt lat="46.45232" lon="5.94891">
        <ele>1016</ele>
        <time>2014-06-01T10:17:54.000Z</time>
      </trkpt>
      <trkpt lat="46.45234" lon="5.94883">
        <ele>1015.5999755859</ele>
        <time>2014-06-01T10:18:00.000Z</time>
      </trkpt>
      <trkpt lat="46.45228" lon="5.94872">
        <ele>1015.4000244141</ele>
        <time>2014-06-01T10:18:06.000Z</time>
      </trkpt>
      <trkpt lat="46.45224" lon="5.94868">
        <ele>1015.5999755859</ele>
        <time>2014-06-01T10:18:10.000Z</time>
      </trkpt>
      <trkpt lat="46.4522" lon="5.9486">
        <ele>1015.4000244141</ele>
        <time>2014-06-01T10:18:14.000Z</time>
      </trkpt>
      <trkpt lat="46.45218" lon="5.94856">
        <ele>1015.4000244141</ele>
        <time>2014-06-01T10:18:17.000Z</time>
      </trkpt>
      <trkpt lat="46.4521" lon="5.94854">
        <ele>1015.799987793</ele>
        <time>2014-06-01T10:18:21.000Z</time>
      </trkpt>
      <trkpt lat="46.45206" lon="5.94849">
        <ele>1016</ele>
        <time>2014-06-01T10:18:23.000Z</time>
      </trkpt>
      <trkpt lat="46.45196" lon="5.94839">
        <ele>1016.200012207</ele>
        <time>2014-06-01T10:18:28.000Z</time>
      </trkpt>
      <trkpt lat="46.45191" lon="5.94832">
        <ele>1016.200012207</ele>
        <time>2014-06-01T10:18:32.000Z</time>
      </trkpt>
      <trkpt lat="46.45191" lon="5.94827">
        <ele>1016</ele>
        <time>2014-06-01T10:18:38.000Z</time>
      </trkpt>
      <trkpt lat="46.4518" lon="5.94812">
        <ele>1016</ele>
        <time>2014-06-01T10:19:01.000Z</time>
      </trkpt>
      <trkpt lat="46.45196" lon="5.94823">
        <ele>1015.4000244141</ele>
        <time>2014-06-01T10:19:06.000Z</time>
      </trkpt>
      <trkpt lat="46.45208" lon="5.94835">
        <ele>1015</ele>
        <time>2014-06-01T10:19:11.000Z</time>
      </trkpt>
      <trkpt lat="46.45221" lon="5.94844">
        <ele>1014.5999755859</ele>
        <time>2014-06-01T10:19:16.000Z</time>
      </trkpt>
      <trkpt lat="46.45231" lon="5.94852">
        <ele>1014.200012207</ele>
        <time>2014-06-01T10:19:20.000Z</time>
      </trkpt>
      <trkpt lat="46.45236" lon="5.94854">
        <ele>1014</ele>
        <time>2014-06-01T10:19:22.000Z</time>
      </trkpt>
      <trkpt lat="46.45248" lon="5.94866">
        <ele>1013.5999755859</ele>
        <time>2014-06-01T10:19:28.000Z</time>
      </trkpt>
      <trkpt lat="46.45251" lon="5.94871">
        <ele>1013.799987793</ele>
        <time>2014-06-01T10:19:30.000Z</time>
      </trkpt>
      <trkpt lat="46.45249" lon="5.94884">
        <ele>1014.4000244141</ele>
        <time>2014-06-01T10:19:35.000Z</time>
      </trkpt>
      <trkpt lat="46.4525" lon="5.94885">
        <ele>1014.4000244141</ele>
        <time>2014-06-01T10:19:38.000Z</time>
      </trkpt>
      <trkpt lat="46.45263" lon="5.94898">
        <ele>1014.200012207</ele>
        <time>2014-06-01T10:19:44.000Z</time>
      </trkpt>
      <trkpt lat="46.45269" lon="5.94906">
        <ele>1014.200012207</ele>
        <time>2014-06-01T10:19:47.000Z</time>
      </trkpt>
      <trkpt lat="46.4528" lon="5.9492">
        <ele>1014.4000244141</ele>
        <time>2014-06-01T10:19:53.000Z</time>
      </trkpt>
      <trkpt lat="46.45284" lon="5.94924">
        <ele>1014.200012207</ele>
        <time>2014-06-01T10:19:55.000Z</time>
      </trkpt>
      <trkpt lat="46.45293" lon="5.94926">
        <ele>1013.799987793</ele>
        <time>2014-06-01T10:20:02.000Z</time>
      </trkpt>
      <trkpt lat="46.45295" lon="5.94927">
        <ele>1013.5999755859</ele>
        <time>2014-06-01T10:20:03.000Z</time>
      </trkpt>
      <trkpt lat="46.45302" lon="5.94937">
        <ele>1013.799987793</ele>
        <time>2014-06-01T10:20:07.000Z</time>
      </trkpt>
      <trkpt lat="46.45308" lon="5.9494">
        <ele>1013.5999755859</ele>
        <time>2014-06-01T10:20:11.000Z</time>
      </trkpt>
      <trkpt lat="46.45307" lon="5.94949">
        <ele>1014.200012207</ele>
        <time>2014-06-01T10:20:19.000Z</time>
      </trkpt>
      <trkpt lat="46.45308" lon="5.94957">
        <ele>1014.5999755859</ele>
        <time>2014-06-01T10:20:24.000Z</time>
      </trkpt>
      <trkpt lat="46.45309" lon="5.94958">
        <ele>1014.5999755859</ele>
        <time>2014-06-01T10:20:25.000Z</time>
      </trkpt>
      <trkpt lat="46.45314" lon="5.94968">
        <ele>1014.799987793</ele>
        <time>2014-06-01T10:20:30.000Z</time>
      </trkpt>
      <trkpt lat="46.45315" lon="5.94972">
        <ele>1015</ele>
        <time>2014-06-01T10:20:31.000Z</time>
      </trkpt>
      <trkpt lat="46.45312" lon="5.94996">
        <ele>1015.200012207</ele>
        <time>2014-06-01T10:20:37.000Z</time>
      </trkpt>
      <trkpt lat="46.4531" lon="5.95001">
        <ele>1015.200012207</ele>
        <time>2014-06-01T10:20:41.000Z</time>
      </trkpt>
      <trkpt lat="46.45308" lon="5.95012">
        <ele>1015.200012207</ele>
        <time>2014-06-01T10:20:45.000Z</time>
      </trkpt>
      <trkpt lat="46.45309" lon="5.95018">
        <ele>1015.200012207</ele>
        <time>2014-06-01T10:20:49.000Z</time>
      </trkpt>
      <trkpt lat="46.45311" lon="5.95017">
        <ele>1015.200012207</ele>
        <time>2014-06-01T10:20:50.000Z</time>
      </trkpt>
      <trkpt lat="46.45314" lon="5.95017">
        <ele>1015</ele>
        <time>2014-06-01T10:20:52.000Z</time>
      </trkpt>
      <trkpt lat="46.45326" lon="5.95026">
        <ele>1013.799987793</ele>
        <time>2014-06-01T10:20:57.000Z</time>
      </trkpt>
      <trkpt lat="46.45331" lon="5.95029">
        <ele>1013.4000244141</ele>
        <time>2014-06-01T10:21:01.000Z</time>
      </trkpt>
      <trkpt lat="46.45332" lon="5.95029">
        <ele>1013.4000244141</ele>
        <time>2014-06-01T10:21:02.000Z</time>
      </trkpt>
      <trkpt lat="46.4534" lon="5.95028">
        <ele>1012.4000244141</ele>
        <time>2014-06-01T10:21:06.000Z</time>
      </trkpt>
      <trkpt lat="46.45345" lon="5.95024">
        <ele>1011.799987793</ele>
        <time>2014-06-01T10:21:09.000Z</time>
      </trkpt>
      <trkpt lat="46.45354" lon="5.9502">
        <ele>1010.799987793</ele>
        <time>2014-06-01T10:21:13.000Z</time>
      </trkpt>
      <trkpt lat="46.45362" lon="5.95024">
        <ele>1010</ele>
        <time>2014-06-01T10:21:17.000Z</time>
      </trkpt>
      <trkpt lat="46.4537" lon="5.95027">
        <ele>1009</ele>
        <time>2014-06-01T10:21:21.000Z</time>
      </trkpt>
      <trkpt lat="46.45374" lon="5.95024">
        <ele>1008.200012207</ele>
        <time>2014-06-01T10:21:24.000Z</time>
      </trkpt>
      <trkpt lat="46.45387" lon="5.95013">
        <ele>1005.4000244141</ele>
        <time>2014-06-01T10:21:29.000Z</time>
      </trkpt>
      <trkpt lat="46.45392" lon="5.94996">
        <ele>1003.4000244141</ele>
        <time>2014-06-01T10:21:34.000Z</time>
      </trkpt>
      <trkpt lat="46.45401" lon="5.94995">
        <ele>1002</ele>
        <time>2014-06-01T10:21:38.000Z</time>
      </trkpt>
      <trkpt lat="46.45408" lon="5.94993">
        <ele>1001.200012207</ele>
        <time>2014-06-01T10:21:40.000Z</time>
      </trkpt>
      <trkpt lat="46.45427" lon="5.94992">
        <ele>999.40002441406</ele>
        <time>2014-06-01T10:21:46.000Z</time>
      </trkpt>
      <trkpt lat="46.45434" lon="5.95005">
        <ele>999.20001220703</ele>
        <time>2014-06-01T10:21:49.000Z</time>
      </trkpt>
      <trkpt lat="46.45454" lon="5.95044">
        <ele>999.20001220703</ele>
        <time>2014-06-01T10:21:56.000Z</time>
      </trkpt>
      <trkpt lat="46.4546" lon="5.95054">
        <ele>999.20001220703</ele>
        <time>2014-06-01T10:21:58.000Z</time>
      </trkpt>
      <trkpt lat="46.45467" lon="5.95085">
        <ele>1000.5999755859</ele>
        <time>2014-06-01T10:22:03.000Z</time>
      </trkpt>
      <trkpt lat="46.45468" lon="5.95101">
        <ele>1001.5999755859</ele>
        <time>2014-06-01T10:22:05.000Z</time>
      </trkpt>
      <trkpt lat="46.45475" lon="5.95123">
        <ele>1002.5999755859</ele>
        <time>2014-06-01T10:22:09.000Z</time>
      </trkpt>
      <trkpt lat="46.45477" lon="5.95124">
        <ele>1002.4000244141</ele>
        <time>2014-06-01T10:22:11.000Z</time>
      </trkpt>
      <trkpt lat="46.45478" lon="5.95124">
        <ele>1002.200012207</ele>
        <time>2014-06-01T10:22:12.000Z</time>
      </trkpt>
    </trkseg>
  </trk>
</gpx>